[[{"header":{"parameterUnit":"m.s-1","parameterCategory":1,"la1":31.0,"la2":29.5877,"lo1":-88.7671,"lo2":-86.6584,"dy":0.0162,"dx":0.0185,"nx":115,"ny":88,"refTime":"2024-03-22T06:00:00:Z","depth":0,"parameterNumber":2,"parameterNumberName":"U-component_of_WINDS"},"data":[0.0,0.0,0.0,0.0,0.0,0.0,0.0,0.0,0.0,0.0,0.0,0.0,0.0,0.0,0.0,0.0,0.0,0.0,0.0,0.0,0.0,0.0,0.0,0.0,0.0,0.0,0.0,0.0,0.0,0.0,0.0,0.0,0.0,0.0,0.0,0.0,0.0,0.0,0.0,0.0,0.0,0.0,0.0,0.0,0.0,0.0,0.0,0.0,0.0,0.0,0.0,0.0,0.0,0.0,0.0,0.0,0.0,0.0,0.0,0.0,0.0,0.0,0.0,0.0,0.0,0.0,0.0,0.0,0.0,0.0,0.0,0.0,0.0,0.0,0.0,0.0,0.0,0.0,0.0,0.0,0.0,0.0,0.0,0.0,0.0,0.0,0.0,0.0,0.0,0.0,0.0,0.0,0.0,0.0,0.0,0.0,0.0,0.0,0.0,0.0,0.0,0.0,0.0,0.0,0.0,0.0,0.0,0.0,0.0,0.0,0.0,0.0,0.0,0.0,0.0,0.0,0.0,0.0,0.0,0.0,0.0,0.0,0.0,0.0,0.0,0.0,0.0,0.0,0.0,0.0,0.0,0.0,0.0,0.0,0.0,0.0,0.0,0.0,0.0,0.0,0.0,0.0,0.0,0.0,0.0,0.0,0.0,0.0,0.0,0.0,0.0,0.0,0.0,0.0,0.0,0.0,0.0,0.0,0.0,0.0,0.0,0.0,0.0,0.0,0.0,0.0,0.0,0.0,0.0,0.0,0.0,0.0,0.0,0.0,0.0,0.0,0.0,0.0,0.0,0.0,0.0,0.0,0.0,0.0,0.0,0.0,0.0,0.0,0.0,0.0,0.0,0.0,0.0,0.0,0.0,0.0,0.0,0.0,0.0,0.0,0.0,0.0,0.0,0.0,0.0,0.0,0.0,0.0,0.0,0.0,0.0,0.0,0.0,0.0,0.0,0.0,0.0,0.0,0.0,0.0,0.0,0.0,0.0,0.0,0.0,0.0,0.0,0.0,0.0,0.0,0.0,0.0,0.0,0.0,0.0,0.0,0.0,0.0,0.0,0.0,0.0,0.0,0.0,0.0,0.0,0.0,0.0,0.0,0.0,0.0,0.0,0.0,0.0,0.0,0.0,0.0,0.0,0.0,0.0,0.0,0.0,0.0,0.0,0.0,0.0,0.0,0.0,0.0,0.0,0.0,0.0,0.0,0.0,0.0,0.0,0.0,0.0,0.0,0.0,0.0,0.0,0.0,0.0,0.0,0.0,0.0,0.0,0.0,0.0,0.0,0.0,0.0,0.0,0.0,0.0,0.0,0.0,0.0,0.0,0.0,0.0,0.0,0.0,0.0,0.0,0.0,0.0,0.0,0.0,0.0,0.0,0.0,0.0,0.0,0.0,0.0,0.0,0.0,0.0,0.0,0.0,0.0,0.0,0.0,0.0,0.0,0.0,0.0,0.0,0.0,0.0,0.0,0.0,0.0,0.0,0.0,0.0,0.0,0.0,0.0,0.0,0.0,0.0,0.0,0.0,0.0,0.0,0.0,0.0,0.0,0.0,0.0,0.0,0.0,0.0,0.0,0.0,0.0,0.0,0.0,0.0,0.0,0.0,0.0,0.0,0.0,0.0,0.0,0.0,0.0,0.0,0.0,0.0,0.0,0.0,0.0,0.0,0.0,0.0,0.0,0.0,0.0,0.0,0.0,0.0,0.0,0.0,0.0,0.0,0.0,0.0,0.0,0.0,0.0,0.0,0.0,0.0,0.0,0.0,0.0,0.0,0.0,0.0,0.0,0.0,0.0,0.0,0.0,0.0,0.0,0.0,0.0,0.0,0.0,0.0,0.0,0.0,0.0,0.0,0.0,0.0,0.0,0.0,0.0,0.0,0.0,0.0,0.0,0.0,0.0,0.0,0.0,0.0,0.0,0.0,0.0,0.0,0.0,0.0,0.0,0.0,0.0,0.0,0.0,0.0,0.0,0.0,0.0,0.0,0.0,0.0,0.0,0.0,0.0,0.0,0.0,0.0,0.0,0.0,0.0,0.0,0.0,0.0,0.0,0.0,0.0,0.0,0.0,0.0,0.0,0.0,0.0,0.0,0.0,0.0,0.0,0.0,0.0,0.0,0.0,0.0,0.0,0.0,0.0,0.0,0.0,0.0,0.0,0.0,0.0,0.0,0.0,0.0,0.0,0.0,0.0,0.0,0.0,0.0,0.0,0.0,0.0,0.0,0.0,0.0,0.0,0.0,0.0,0.0,0.0,0.0,0.0,0.0,0.0,0.0,0.0,0.0,0.0,0.0,0.0,0.0,0.0,0.0,0.0,0.0,0.0,0.0,0.0,0.0,0.0,0.0,0.0,0.0,0.0,0.0,0.0,0.0,0.0,0.0,0.0,0.0,0.0,0.0,0.0,0.0,0.0,0.0,0.0,0.0,0.0,0.0,0.0,0.0,0.0,0.0,0.0,0.0,0.0,0.0,0.0,0.0,0.0,0.0,0.0,0.0,0.0,0.0,0.0,0.0,0.0,0.0,0.0,0.0,0.0,0.0,0.0,0.0,0.0,0.0,0.0,0.0,0.0,0.0,0.0,0.0,0.0,0.0,0.0,0.0,0.0,0.0,0.0,0.0,0.0,0.0,0.0,0.0,0.0,0.0,0.0,0.0,0.0,0.0,0.0,0.0,0.0,0.0,0.0,0.0,0.0,0.0,0.0,0.0,0.0,0.0,0.0,0.0,0.0,0.0,0.0,0.0,0.0,0.0,0.0,0.0,0.0,0.0,0.0,0.0,0.0,0.0,0.0,0.0,0.0,0.0,0.0,0.0,0.0,0.0,0.0,0.0,0.0,0.0,0.0,0.0,0.0,0.0,0.0,0.0,0.0,0.0,0.0,0.0,0.0,0.0,0.0,0.0,0.0,0.0,0.0,0.0,0.0,0.0,0.0,0.0,0.0,0.0,0.0,0.0,0.0,0.0,0.0,0.0,0.0,0.0,0.0,0.0,0.0,0.0,0.0,0.0,0.0,0.0,0.0,0.0,0.0,0.0,0.0,0.0,0.0,0.0,0.0,0.0,0.0,0.0,0.0,0.0,0.0,0.0,0.0,0.0,0.0,0.0,0.0,0.0,0.0,0.0,0.0,0.0,0.0,0.0,0.0,0.0,0.0,0.0,0.0,0.0,0.0,0.0,0.0,0.0,0.0,0.0,0.0,0.0,0.0,0.0,0.0,0.0,0.0,0.0,0.0,0.0,0.0,0.0,0.0,0.0,0.0,0.0,0.0,0.0,0.0,0.0,0.0,0.0,0.0,0.0,0.0,0.0,0.0,0.0,0.0,0.0,0.0,0.0,0.0,0.0,0.0,0.0,0.0,0.0,0.0,0.0,0.0,0.0,0.0,0.0,0.0,0.0,0.0,0.0,0.0,0.0,0.0,0.0,0.0,0.0,0.0,0.0,0.0,0.0,0.0,0.0,0.0,0.0,0.0,0.0,0.0,0.0,0.0,0.0,0.0,0.0,0.0,0.0,0.0,0.0,0.0,0.0,0.0,0.0,0.0,0.0,0.0,0.0,0.0,0.0,0.0,0.0,0.0,0.0,0.0,0.0,0.0,0.0,0.0,0.0,0.0,0.0,0.0,0.0,0.0,0.0,0.0,0.0,0.0,0.0,0.0,0.0,0.0,0.0,0.0,0.0,0.0,0.0,0.0,0.0,0.0,0.0,0.0,0.0,0.0,0.0,0.0,0.0,0.0,0.0,0.0,0.0,0.0,0.0,0.0,0.0,0.0,0.0,0.0,0.0,0.0,0.0,0.0,0.0,0.0,0.0,0.0,0.0,0.0,0.0,0.0,0.0,0.0,0.0,0.0,0.0,0.0,0.0,0.0,0.0,0.0,0.0,0.0,0.0,0.0,0.0,0.0,0.0,0.0,0.0,0.0,0.0,0.0,0.0,0.0,0.0,0.0,0.0,0.0,0.0,0.0,0.0,0.0,0.0,0.0,0.0,0.0,0.0,0.0,0.0,0.0,0.0,0.0,0.0,0.0,0.0,0.0,0.0,0.0,0.0,0.0,0.0,0.0,0.0,0.0,0.0,0.0,0.0,0.0,0.0,0.0,0.0,0.0,0.0,0.0,0.0,0.0,0.0,0.0,0.0,0.0,0.0,0.0,0.0,0.0,0.0,0.0,0.0,0.0,0.0,0.0,0.0,0.0,0.0,0.0,0.0,0.0,0.0,0.0,0.0,0.0,0.0,0.0,0.0,0.0,0.0,0.0,0.0,0.0,-5.5961,0.0,0.0,0.0,0.0,0.0,0.0,0.0,0.0,0.0,0.0,0.0,0.0,0.0,0.0,0.0,0.0,0.0,0.0,0.0,0.0,0.0,0.0,0.0,0.0,0.0,0.0,0.0,0.0,0.0,0.0,0.0,0.0,0.0,0.0,0.0,0.0,0.0,0.0,0.0,0.0,0.0,0.0,0.0,0.0,0.0,0.0,0.0,0.0,0.0,0.0,0.0,0.0,0.0,0.0,0.0,0.0,0.0,0.0,0.0,0.0,0.0,0.0,0.0,0.0,0.0,0.0,0.0,0.0,0.0,0.0,0.0,0.0,0.0,0.0,0.0,0.0,0.0,0.0,0.0,0.0,0.0,0.0,0.0,0.0,0.0,0.0,0.0,0.0,0.0,0.0,0.0,0.0,0.0,0.0,0.0,0.0,0.0,0.0,0.0,0.0,0.0,0.0,0.0,0.0,0.0,0.0,0.0,0.0,0.0,0.0,-5.8392,-5.8131,-5.7817,-5.7268,-5.6458,0.0,0.0,0.0,0.0,0.0,0.0,0.0,0.0,0.0,0.0,0.0,0.0,0.0,0.0,0.0,0.0,0.0,0.0,0.0,0.0,0.0,0.0,0.0,0.0,0.0,0.0,0.0,0.0,0.0,0.0,0.0,0.0,0.0,0.0,0.0,0.0,0.0,0.0,0.0,0.0,0.0,0.0,0.0,0.0,0.0,0.0,0.0,0.0,0.0,0.0,0.0,0.0,0.0,0.0,0.0,0.0,0.0,0.0,0.0,0.0,0.0,0.0,0.0,0.0,0.0,0.0,0.0,0.0,0.0,0.0,0.0,0.0,0.0,0.0,0.0,0.0,0.0,0.0,0.0,0.0,0.0,0.0,0.0,0.0,0.0,0.0,0.0,0.0,0.0,0.0,0.0,0.0,0.0,0.0,0.0,0.0,0.0,0.0,0.0,0.0,0.0,0.0,0.0,0.0,0.0,0.0,0.0,0.0,0.0,0.0,0.0,0.0,-5.8287,-5.7765,-5.7216,0.0,0.0,0.0,0.0,0.0,0.0,0.0,0.0,0.0,0.0,0.0,0.0,0.0,0.0,0.0,0.0,0.0,0.0,0.0,0.0,0.0,0.0,0.0,0.0,0.0,0.0,0.0,0.0,0.0,0.0,0.0,0.0,0.0,0.0,0.0,0.0,0.0,0.0,0.0,0.0,0.0,0.0,0.0,0.0,0.0,0.0,0.0,0.0,0.0,0.0,0.0,0.0,0.0,0.0,0.0,0.0,0.0,0.0,0.0,0.0,0.0,0.0,0.0,0.0,0.0,0.0,0.0,0.0,0.0,0.0,0.0,0.0,0.0,0.0,0.0,0.0,0.0,0.0,0.0,0.0,0.0,0.0,0.0,0.0,0.0,0.0,0.0,0.0,0.0,0.0,0.0,0.0,0.0,0.0,0.0,0.0,0.0,0.0,0.0,0.0,0.0,0.0,0.0,0.0,0.0,0.0,0.0,0.0,0.0,0.0,-5.8758,-5.9255,-5.93,0.0,-5.8392,0.0,0.0,0.0,0.0,0.0,0.0,0.0,0.0,0.0,0.0,0.0,0.0,0.0,0.0,0.0,0.0,0.0,0.0,0.0,0.0,0.0,0.0,0.0,0.0,0.0,0.0,0.0,0.0,0.0,0.0,0.0,0.0,0.0,0.0,0.0,0.0,0.0,0.0,0.0,0.0,0.0,0.0,0.0,0.0,0.0,0.0,0.0,0.0,0.0,0.0,0.0,0.0,0.0,0.0,0.0,0.0,0.0,0.0,0.0,0.0,0.0,0.0,0.0,0.0,0.0,0.0,0.0,0.0,0.0,0.0,0.0,0.0,0.0,0.0,0.0,0.0,0.0,0.0,0.0,0.0,0.0,0.0,0.0,0.0,0.0,0.0,0.0,0.0,0.0,0.0,0.0,0.0,0.0,0.0,0.0,0.0,0.0,0.0,0.0,0.0,0.0,0.0,0.0,0.0,0.0,0.0,0.0,0.0,0.0,0.0,-5.8784,-5.9333,-5.8706,-5.8235,0.0,0.0,0.0,0.0,0.0,0.0,0.0,0.0,0.0,0.0,0.0,0.0,0.0,0.0,0.0,0.0,0.0,0.0,0.0,0.0,0.0,0.0,0.0,0.0,0.0,0.0,0.0,0.0,0.0,0.0,0.0,0.0,0.0,0.0,0.0,0.0,0.0,0.0,0.0,0.0,0.0,0.0,0.0,0.0,0.0,0.0,0.0,0.0,0.0,0.0,0.0,0.0,0.0,0.0,0.0,0.0,0.0,0.0,0.0,0.0,0.0,0.0,0.0,0.0,0.0,0.0,0.0,0.0,0.0,0.0,0.0,0.0,0.0,0.0,0.0,0.0,0.0,0.0,0.0,0.0,0.0,0.0,0.0,0.0,0.0,0.0,0.0,0.0,0.0,0.0,0.0,0.0,0.0,0.0,0.0,0.0,0.0,0.0,0.0,0.0,0.0,0.0,0.0,0.0,0.0,0.0,0.0,0.0,0.0,0.0,-5.8601,-5.8784,-5.9281,-5.8646,-5.7965,-5.7521,0.0,0.0,0.0,0.0,0.0,0.0,0.0,0.0,0.0,0.0,0.0,0.0,0.0,0.0,0.0,0.0,0.0,0.0,0.0,0.0,0.0,0.0,0.0,0.0,0.0,0.0,0.0,0.0,0.0,0.0,0.0,0.0,0.0,0.0,0.0,0.0,0.0,0.0,0.0,0.0,0.0,0.0,0.0,0.0,0.0,0.0,0.0,0.0,0.0,0.0,0.0,0.0,0.0,0.0,0.0,0.0,0.0,0.0,0.0,0.0,0.0,0.0,0.0,0.0,0.0,0.0,0.0,0.0,0.0,0.0,0.0,0.0,0.0,0.0,0.0,0.0,0.0,0.0,0.0,0.0,0.0,0.0,0.0,0.0,0.0,0.0,0.0,0.0,0.0,0.0,0.0,0.0,0.0,0.0,0.0,0.0,0.0,0.0,0.0,0.0,0.0,0.0,0.0,0.0,0.0,0.0,0.0,0.0,-5.9202,-5.8784,-5.8784,-5.9359,-5.9379,-5.8523,0.0,0.0,0.0,0.0,0.0,0.0,0.0,0.0,0.0,0.0,0.0,0.0,0.0,0.0,0.0,0.0,0.0,0.0,0.0,0.0,0.0,0.0,0.0,0.0,0.0,0.0,0.0,0.0,0.0,0.0,0.0,0.0,0.0,0.0,0.0,0.0,0.0,0.0,0.0,0.0,0.0,0.0,0.0,0.0,0.0,0.0,0.0,0.0,0.0,0.0,0.0,0.0,0.0,0.0,0.0,0.0,0.0,0.0,0.0,0.0,0.0,0.0,0.0,0.0,0.0,0.0,0.0,0.0,0.0,0.0,0.0,0.0,0.0,0.0,0.0,0.0,0.0,0.0,0.0,0.0,0.0,0.0,0.0,0.0,0.0,0.0,0.0,0.0,0.0,0.0,0.0,0.0,0.0,0.0,0.0,0.0,0.0,0.0,0.0,0.0,0.0,0.0,0.0,0.0,0.0,0.0,0.0,0.0,0.0,-5.8279,-5.8078,-5.8601,-5.9803,-5.8497,-5.7765,0.0,0.0,0.0,0.0,0.0,0.0,0.0,0.0,0.0,0.0,0.0,0.0,0.0,0.0,0.0,0.0,0.0,0.0,0.0,0.0,0.0,0.0,0.0,0.0,0.0,0.0,0.0,0.0,0.0,0.0,0.0,0.0,0.0,0.0,0.0,0.0,0.0,0.0,0.0,0.0,0.0,0.0,0.0,0.0,0.0,0.0,0.0,0.0,0.0,0.0,0.0,0.0,0.0,0.0,0.0,0.0,0.0,0.0,0.0,0.0,0.0,0.0,0.0,0.0,0.0,0.0,0.0,0.0,0.0,0.0,0.0,0.0,0.0,0.0,0.0,0.0,0.0,0.0,0.0,0.0,0.0,0.0,0.0,0.0,0.0,0.0,0.0,0.0,0.0,0.0,0.0,0.0,0.0,0.0,0.0,0.0,0.0,0.0,0.0,0.0,0.0,0.0,0.0,0.0,0.0,0.0,0.0,0.0,0.0,-5.8253,0.0,-5.8862,-5.9568,-5.8183,-5.7373,0.0,0.0,0.0,0.0,0.0,0.0,0.0,0.0,0.0,0.0,0.0,0.0,0.0,0.0,0.0,0.0,0.0,0.0,0.0,0.0,0.0,0.0,0.0,0.0,0.0,0.0,0.0,0.0,0.0,0.0,0.0,0.0,0.0,0.0,0.0,0.0,0.0,0.0,0.0,0.0,0.0,0.0,0.0,0.0,0.0,0.0,0.0,0.0,0.0,0.0,0.0,0.0,0.0,0.0,0.0,0.0,0.0,0.0,0.0,0.0,0.0,0.0,0.0,0.0,0.0,0.0,0.0,0.0,0.0,0.0,0.0,0.0,0.0,0.0,0.0,0.0,0.0,0.0,0.0,0.0,0.0,0.0,0.0,0.0,0.0,0.0,0.0,0.0,0.0,0.0,0.0,0.0,0.0,0.0,0.0,0.0,0.0,0.0,0.0,0.0,0.0,0.0,0.0,0.0,0.0,0.0,0.0,0.0,-5.766,-5.9255,-5.9856,-5.9647,-5.8601,-5.8523,-5.7451,0.0,0.0,0.0,0.0,0.0,0.0,0.0,0.0,0.0,0.0,0.0,0.0,0.0,0.0,0.0,0.0,0.0,0.0,0.0,0.0,0.0,0.0,0.0,0.0,0.0,0.0,0.0,0.0,0.0,0.0,0.0,0.0,0.0,0.0,0.0,0.0,0.0,0.0,0.0,0.0,0.0,0.0,0.0,0.0,0.0,0.0,0.0,0.0,0.0,0.0,0.0,0.0,0.0,0.0,0.0,0.0,0.0,0.0,0.0,0.0,0.0,0.0,0.0,0.0,0.0,0.0,0.0,0.0,0.0,0.0,0.0,0.0,0.0,0.0,0.0,0.0,0.0,0.0,0.0,0.0,0.0,0.0,0.0,0.0,0.0,0.0,0.0,0.0,0.0,0.0,0.0,0.0,0.0,0.0,0.0,0.0,0.0,0.0,0.0,0.0,0.0,0.0,0.0,0.0,0.0,0.0,0.0,0.0,0.0,-5.8209,-5.915,-5.9856,-6.0222,-5.8758,-5.8157,0.0,0.0,0.0,0.0,0.0,0.0,0.0,0.0,0.0,0.0,0.0,0.0,0.0,0.0,0.0,0.0,0.0,0.0,0.0,0.0,0.0,0.0,0.0,0.0,0.0,0.0,0.0,0.0,0.0,0.0,0.0,0.0,0.0,0.0,0.0,0.0,0.0,0.0,0.0,0.0,0.0,0.0,0.0,0.0,0.0,0.0,0.0,0.0,0.0,0.0,0.0,0.0,0.0,0.0,0.0,0.0,0.0,0.0,0.0,0.0,0.0,0.0,0.0,0.0,0.0,0.0,0.0,0.0,0.0,0.0,0.0,0.0,0.0,0.0,0.0,0.0,0.0,0.0,0.0,0.0,0.0,0.0,0.0,0.0,0.0,0.0,0.0,0.0,0.0,0.0,0.0,0.0,0.0,0.0,0.0,0.0,0.0,0.0,0.0,0.0,0.0,0.0,0.0,0.0,0.0,0.0,0.0,0.0,0.0,-5.9647,-6.0274,-6.0797,-6.111,-5.9699,-5.9045,-5.9202,0.0,0.0,0.0,0.0,0.0,0.0,0.0,0.0,0.0,0.0,0.0,0.0,0.0,0.0,0.0,0.0,0.0,0.0,0.0,0.0,0.0,0.0,0.0,0.0,0.0,0.0,0.0,0.0,0.0,0.0,0.0,0.0,0.0,0.0,0.0,0.0,0.0,0.0,0.0,0.0,0.0,0.0,0.0,0.0,0.0,0.0,0.0,0.0,0.0,0.0,0.0,0.0,0.0,0.0,0.0,0.0,0.0,0.0,0.0,0.0,0.0,0.0,0.0,0.0,0.0,0.0,0.0,0.0,0.0,0.0,0.0,0.0,0.0,0.0,0.0,0.0,0.0,0.0,0.0,0.0,0.0,0.0,0.0,0.0,0.0,0.0,0.0,0.0,0.0,0.0,0.0,0.0,0.0,0.0,0.0,0.0,0.0,0.0,0.0,0.0,0.0,0.0,0.0,0.0,0.0,0.0,0.0,0.0,-6.2862,-6.2966,-6.2496,-6.145,-6.1267,-6.0169,0.0,0.0,0.0,0.0,0.0,0.0,0.0,0.0,0.0,0.0,0.0,0.0,0.0,0.0,0.0,0.0,0.0,0.0,0.0,0.0,0.0,0.0,0.0,0.0,0.0,0.0,0.0,0.0,0.0,0.0,0.0,0.0,0.0,0.0,0.0,0.0,0.0,0.0,0.0,0.0,0.0,0.0,0.0,0.0,0.0,0.0,0.0,0.0,0.0,0.0,0.0,0.0,0.0,0.0,0.0,0.0,0.0,0.0,0.0,0.0,0.0,0.0,0.0,0.0,0.0,0.0,0.0,0.0,0.0,0.0,0.0,0.0,0.0,0.0,0.0,0.0,0.0,0.0,0.0,0.0,0.0,0.0,0.0,0.0,0.0,0.0,0.0,0.0,0.0,0.0,0.0,0.0,0.0,0.0,0.0,0.0,0.0,0.0,0.0,0.0,0.0,0.0,0.0,0.0,0.0,0.0,0.0,0.0,0.0,-6.3437,-6.4691,-6.5031,-6.4273,-6.3045,-6.1894,0.0,0.0,0.0,0.0,0.0,0.0,0.0,0.0,0.0,0.0,0.0,0.0,0.0,0.0,0.0,0.0,0.0,0.0,0.0,0.0,0.0,0.0,0.0,0.0,0.0,0.0,0.0,0.0,0.0,0.0,0.0,0.0,0.0,0.0,0.0,0.0,0.0,0.0,0.0,0.0,0.0,0.0,0.0,0.0,0.0,0.0,0.0,0.0,0.0,0.0,0.0,0.0,0.0,0.0,0.0,0.0,0.0,0.0,0.0,0.0,0.0,0.0,0.0,0.0,0.0,0.0,0.0,0.0,0.0,0.0,0.0,0.0,0.0,0.0,0.0,0.0,0.0,0.0,0.0,0.0,0.0,0.0,0.0,0.0,0.0,0.0,0.0,0.0,0.0,0.0,0.0,0.0,0.0,0.0,0.0,0.0,0.0,0.0,0.0,0.0,0.0,0.0,0.0,0.0,0.0,0.0,0.0,0.0,-6.3489,-6.5083,-6.6338,-6.6834,-6.6469,-6.5057,-6.3672,0.0,0.0,0.0,0.0,0.0,0.0,0.0,0.0,0.0,0.0,0.0,0.0,0.0,0.0,0.0,0.0,0.0,0.0,0.0,0.0,0.0,0.0,0.0,0.0,0.0,0.0,0.0,0.0,0.0,0.0,0.0,0.0,0.0,0.0,0.0,0.0,0.0,0.0,0.0,0.0,0.0,0.0,0.0,0.0,0.0,0.0,0.0,0.0,0.0,0.0,0.0,0.0,0.0,0.0,0.0,0.0,0.0,0.0,0.0,0.0,0.0,0.0,0.0,0.0,0.0,0.0,0.0,0.0,0.0,0.0,0.0,0.0,0.0,0.0,0.0,0.0,0.0,0.0,0.0,0.0,0.0,0.0,0.0,0.0,0.0,0.0,0.0,0.0,0.0,0.0,0.0,0.0,0.0,0.0,0.0,0.0,0.0,0.0,0.0,0.0,0.0,0.0,0.0,0.0,0.0,0.0,0.0,0.0,-6.4979,-6.7044,-6.7854,-6.8272,-6.822,-6.6965,-6.524,0.0,0.0,0.0,0.0,0.0,0.0,0.0,0.0,0.0,0.0,0.0,0.0,0.0,0.0,0.0,0.0,0.0,0.0,0.0,0.0,0.0,0.0,0.0,0.0,0.0,0.0,0.0,0.0,0.0,0.0,0.0,0.0,0.0,0.0,0.0,0.0,0.0,0.0,0.0,0.0,0.0,0.0,0.0,0.0,0.0,0.0,0.0,0.0,0.0,0.0,0.0,0.0,0.0,0.0,0.0,0.0,0.0,0.0,0.0,0.0,0.0,0.0,0.0,0.0,0.0,0.0,0.0,0.0,0.0,0.0,0.0,0.0,0.0,0.0,0.0,0.0,0.0,0.0,0.0,0.0,0.0,0.0,0.0,0.0,0.0,0.0,0.0,0.0,0.0,0.0,0.0,0.0,0.0,0.0,0.0,0.0,0.0,0.0,0.0,0.0,0.0,0.0,0.0,0.0,0.0,0.0,0.0,0.0,-6.6181,-6.7096,-6.903,-7.0023,-7.0023,-6.7592,-6.5423,0.0,0.0,0.0,0.0,0.0,0.0,0.0,0.0,0.0,0.0,0.0,0.0,0.0,0.0,0.0,0.0,0.0,0.0,0.0,0.0,0.0,0.0,0.0,0.0,0.0,0.0,0.0,0.0,0.0,0.0,0.0,0.0,0.0,0.0,0.0,0.0,0.0,0.0,0.0,0.0,0.0,0.0,0.0,0.0,0.0,0.0,0.0,0.0,-5.4341,0.0,0.0,0.0,0.0,0.0,0.0,0.0,0.0,0.0,0.0,0.0,0.0,0.0,0.0,0.0,0.0,0.0,0.0,0.0,0.0,0.0,0.0,0.0,0.0,0.0,0.0,0.0,0.0,0.0,0.0,0.0,0.0,0.0,0.0,0.0,0.0,0.0,0.0,0.0,0.0,0.0,0.0,0.0,0.0,0.0,0.0,0.0,0.0,0.0,0.0,0.0,0.0,0.0,0.0,0.0,0.0,0.0,0.0,0.0,-6.7488,-6.8324,-6.9814,-7.0598,-7.052,-6.7976,-6.6132,0.0,0.0,0.0,0.0,0.0,0.0,0.0,0.0,0.0,0.0,0.0,0.0,0.0,0.0,0.0,0.0,0.0,0.0,0.0,0.0,0.0,0.0,0.0,0.0,0.0,0.0,0.0,0.0,0.0,0.0,0.0,0.0,0.0,0.0,0.0,0.0,0.0,0.0,0.0,0.0,0.0,0.0,0.0,0.0,0.0,0.0,0.0,0.0,0.0,0.0,0.0,0.0,0.0,0.0,0.0,0.0,0.0,0.0,0.0,0.0,0.0,0.0,0.0,0.0,0.0,0.0,0.0,0.0,0.0,0.0,0.0,0.0,0.0,0.0,0.0,0.0,0.0,0.0,0.0,0.0,0.0,0.0,0.0,0.0,0.0,0.0,0.0,0.0,0.0,0.0,0.0,0.0,0.0,0.0,0.0,0.0,0.0,0.0,0.0,0.0,0.0,0.0,0.0,0.0,0.0,0.0,0.0,-6.707,-6.8716,-6.9919,-7.0453,-7.0542,-7.036,-6.7842,-6.6552,-6.6572,0.0,0.0,0.0,0.0,0.0,0.0,0.0,0.0,0.0,0.0,0.0,0.0,0.0,0.0,0.0,0.0,0.0,0.0,0.0,0.0,0.0,0.0,0.0,0.0,0.0,0.0,0.0,0.0,0.0,0.0,0.0,0.0,0.0,0.0,0.0,0.0,0.0,0.0,-5.558,-5.6098,0.0,0.0,0.0,0.0,0.0,0.0,0.0,0.0,-5.5162,0.0,0.0,0.0,0.0,0.0,0.0,0.0,0.0,0.0,0.0,0.0,0.0,0.0,0.0,0.0,0.0,0.0,0.0,0.0,0.0,0.0,0.0,0.0,0.0,0.0,0.0,0.0,0.0,0.0,0.0,0.0,0.0,0.0,0.0,0.0,0.0,0.0,0.0,0.0,0.0,0.0,0.0,0.0,0.0,0.0,0.0,0.0,0.0,0.0,0.0,0.0,0.0,0.0,0.0,0.0,0.0,-6.7357,-6.8272,-6.9501,-7.1095,-7.0997,-7.0516,-6.9483,-6.6706,-6.4964,-6.4403,0.0,0.0,0.0,0.0,0.0,0.0,0.0,0.0,0.0,0.0,0.0,0.0,0.0,0.0,0.0,0.0,0.0,0.0,0.0,0.0,0.0,0.0,0.0,0.0,0.0,0.0,0.0,0.0,0.0,0.0,0.0,0.0,0.0,0.0,0.0,0.0,0.0,0.0,0.0,-5.7564,-5.7266,0.0,0.0,0.0,0.0,0.0,0.0,0.0,0.0,-5.5096,0.0,0.0,0.0,0.0,0.0,0.0,0.0,0.0,0.0,0.0,0.0,0.0,0.0,0.0,0.0,0.0,0.0,0.0,0.0,0.0,0.0,0.0,0.0,0.0,0.0,0.0,0.0,0.0,0.0,0.0,0.0,0.0,0.0,0.0,0.0,0.0,0.0,0.0,0.0,0.0,0.0,0.0,0.0,0.0,0.0,0.0,0.0,0.0,0.0,0.0,0.0,0.0,0.0,0.0,0.0,-6.6573,-6.7912,-6.8991,-6.9814,-6.9559,-6.8989,-6.8165,-6.5315,-6.3683,0.0,0.0,0.0,0.0,0.0,0.0,0.0,0.0,0.0,0.0,0.0,0.0,0.0,0.0,0.0,0.0,0.0,0.0,0.0,0.0,0.0,0.0,0.0,0.0,0.0,0.0,0.0,0.0,0.0,0.0,0.0,0.0,0.0,0.0,0.0,0.0,0.0,0.0,0.0,0.0,-5.8371,-5.8251,-5.8495,0.0,0.0,0.0,0.0,0.0,0.0,-5.5917,-5.5633,0.0,0.0,0.0,0.0,0.0,0.0,0.0,0.0,0.0,0.0,0.0,0.0,0.0,0.0,0.0,0.0,0.0,0.0,0.0,0.0,0.0,0.0,0.0,0.0,0.0,0.0,0.0,0.0,0.0,0.0,0.0,0.0,0.0,0.0,0.0,0.0,0.0,0.0,0.0,0.0,0.0,0.0,0.0,0.0,0.0,0.0,0.0,0.0,0.0,0.0,0.0,0.0,0.0,0.0,0.0,-6.5526,-6.7374,-6.8431,-6.8671,-6.817,-6.7529,-6.6587,-6.3846,-6.2337,0.0,0.0,0.0,0.0,0.0,0.0,0.0,0.0,0.0,0.0,0.0,0.0,0.0,0.0,0.0,0.0,0.0,0.0,0.0,0.0,0.0,0.0,0.0,0.0,0.0,0.0,0.0,0.0,0.0,0.0,0.0,0.0,0.0,0.0,0.0,0.0,0.0,0.0,0.0,0.0,0.0,-5.9383,-5.9329,-5.8562,0.0,0.0,0.0,0.0,-5.759,-5.7384,0.0,0.0,0.0,0.0,0.0,0.0,0.0,0.0,0.0,0.0,0.0,0.0,0.0,0.0,0.0,0.0,0.0,0.0,0.0,0.0,0.0,0.0,0.0,0.0,0.0,0.0,0.0,0.0,0.0,0.0,0.0,0.0,0.0,0.0,0.0,0.0,0.0,0.0,0.0,0.0,0.0,0.0,0.0,0.0,0.0,0.0,0.0,0.0,0.0,0.0,0.0,0.0,0.0,0.0,0.0,0.0,-6.6075,-6.7169,-6.8371,-6.9566,-6.853,-6.7094,-6.5088,-6.265,-6.0586,0.0,0.0,0.0,0.0,0.0,0.0,0.0,0.0,0.0,0.0,0.0,0.0,0.0,0.0,0.0,0.0,0.0,0.0,0.0,0.0,0.0,0.0,0.0,0.0,0.0,0.0,0.0,0.0,0.0,0.0,0.0,0.0,0.0,0.0,0.0,0.0,0.0,0.0,0.0,0.0,0.0,-6.0634,-6.0532,-6.0353,-6.0046,0.0,0.0,-5.9434,-5.9744,-6.0074,0.0,0.0,0.0,0.0,0.0,0.0,0.0,0.0,0.0,0.0,0.0,0.0,0.0,0.0,0.0,0.0,0.0,0.0,0.0,0.0,0.0,0.0,0.0,0.0,0.0,0.0,0.0,0.0,0.0,0.0,0.0,0.0,0.0,0.0,0.0,0.0,0.0,0.0,0.0,0.0,0.0,0.0,0.0,0.0,0.0,0.0,0.0,0.0,0.0,0.0,0.0,0.0,0.0,0.0,0.0,-6.2084,-6.4533,-6.5284,-6.5793,-6.6148,-6.5347,-6.4289,-6.2764,-6.1206,-5.9559,0.0,0.0,0.0,0.0,0.0,0.0,0.0,0.0,0.0,0.0,0.0,0.0,0.0,0.0,0.0,0.0,0.0,0.0,0.0,0.0,0.0,0.0,0.0,0.0,0.0,0.0,0.0,0.0,0.0,0.0,0.0,0.0,0.0,0.0,0.0,0.0,0.0,0.0,0.0,0.0,0.0,0.0,-6.0554,-6.0963,0.0,0.0,0.0,-6.0583,-6.1012,0.0,0.0,0.0,0.0,0.0,0.0,0.0,0.0,0.0,0.0,0.0,0.0,0.0,0.0,0.0,0.0,0.0,0.0,0.0,0.0,0.0,0.0,0.0,0.0,0.0,0.0,0.0,0.0,0.0,0.0,0.0,0.0,0.0,0.0,0.0,0.0,0.0,0.0,0.0,0.0,0.0,0.0,0.0,0.0,0.0,0.0,0.0,0.0,0.0,0.0,0.0,0.0,0.0,0.0,0.0,0.0,0.0,-6.3463,-6.3914,-6.4034,-6.3858,-6.3454,-6.2712,-6.1625,-6.0453,0.0,0.0,0.0,0.0,0.0,0.0,0.0,0.0,0.0,0.0,0.0,0.0,0.0,0.0,0.0,0.0,0.0,0.0,0.0,0.0,0.0,0.0,0.0,0.0,0.0,0.0,0.0,-5.4026,0.0,0.0,0.0,0.0,0.0,0.0,0.0,0.0,0.0,0.0,0.0,0.0,0.0,0.0,-6.1372,-6.095,-6.1739,-6.2252,0.0,0.0,-6.1923,-6.24,-6.2349,-6.1511,0.0,0.0,0.0,0.0,0.0,0.0,0.0,0.0,0.0,0.0,0.0,0.0,0.0,0.0,0.0,0.0,0.0,0.0,0.0,0.0,0.0,0.0,0.0,0.0,0.0,0.0,0.0,0.0,0.0,0.0,0.0,0.0,0.0,0.0,0.0,0.0,0.0,0.0,0.0,0.0,0.0,0.0,0.0,0.0,0.0,0.0,0.0,0.0,0.0,0.0,0.0,0.0,0.0,0.0,-6.1085,-6.3906,-6.4109,-6.4565,-6.5264,-6.4976,-6.4052,-6.2515,-6.1139,-5.949,0.0,0.0,0.0,0.0,0.0,0.0,0.0,0.0,0.0,0.0,0.0,0.0,0.0,0.0,0.0,0.0,0.0,0.0,0.0,0.0,0.0,0.0,0.0,0.0,0.0,0.0,0.0,0.0,0.0,0.0,0.0,0.0,0.0,0.0,0.0,0.0,0.0,0.0,0.0,0.0,0.0,-6.1951,-6.2379,-6.3367,-6.4146,0.0,-6.4165,-6.4095,-6.432,-6.5142,-6.4304,-6.0189,0.0,0.0,0.0,0.0,0.0,0.0,0.0,0.0,0.0,0.0,0.0,0.0,0.0,0.0,0.0,0.0,0.0,0.0,0.0,0.0,0.0,0.0,0.0,0.0,0.0,0.0,0.0,0.0,0.0,0.0,0.0,0.0,0.0,0.0,0.0,0.0,0.0,0.0,0.0,0.0,0.0,0.0,0.0,0.0,0.0,0.0,0.0,0.0,0.0,0.0,0.0,0.0,0.0,-6.0621,-6.277,-6.2802,-6.3058,-6.3357,-6.3479,-6.2967,-6.1785,-6.1212,-5.9858,0.0,0.0,0.0,0.0,0.0,0.0,0.0,0.0,0.0,0.0,0.0,0.0,0.0,0.0,0.0,0.0,0.0,0.0,0.0,0.0,0.0,0.0,0.0,0.0,0.0,0.0,0.0,0.0,-5.6744,-5.6814,-5.6408,0.0,0.0,0.0,0.0,0.0,0.0,0.0,0.0,0.0,0.0,-6.2501,-6.3168,-6.3924,0.0,0.0,-6.4446,-6.4521,-6.4881,-6.4454,-6.34,-6.1366,-5.9965,0.0,0.0,0.0,0.0,0.0,0.0,0.0,0.0,0.0,0.0,0.0,0.0,0.0,0.0,0.0,0.0,0.0,0.0,0.0,0.0,0.0,0.0,0.0,0.0,0.0,0.0,0.0,0.0,0.0,0.0,0.0,0.0,0.0,0.0,0.0,0.0,0.0,0.0,0.0,0.0,0.0,0.0,0.0,0.0,0.0,0.0,0.0,0.0,0.0,0.0,0.0,0.0,-6.013,-6.1401,-6.1862,-6.1993,-6.1993,-6.2475,-6.2268,-6.1281,-6.1074,-5.9949,0.0,0.0,0.0,0.0,0.0,0.0,0.0,0.0,0.0,0.0,0.0,0.0,0.0,0.0,0.0,0.0,0.0,0.0,0.0,0.0,0.0,0.0,0.0,0.0,0.0,0.0,0.0,0.0,-5.7098,-5.71,-5.6449,0.0,0.0,0.0,0.0,0.0,0.0,0.0,0.0,0.0,0.0,-6.3249,-6.4086,-6.4479,-6.4781,-6.4931,-6.468,-6.4655,-6.5208,-6.4329,-6.3199,-6.2169,0.0,0.0,0.0,0.0,0.0,0.0,0.0,0.0,0.0,0.0,0.0,0.0,0.0,0.0,0.0,0.0,0.0,0.0,0.0,0.0,0.0,0.0,0.0,0.0,0.0,0.0,0.0,-6.0169,0.0,0.0,-5.9333,0.0,0.0,0.0,0.0,0.0,0.0,0.0,0.0,0.0,0.0,0.0,0.0,0.0,0.0,0.0,0.0,0.0,0.0,0.0,0.0,0.0,0.0,-5.9719,-6.0148,-6.1387,-6.197,-6.1993,-6.2475,-6.2245,-6.1258,-6.0753,-5.9766,-5.8204,0.0,0.0,0.0,0.0,0.0,0.0,0.0,0.0,0.0,0.0,0.0,0.0,0.0,0.0,0.0,0.0,0.0,0.0,0.0,0.0,0.0,0.0,0.0,0.0,0.0,0.0,-5.5509,-5.5749,-5.5796,0.0,0.0,0.0,0.0,0.0,0.0,0.0,0.0,0.0,0.0,-6.284,-6.4028,-6.5082,-6.5283,-6.5459,-6.5961,-6.5157,-6.468,-6.5233,-6.5233,-6.4505,0.0,0.0,0.0,0.0,0.0,0.0,0.0,0.0,0.0,0.0,0.0,0.0,0.0,0.0,0.0,0.0,0.0,0.0,0.0,0.0,0.0,0.0,0.0,0.0,0.0,0.0,0.0,-6.2077,-6.1346,0.0,0.0,0.0,0.0,0.0,0.0,0.0,0.0,0.0,0.0,0.0,-6.0837,-6.0801,0.0,0.0,0.0,0.0,0.0,0.0,0.0,0.0,0.0,0.0,0.0,0.0,-5.9719,-6.0086,-6.0972,-6.1648,-6.197,-6.2154,-6.1924,-6.1258,-6.1074,-5.9949,-5.7791,0.0,0.0,0.0,0.0,0.0,0.0,0.0,0.0,0.0,0.0,0.0,0.0,0.0,0.0,0.0,0.0,0.0,0.0,0.0,0.0,0.0,0.0,0.0,0.0,0.0,-5.6821,0.0,0.0,0.0,0.0,0.0,0.0,0.0,0.0,0.0,0.0,0.0,-6.1287,-6.2336,-6.3482,-6.4605,-6.5685,-6.5835,-6.5911,0.0,0.0,0.0,0.0,0.0,0.0,0.0,0.0,0.0,0.0,0.0,0.0,0.0,0.0,-6.1341,-5.8428,-5.7575,-5.7399,-5.7575,0.0,0.0,0.0,0.0,0.0,0.0,0.0,0.0,0.0,0.0,0.0,0.0,0.0,0.0,-6.3384,-6.2809,-6.2051,0.0,0.0,0.0,0.0,0.0,0.0,0.0,0.0,-6.239,-6.2349,-6.1159,-6.1098,-6.0818,0.0,-5.9895,-5.9307,0.0,0.0,0.0,0.0,0.0,0.0,0.0,0.0,-5.9248,-5.9484,-6.0653,-6.1304,-6.1465,-6.1625,-6.1488,-6.0983,-6.0799,-5.9858,-5.8067,-5.7171,-5.6023,0.0,0.0,0.0,0.0,0.0,0.0,0.0,0.0,0.0,0.0,0.0,0.0,0.0,0.0,0.0,0.0,0.0,0.0,0.0,0.0,0.0,0.0,0.0,-5.5904,0.0,0.0,0.0,0.0,0.0,0.0,0.0,0.0,0.0,-5.9919,-6.141,-6.2795,-6.3525,-6.4454,-6.5308,-6.6011,0.0,0.0,0.0,0.0,0.0,0.0,0.0,-6.4881,-6.5007,-6.4028,-6.3174,-6.3149,-6.3751,-6.4128,-6.3751,0.0,0.0,-6.0738,-5.9885,-5.9684,-5.9859,-5.9608,-5.9659,-6.0738,-6.0512,-6.0311,0.0,0.0,0.0,0.0,-6.456,0.0,0.0,0.0,-6.4351,-6.4195,0.0,-6.341,0.0,0.0,0.0,0.0,-6.0405,-6.4243,0.0,0.0,-6.3104,-6.2932,-6.1138,-5.9872,-5.9189,-5.91,-5.9602,-5.9534,-5.9172,-5.7895,0.0,0.0,0.0,0.0,0.0,0.0,-5.8451,-5.8338,-6.0179,-6.096,-6.0523,-6.096,-6.096,-6.05,-6.0018,-5.9513,-5.9031,-5.8503,-5.7539,-5.6069,-5.5518,0.0,0.0,0.0,0.0,0.0,0.0,0.0,0.0,0.0,0.0,0.0,0.0,0.0,0.0,0.0,0.0,0.0,0.0,0.0,0.0,-5.2627,0.0,0.0,0.0,0.0,0.0,0.0,0.0,0.0,0.0,0.0,-6.1416,-6.2722,-6.4128,-6.5132,0.0,0.0,0.0,0.0,-6.6363,-6.6915,-6.6538,-6.6363,-6.6915,-6.6965,-6.6764,-6.6262,0.0,0.0,-6.5534,-6.6262,-6.6589,-6.5559,-6.5409,-6.5208,-6.463,-6.35,-6.2973,-6.3425,-6.2672,-6.2496,-6.34,-6.3149,-6.2973,-6.8298,0.0,0.0,0.0,0.0,-6.6181,-6.6704,-6.7253,-6.7331,-6.6991,-6.6312,-6.5162,0.0,0.0,0.0,0.0,0.0,0.0,-6.4176,-6.3178,-6.4038,-6.3963,-6.323,-6.2894,-6.2102,-6.112,-6.0523,-6.0198,-6.0048,-5.8609,-5.8092,-5.8327,0.0,0.0,0.0,0.0,-5.8882,-5.8867,-6.0041,-6.0615,-6.0454,-6.0615,-6.0615,-6.0454,-6.0317,-6.0018,-5.9536,-5.9352,-5.8732,-5.7584,-5.6712,0.0,0.0,0.0,0.0,0.0,0.0,0.0,0.0,0.0,0.0,0.0,0.0,0.0,0.0,0.0,0.0,0.0,0.0,0.0,-5.2382,-5.2899,-5.3844,0.0,0.0,0.0,0.0,0.0,0.0,0.0,0.0,0.0,-6.4028,-6.453,-6.4957,0.0,0.0,-6.6739,-6.6739,-6.7066,-6.7392,-6.7543,-6.7417,0.0,-6.7518,-6.7241,-6.7066,-6.7267,-6.7467,-6.7442,-6.7141,-6.7342,-6.7467,-6.7116,-6.7066,-6.7015,-6.6789,-6.5283,-6.4178,-6.4178,-6.3977,-6.4002,-6.463,-6.468,-6.463,-7.0755,-6.9344,-6.7514,-6.7096,-6.7671,-6.7985,-6.8455,-6.903,-6.9135,-6.8795,-6.8089,-6.7174,-6.6129,-6.4979,-6.3935,0.0,0.0,0.0,-6.4438,-6.3632,-6.4783,-6.4594,-6.3379,-6.386,-6.3402,-6.204,-6.1143,-6.0776,-6.0753,-5.9651,-5.8895,-5.8402,0.0,0.0,-5.8189,-5.8818,-5.9221,-5.9284,-6.0064,-6.0454,-6.0454,-6.0454,-6.0454,-6.0454,-6.0454,-6.0317,-6.0018,-6.0018,-5.9628,-5.8824,-5.7837,-5.6735,0.0,0.0,0.0,0.0,0.0,0.0,0.0,0.0,0.0,0.0,0.0,-5.2032,-5.1338,0.0,0.0,0.0,-5.148,-5.1508,-5.2034,-5.3383,0.0,0.0,0.0,0.0,0.0,0.0,0.0,-6.2451,-6.3952,-6.5233,-6.586,-6.6137,-6.6287,-6.6287,-6.6865,-6.7292,-6.7292,0.0,-6.7869,-6.8095,-6.812,-6.8196,-6.8422,-6.817,-6.807,-6.8396,-6.8447,-6.8447,-6.8447,-6.8447,-6.8447,-6.8447,-6.8271,-6.812,-6.8145,-6.6815,-6.5685,-6.5509,-6.5283,-6.5233,-6.5559,-6.5609,-6.5609,-7.3186,-7.2951,-7.0337,-6.9474,-6.984,-6.984,-7.0128,-7.0546,-7.0049,-6.9814,-6.971,-6.9161,-6.8298,-6.72,-6.6299,0.0,-6.5274,-6.5745,-6.5084,-6.3691,-6.5274,-6.4751,-6.2457,-6.3727,-6.352,-6.2132,-6.1626,-6.1373,-6.1189,-6.0707,-5.9995,-5.9123,-5.8181,-5.849,-5.9876,-5.9371,-5.9306,-5.9766,-6.0225,-6.0454,-6.0454,-6.0454,-6.0454,-6.0454,-6.0454,-6.0454,-6.0454,-6.0454,-6.0248,-5.9766,-5.8801,-5.7607,-5.6161,0.0,0.0,0.0,0.0,0.0,0.0,0.0,0.0,0.0,0.0,0.0,0.0,0.0,0.0,0.0,-5.1108,0.0,-5.1166,-5.3989,0.0,0.0,0.0,-6.2122,-6.227,-6.3577,-6.4468,-6.4689,0.0,0.0,-6.7116,-6.7593,-6.7919,-6.7945,-6.7894,-6.7869,-6.7869,-6.7919,-6.8095,-6.8622,-6.8698,-6.8874,-6.916,-6.9325,-6.93,-6.9325,-6.9451,-6.9376,-6.9376,-6.9376,-6.9426,-6.9376,-6.9024,-6.8698,-6.8698,-6.817,-6.7693,-6.7166,-6.6589,-6.6162,-6.6187,-6.6112,-6.6061,-7.3787,-7.3735,-7.3055,-7.2088,-7.1017,-7.099,-7.0834,-7.0624,-7.0886,-7.0755,-7.0337,-6.9762,-6.9108,-6.8429,-6.8133,-6.7467,-6.6331,-6.5757,-6.5562,-6.5567,-6.4215,-6.4039,-6.4858,-6.5137,-6.4576,-6.3176,-6.3381,-6.2935,-6.1739,-6.0889,-6.034,-6.011,-5.988,-5.9623,-5.9265,-5.9461,-5.9789,-6.0294,-6.0409,-6.0454,-6.0454,-6.0454,-6.0454,-6.0454,-6.0454,-6.0454,-6.0454,-6.0454,-6.0409,-6.0271,-5.9329,-5.8457,-5.7676,-5.5885,0.0,0.0,0.0,0.0,0.0,0.0,0.0,0.0,0.0,-5.3141,-5.0489,0.0,-5.2317,0.0,-4.9829,-5.0256,-5.1048,-5.4595,0.0,0.0,-6.1722,-6.4095,-6.4982,-6.5443,-6.582,-6.6312,-6.7467,-6.8221,-6.8246,-6.8698,-6.9049,-6.9049,-6.8698,-6.8422,-6.8422,-6.8798,-6.91,-6.92,-6.9135,-6.93,-6.9401,-6.9451,-6.9451,-6.9451,-6.9451,-6.9451,-6.9451,-6.9451,-6.9451,-6.9451,-6.926,-6.925,-6.9225,-6.8798,-6.8422,-6.8196,-6.7467,-6.6764,-6.6764,-6.6438,-6.6137,-7.4754,-7.4754,-7.4519,-7.3683,-7.2533,-7.2271,-7.1984,-7.1722,-7.1775,-7.1487,-7.0912,-7.0337,-6.9919,-6.9631,-6.9352,-6.9142,-6.8776,-6.7405,-6.721,-6.7911,-6.6604,-6.6228,-6.6678,-6.646,-6.5735,-6.4758,-6.3701,-6.2817,-6.2195,-6.1253,-6.0998,-6.1425,-6.1659,-6.1495,-6.0892,-6.0378,-6.0179,-6.0454,-6.0454,-6.0454,-6.0454,-6.0454,-6.0454,-6.0454,-6.0454,-6.0363,-6.0133,-6.0133,-6.0018,-5.9812,-5.9054,-5.8411,-5.7883,-5.6391,-5.5174,0.0,0.0,0.0,0.0,0.0,0.0,0.0,0.0,0.0,0.0,0.0,-5.2028,-5.0294,-5.0492,-5.1203,-5.2548,-5.602,-5.8843,-6.0109,-6.3375,-6.5739,-6.6413,-6.694,-6.7367,-6.7668,-6.8472,-6.8999,-6.8999,-6.925,-6.9451,-6.9451,-6.9175,-6.8999,-6.8999,-6.925,-6.9451,-6.9451,-6.9451,-6.9451,-6.9451,-6.9451,-6.9451,-6.9451,-6.9451,-6.9451,-6.9451,-6.9451,-6.9451,-6.9451,-6.9451,-6.9451,-6.9426,-6.9225,-6.8999,-6.8874,-6.8321,-6.7693,-6.7392,-6.7091,-6.6865,-7.5721,-7.5669,-7.5225,-7.4702,-7.4179,-7.35,-7.3134,-7.2977,-7.2506,-7.201,-7.1487,-7.1017,-7.0807,-7.0807,-7.03,-7.0594,-7.1296,-6.9548,-6.9181,-6.9993,-6.989,-6.9055,-6.775,-6.7283,-6.6832,-6.6257,-6.3619,-6.265,-6.2988,-6.2203,-6.2194,-6.3046,-6.3565,-6.3714,-6.3601,-6.2117,-6.1116,-6.0661,-6.0934,-6.082,-6.0661,-6.0843,-6.0888,-6.066,-6.05,-6.0225,-5.9743,-5.9697,-5.9513,-5.91,-5.8572,-5.8113,-5.7676,-5.662,-5.5794,0.0,-5.4416,0.0,0.0,0.0,0.0,0.0,0.0,0.0,0.0,-5.3263,-5.2606,-5.2234,-5.2303,-5.2981,-5.4542,-5.7532,-6.0016,-6.1558,-6.4665,-6.6754,-6.7191,-6.8045,-6.8648,-6.8723,-6.915,-6.9451,-6.9336,-6.9501,-6.9551,-6.9602,-6.9677,-6.9727,-6.9652,-6.9627,-6.9627,-6.9627,-6.9652,-6.9777,-6.9752,-6.9727,-6.9702,-6.9702,-6.9727,-6.9536,-6.9602,-6.9577,-6.9551,-6.9386,-6.9451,-6.9451,-6.9451,-6.9426,-6.9426,-6.9401,-6.8999,-6.8522,-6.8045,-6.7794,-6.7819,-7.5721,-7.5695,-7.5617,-7.5486,-7.5303,-7.4284,-7.3317,-7.2454,-7.235,-7.2245,-7.214,-7.2036,-7.1984,-7.1958,-7.1374,-7.1218,-7.1322,-6.9787,-6.922,-6.9321,-6.8699,-6.7925,-6.7143,-6.7136,-6.6799,-6.6098,-6.5208,-6.5022,-6.5489,-6.4924,-6.5007,-6.5624,-6.5836,-6.5795,-6.5795,0.0,0.0,0.0,-6.2845,-6.2937,-6.1787,-6.2845,-6.2749,-6.1189,-6.0684,0.0,-5.9743,-5.9697,-5.9674,-5.9582,-5.91,0.0,0.0,0.0,0.0,0.0,0.0,0.0,0.0,0.0,0.0,0.0,-5.6862,-5.5972,-5.4619,-5.4761,-5.4871,-5.4802,-5.4995,-5.5235,-5.5208,-5.7104,-5.9167,-6.1119,-6.3344,-6.5566,-6.7904,-6.8497,-6.8798,-6.925,-6.9311,-6.9451,-6.9501,-6.9828,-7.0104,-7.0129,-7.048,-7.0757,-7.0757,-7.038,-7.028,-7.0656,-7.0706,-7.0732,-7.0782,-7.0732,-7.0656,-7.0782,-7.0757,-7.0581,-7.0204,-7.0104,-6.9928,-6.9602,-6.9451,-6.9476,-6.9451,-6.9451,-6.9476,-6.9451,-6.926,-6.9125,-6.8572,-6.812,-6.7819,-7.5721,-7.5721,-7.5721,-7.5565,0.0,-7.4388,-7.35,-7.2663,-7.2402,-7.2297,-7.2297,-7.2297,-7.2297,-7.2297,-7.1984,-7.1853,-7.1827,-7.104,-7.0751,-7.0688,-7.0325,-6.979,-6.9144,-6.8522,-6.8095,-6.7953,-6.6853,-6.6501,-6.6966,-6.6501,-6.665,-6.7479,-6.7729,-6.7854,-6.7765,-6.7299,-6.6003,-6.3884,-6.3609,-6.3242,-6.2828,-6.2966,-6.2665,-6.1603,-6.112,0.0,0.0,0.0,0.0,0.0,0.0,0.0,0.0,-5.786,0.0,-5.7447,-5.7217,-5.7194,-5.7424,-5.7447,-5.7768,-5.8526,-5.8595,-5.7786,-5.5831,-5.5777,-5.601,-5.6491,-5.5821,-5.5556,-5.6336,-5.8661,-6.0679,-6.181,-6.471,-6.7349,-6.8611,-6.8963,-6.925,-6.9727,-6.9853,-6.9928,-7.0229,-7.048,-7.0656,-7.0681,-7.0907,-7.1209,-7.1384,-7.1008,-7.0782,-7.1033,-7.1083,-7.1083,-7.1083,-7.1083,-7.1083,-7.1083,-7.1083,-7.0958,-7.0732,-7.0656,-7.0581,-7.0305,-7.0255,-7.0179,-6.9903,-6.9853,-6.9752,-6.9526,-6.9451,-6.9285,-6.9074,-6.8798,-6.8622,-7.5721,-7.5721,-7.5721,-7.5408,-7.4859,-7.4258,-7.3604,-7.2925,-7.2506,0.0,0.0,-7.2297,-7.2297,-7.2297,-7.2297,-7.2297,-7.2297,-7.2297,-7.2297,-7.2297,-7.2297,-7.1984,-7.1322,-6.9962,-6.9593,-6.9911,-6.8183,-6.7681,-6.8422,-6.8045,-6.8272,-6.9126,-6.9648,-6.9826,-6.9701,-6.883,-6.7818,-6.6734,-6.4717,-6.3731,-6.3823,-6.306,-6.2479,-6.2131,-6.1625,-6.112,-6.0615,-5.9835,-5.9146,-5.8618,-5.8227,-5.8135,-5.8434,-5.8388,-5.8526,-5.8962,-5.9008,-5.9031,-5.9123,-5.9192,-5.9352,-5.949,-5.988,-5.9315,-5.7624,-5.7177,-5.7321,-5.8137,-5.6671,-5.639,-5.8178,-6.0687,-6.2642,-6.331,-6.6685,-6.9016,-6.9574,-6.9671,-6.9928,-7.0305,-7.0405,-7.0581,-7.0983,-7.1158,-7.1209,-7.1234,-7.1359,-7.1535,-7.1887,-7.1686,-7.1435,-7.1485,-7.151,-7.1435,-7.1384,-7.1435,-7.1359,-7.146,-7.1435,-7.1334,-7.1259,-7.1234,-7.1184,-7.1008,-7.1083,-7.0857,-7.0506,-7.0405,-7.0255,-6.9828,-6.9652,-6.9602,-6.9577,-6.9501,-6.9401,-7.5721,-7.5721,-7.5721,-7.5382,-7.4859,-7.4258,-7.3395,-7.2428,-7.2323,-7.2297,-7.2297,-7.2297,-7.2297,-7.2297,-7.2297,-7.2297,-7.2297,-7.2297,-7.2297,-7.2297,-7.2297,-7.1984,-7.1322,-6.9962,-6.968,-7.0367,-6.8994,-6.9224,-7.0706,-7.0819,-7.1105,-7.1634,-7.1878,-7.1904,-7.1816,-7.0871,-7.049,-7.0717,-6.8403,-6.6552,-6.5396,-6.5279,-6.4343,-6.273,-6.2154,-6.1648,-6.1143,-6.0983,-6.0684,-6.0179,-6.0087,-5.988,-5.9513,-5.9123,-5.8916,-5.8985,-5.9008,-5.9169,-5.9605,-5.9995,-6.0638,-6.1465,-6.1625,-6.1143,-6.009,-6.0342,-6.0501,-6.0683,-6.0243,-6.0718,-6.1854,-6.2035,-6.3363,-6.596,-6.7109,-6.8403,-7.0447,-7.0821,-7.0924,-7.105,-7.0958,-7.0983,-7.1184,-7.1535,-7.1786,-7.1861,-7.2087,-7.2489,-7.2514,-7.2565,-7.2489,-7.2489,-7.2489,-7.2489,-7.2364,-7.2489,-7.2414,-7.2489,-7.2414,-7.2238,-7.1861,-7.1811,-7.1661,-7.1209,-7.1209,-7.1108,-7.0983,-7.0958,-7.0882,-7.0732,-7.043,-7.0154,-7.0129,-6.9803,-6.9476,-7.5721,-7.5721,-7.5721,-7.5565,-7.5303,-7.4728,-7.4022,-7.3238,-7.3212,-7.2872,-7.2323,-7.2297,-7.2297,-7.2297,-7.2297,-7.2297,-7.2297,-7.2297,-7.2297,-7.2297,-7.2297,-7.1984,-7.1374,-7.1086,-7.0956,-7.0983,-7.0749,-7.1008,-7.1766,-7.1879,-7.2167,-7.2716,-7.3055,-7.3238,-7.3238,-7.2768,-7.2678,-7.2857,-6.9858,-6.808,-6.7739,-6.7163,-6.6489,-6.5532,-6.4269,-6.3454,-6.322,-6.1879,-6.112,-6.0891,-6.0615,-6.0363,-6.0133,-5.9926,-5.9789,-5.9789,-5.9789,-6.0018,-6.05,-6.1006,-6.1488,-6.1947,-6.1993,-6.2157,-6.2494,-6.1465,-6.1183,-6.1852,-6.1037,-6.1284,-6.3245,-6.3969,-6.5297,-6.7587,-6.9155,-7.0537,-7.1525,-7.1829,-7.1921,-7.1948,-7.1999,-7.194,-7.1937,-7.2188,-7.2339,-7.2389,-7.2615,-7.274,-7.274,-7.274,-7.274,-7.2715,-7.2715,-7.2715,-7.274,-7.274,-7.274,-7.274,-7.274,-7.2615,-7.2389,-7.2364,-7.2238,-7.2037,-7.1962,-7.1836,-7.161,-7.1535,-7.141,-7.1083,-7.0932,-7.0706,-7.0631,-7.028,-6.9828,-7.5721,-7.5721,-7.5721,-7.5643,-7.5486,-7.4937,-7.4441,-7.4022,-7.3996,-7.35,-7.2742,-7.2559,-7.248,-7.248,-7.235,-7.2297,-7.2297,-7.2297,-7.2297,-7.2297,-7.2297,-7.2036,-7.1696,-7.2088,-7.2062,-7.1696,-7.2088,-7.235,-7.2454,-7.248,-7.2768,-7.3291,-7.3761,-7.3996,-7.3996,-7.3996,-7.3996,-7.3854,-7.1268,-6.9843,-6.9934,-6.8817,-6.8193,-6.8045,-6.6577,-6.5574,-6.5061,-6.3337,-6.2133,-6.1557,-6.1648,-6.1461,-6.0913,-6.1163,-6.1117,-6.0752,-6.1026,-6.1394,-6.1787,-6.2017,-6.2199,-6.2314,-6.2314,-6.2874,-6.3755,-6.2642,-6.2267,-6.3222,-6.2396,-6.2506,-6.5116,-6.6513,-6.7708,-6.93,-7.1244,-7.2424,-7.2591,-7.2772,-7.2997,-7.3062,-7.3046,-7.3037,-7.2992,-7.2929,-7.2904,-7.2879,-7.2835,-7.2929,-7.2929,-7.2929,-7.2835,-7.2715,-7.274,-7.274,-7.274,-7.274,-7.274,-7.274,-7.274,-7.2715,-7.269,-7.2715,-7.2715,-7.264,-7.2665,-7.2514,-7.2163,-7.2087,-7.1937,-7.1636,-7.141,-7.1234,-7.1033,-7.0732,-7.028,-7.5721,-7.5721,-7.5721,-7.5434,-7.4963,-7.4388,-7.4127,-7.4049,-7.4022,-7.397,-7.3813,-7.3264,-7.3029,-7.2951,-7.2533,-7.2323,-7.2297,-7.2297,-7.2297,-7.2297,-7.2297,-7.2271,-7.2193,-7.2297,-7.2271,-7.2219,-7.2323,-7.2637,-7.3029,-7.3055,-7.3343,-7.3866,-7.3996,-7.4049,-7.4022,-7.4049,-7.4022,-7.4022,-7.3712,-7.2915,-7.1617,-7.021,-6.9244,-6.8752,-6.8586,-6.7508,-6.5911,-6.5816,-6.4903,-6.2918,-6.4267,-6.4123,-6.2342,-6.3078,-6.3049,-6.1396,-6.2409,-6.3451,-6.3804,-6.3105,-6.2865,-6.3302,-6.3325,-6.3443,-6.3822,-6.4625,-6.5625,-6.6354,-6.6111,-6.6654,-6.917,-6.9581,-7.0196,-7.1572,-7.2667,-7.3199,-7.3302,-7.3698,-7.4088,-7.4047,-7.3995,-7.4072,-7.3937,-7.3682,-7.3425,-7.3425,-7.3331,-7.3306,-7.3331,-7.3212,-7.3118,-7.2835,-7.274,-7.274,-7.274,-7.274,-7.274,-7.274,-7.274,-7.274,-7.274,-7.274,-7.274,-7.274,-7.274,-7.2665,-7.264,-7.264,-7.259,-7.2364,-7.2037,-7.1711,-7.1259,-7.1058,-7.0807,-7.5721,-7.5721,-7.5721,-7.5591,-7.5355,-7.512,-7.5016,-7.5016,-7.5016,-7.5016,-7.4885,-7.4049,-7.3447,-7.3108,-7.2872,-7.2611,-7.2323,-7.2297,-7.2297,-7.2297,-7.2297,-7.2297,-7.2323,-7.2637,-7.2768,-7.282,-7.3134,-7.3421,-7.3656,-7.3996,-7.431,-7.4545,-7.4833,-7.5016,-7.5016,-7.5016,-7.5016,-7.5016,-7.5016,-7.4717,-7.4091,-7.2858,-7.2124,-7.1778,-7.0745,-6.9739,-6.8824,-6.7886,-6.679,-6.5834,-6.5741,-6.5502,-6.5068,-6.4769,-6.4073,-6.3099,-6.2967,-6.3083,-6.3268,-6.3215,-6.3416,-6.3899,-6.4232,-6.4875,-6.6037,-6.7009,-6.8318,-6.978,-6.8831,-6.8665,-7.0356,-7.0881,-7.1743,-7.3039,-7.3869,-7.4248,-7.4274,-7.4768,-7.4959,-7.4707,-7.4614,-7.4521,-7.4217,-7.4056,-7.3962,-7.3869,-7.3707,-7.3545,-7.3545,-7.3237,-7.2929,-7.274,-7.274,-7.274,-7.274,-7.274,-7.274,-7.274,-7.274,-7.274,-7.274,-7.274,-7.274,-7.274,-7.274,-7.274,-7.2715,-7.274,-7.2715,-7.2665,-7.264,-7.2313,-7.2087,-7.1786,-7.1485,-7.5721,-7.5721,-7.5721,-7.5721,-7.5721,-7.5721,-7.5721,-7.5721,-7.5721,-7.5721,-7.5617,-7.4833,-7.4049,-7.3369,-7.3029,-7.2663,-7.2323,-7.2297,-7.2297,-7.2323,-7.2454,-7.2533,-7.2585,-7.3081,-7.3343,-7.3421,-7.3787,-7.4075,-7.431,-7.4833,-7.512,-7.5199,-7.5512,-7.5721,-7.5721,-7.5721,-7.5721,-7.5695,-7.5721,-7.5721,-7.5591,-7.4911,-7.4388,-7.4142,-7.2824,-7.1792,-7.1251,-6.9696,-6.8668,-6.8094,-6.7421,-6.7152,-6.7241,-6.6671,-6.6136,-6.5615,-6.4499,-6.4086,-6.4506,-6.4813,-6.5069,-6.5515,-6.5942,-6.6845,-6.8223,-6.9169,-7.0409,-7.1744,-7.1174,-7.0998,-7.1599,-7.2178,-7.2863,-7.3959,-7.4545,-7.4885,-7.4911,-7.5382,-7.5538,-7.5262,-7.5169,-7.501,-7.4521,-7.4428,-7.4428,-7.4428,-7.4302,-7.4124,-7.4149,-7.3943,-7.3787,-7.3452,-7.3408,-7.3137,-7.2816,-7.274,-7.274,-7.274,-7.274,-7.274,-7.274,-7.274,-7.274,-7.274,-7.274,-7.274,-7.274,-7.274,-7.274,-7.274,-7.2715,-7.269,-7.259,-7.2339,-7.2188,-7.5721,-7.5721,-7.5721,-7.5721,-7.5721,-7.5721,-7.5721,-7.5721,-7.5721,-7.5721,-7.5721,-7.5591,-7.499,-7.3918,-7.2951,-7.235,-7.2323,-7.2376,-7.2402,-7.2454,-7.2872,-7.3081,-7.3108,-7.3683,-7.397,-7.397,-7.4101,-7.4388,-7.4859,-7.5382,-7.5669,-7.5669,-7.5695,-7.5721,-7.5721,-7.5721,-7.5721,-7.5721,-7.5721,-7.5721,-7.5695,-7.5643,-7.5329,-7.4911,-7.4716,-7.3651,-7.2135,-7.1664,-7.0725,-6.8844,-6.9768,-6.9736,-6.828,-6.912,-6.9455,-6.8955,-6.7629,-6.7423,-6.8486,-6.8432,-6.8314,-6.8529,-6.8851,-6.9333,-6.9668,-7.0813,-7.1763,-7.1911,-7.3404,-7.4183,-7.3857,-7.3793,-7.3883,-7.4089,-7.4597,-7.4911,-7.4937,-7.5408,-7.5669,-7.563,-7.5682,-7.5576,-7.5088,-7.4918,-7.514,-7.5151,-7.5409,-7.56,-7.5558,-7.6039,-7.5772,-7.5157,-7.4819,-7.4521,-7.3111,-7.2991,-7.2916,-7.2966,-7.3092,-7.2866,-7.2765,-7.274,-7.2765,-7.274,-7.274,-7.274,-7.274,-7.274,-7.274,-7.274,-7.274,-7.2715,-7.274,-7.274,-7.259,-7.5721,-7.5721,-7.5721,-7.5721,-7.5721,-7.5721,-7.5721,-7.5721,-7.5721,-7.5721,-7.5643,-7.5355,-7.4963,-7.4545,-7.3761,-7.3186,-7.2872,-7.3212,-7.3395,-7.3421,-7.3604,-7.3683,-7.3735,-7.4284,-7.4597,-7.4624,-7.4937,-7.5199,-7.5382,-7.5617,-7.5721,-7.5721,-7.5721,-7.5721,-7.5721,-7.5721,-7.5721,-7.5721,-7.5721,-7.5721,-7.5721,-7.5721,-7.5617,-7.5408,-7.5094,-7.4534,-7.382,-7.3367,-7.2695,-7.1564,-7.1179,-7.0834,-7.0681,-7.0273,-7.003,-6.9736,-6.8428,-6.7859,-6.8379,-6.869,-6.8974,-6.9318,-7.0116,-7.0868,-7.1236,-7.2462,-7.3324,-7.3535,-7.4493,-7.5186,-7.5172,-7.5094,-7.5094,-7.512,-7.5277,-7.5434,-7.546,-7.5591,-7.5721,-7.5774,-7.6009,-7.6334,-7.6502,-7.6566,-7.6566,-7.6592,-7.6467,-7.6356,-7.6314,-7.64,-7.6201,-7.5864,-7.5743,-7.552,-7.5023,-7.4203,-7.382,-7.382,-7.3845,-7.382,-7.377,-7.3393,-7.3343,-7.3268,-7.3142,-7.2891,-7.2916,-7.2765,-7.274,-7.274,-7.274,-7.274,-7.274,-7.274,-7.274,-7.5826,-7.5983,-7.6009,-7.6113,-7.6244,-7.6087,-7.6009,-7.5983,-7.58,-7.5721,-7.5643,-7.5329,-7.5068,-7.4911,-7.465,-7.4258,-7.3735,-7.3918,-7.3996,-7.4022,-7.4205,-7.431,-7.4388,-7.4885,-7.5172,-7.5225,-7.5512,-7.5721,-7.5721,-7.5721,-7.5721,-7.5721,-7.5721,-7.5721,-7.5721,-7.5721,-7.5721,-7.5721,-7.5721,-7.5721,-7.5721,-7.5721,-7.5721,-7.5669,-7.5355,-7.5172,-7.5146,-7.4624,-7.4127,-7.3556,-7.2605,-7.2154,-7.2347,-7.1469,-7.0834,-7.0656,-6.9915,-6.9351,-6.9451,-7.0029,-7.0606,-7.0983,-7.199,-7.2757,-7.318,-7.4098,-7.4588,-7.4866,-7.5262,-7.5748,-7.5957,-7.6009,-7.593,-7.58,-7.5878,-7.6009,-7.6009,-7.6192,-7.6296,-7.6401,-7.6662,-7.7054,-7.7368,-7.742,-7.742,-7.7473,-7.7321,-7.7262,-7.7167,-7.7159,-7.695,-7.6759,-7.6645,-7.6574,-7.628,-7.5701,-7.4859,-7.4784,-7.4444,-7.4448,-7.4448,-7.4096,-7.387,-7.3795,-7.3594,-7.3268,-7.3042,-7.2866,-7.2791,-7.2765,-7.274,-7.274,-7.274,-7.274,-7.274,-7.6113,-7.6584,-7.661,-7.6898,-7.7211,-7.6741,-7.6584,-7.6453,-7.593,-7.5721,-7.5695,-7.5669,-7.5382,-7.512,-7.5355,-7.5329,-7.4807,-7.4388,-7.4205,-7.4232,-7.4676,-7.4911,-7.4937,-7.5382,-7.5617,-7.5617,-7.5695,-7.5721,-7.5721,-7.5721,-7.5721,-7.5721,-7.5721,-7.5721,-7.5721,-7.5721,-7.5721,-7.5721,-7.5721,-7.5721,-7.5721,-7.5721,-7.5721,-7.5721,-7.5669,-7.5643,-7.5669,-7.5172,-7.4859,-7.4754,-7.4194,-7.3646,-7.316,-7.2539,-7.2288,-7.22,-7.2174,-7.2148,-7.2226,-7.2961,-7.3443,-7.3677,-7.4834,-7.525,-7.521,-7.542,-7.5538,-7.5538,-7.5708,-7.5957,-7.6453,-7.6584,-7.6427,-7.593,-7.6323,-7.661,-7.6715,-7.7081,-7.7446,-7.7394,-7.7446,-7.7473,-7.7499,-7.7656,-7.7708,-7.7786,-7.7953,-7.824,-7.824,-7.8458,-7.8727,-7.8368,-7.7924,-7.7576,-7.7394,-7.7133,-7.6276,-7.5574,-7.5112,-7.4846,-7.4896,-7.4695,-7.4448,-7.4347,-7.4146,-7.3845,-7.3544,-7.3368,-7.3016,-7.2941,-7.2866,-7.2765,-7.274,-7.274,-7.274,-7.7028,-7.7185,-7.7211,-7.729,-7.7394,-7.6845,-7.661,-7.6532,-7.5983,-7.5721,-7.5721,-7.5721,-7.5617,-7.5538,-7.5643,-7.5617,-7.546,-7.5251,-7.5172,-7.5199,-7.5355,-7.546,-7.5486,-7.5617,-7.5721,-7.5721,-7.5721,-7.5721,-7.5721,-7.5721,-7.5721,-7.5721,-7.5721,-7.5721,-7.5721,-7.5721,-7.5721,-7.5721,-7.5721,-7.5721,-7.5721,-7.5721,-7.5721,-7.5721,-7.5721,-7.5721,-7.5695,-7.5538,-7.5277,-7.4937,-7.4728,-7.4362,-7.3813,-7.3578,-7.3291,-7.2925,-7.2846,-7.2663,-7.248,-7.3343,-7.4022,-7.4205,-7.5068,-7.5643,-7.5721,-7.5721,-7.5721,-7.5774,-7.6087,-7.6453,-7.661,-7.6976,-7.7081,-7.695,-7.7081,-7.7211,-7.7263,-7.7394,-7.7656,-7.7995,-7.8048,-7.8204,-7.8518,-7.8597,-7.8544,-7.8544,-7.8753,-7.8858,-7.891,-7.9015,-7.9172,-7.898,-7.8691,-7.8498,-7.8305,-7.7988,-7.7389,-7.674,-7.6153,-7.5494,-7.5494,-7.5443,-7.5123,-7.4875,-7.4674,-7.4423,-7.4121,-7.3795,-7.3443,-7.3192,-7.3142,-7.2991,-7.2791,-7.2791,-7.2866,-7.7577,-7.7786,-7.7786,-7.7917,-7.7995,-7.7263,-7.6924,-7.6793,-7.6061,-7.5721,-7.5721,-7.5721,-7.5721,-7.5721,-7.5721,-7.5721,-7.5721,-7.5721,-7.5721,-7.5721,-7.5721,-7.5721,-7.5721,-7.5721,-7.5721,-7.5721,-7.5721,-7.5721,-7.5721,-7.5721,-7.5721,-7.5721,-7.5721,-7.5721,-7.5721,-7.5721,-7.5721,-7.5721,-7.5721,-7.5721,-7.5721,-7.5721,-7.5721,-7.5721,-7.5721,-7.5721,-7.5721,-7.5721,-7.5565,-7.5225,-7.5042,-7.4702,-7.4362,-7.4127,-7.3839,-7.3552,-7.3421,-7.3291,-7.3081,-7.3839,-7.4362,-7.4519,-7.5199,-7.5695,-7.5721,-7.5721,-7.5774,-7.6087,-7.6375,-7.6793,-7.7211,-7.7551,-7.7839,-7.8074,-7.7891,-7.7891,-7.8021,-7.81,-7.8231,-7.857,-7.8623,-7.8832,-7.9041,-7.9172,-7.9172,-7.9172,-7.9172,-7.9172,-7.9172,-7.9145,-7.9198,-7.9102,-7.8787,-7.8787,-7.9076,-7.8787,-7.8401,-7.7911,-7.7446,-7.6687,-7.6147,-7.6046,-7.5919,-7.55,-7.5201,-7.4925,-7.4649,-7.4222,-7.387,-7.3669,-7.3544,-7.3468,-7.3368,-7.3167,-7.3142,-7.7891,-7.8361,-7.8361,-7.8649,-7.891,-7.7969,-7.7473,-7.7237,-7.6296,-7.5774,-7.5721,-7.5721,-7.5721,-7.5721,-7.5721,-7.5721,-7.5721,-7.5721,-7.5721,-7.5721,-7.5721,-7.5721,-7.5721,-7.5721,-7.5721,-7.5721,-7.5721,-7.5721,-7.5721,-7.5721,-7.5721,-7.5721,-7.5721,-7.5721,-7.5721,-7.5721,-7.5721,-7.5721,-7.5721,-7.5721,-7.5721,-7.5721,-7.5721,-7.5721,-7.5721,-7.5721,-7.5721,-7.5721,-7.5721,-7.5643,-7.5225,-7.5016,-7.4859,-7.4414,-7.4205,-7.4075,-7.4049,-7.397,-7.4101,-7.4414,-7.4885,-7.499,-7.5486,-7.58,-7.5957,-7.6061,-7.6218,-7.661,-7.6793,-7.7211,-7.7995,-7.8335,-7.857,-7.8962,-7.8623,-7.8597,-7.9041,-7.9067,-7.9015,-7.9067,-7.9145,-7.9172,-7.9172,-7.9172,-7.9172,-7.9172,-7.9172,-7.9198,-7.9328,-7.9381,-7.9302,-7.9284,-7.9274,-7.9449,-7.9799,-7.9702,-7.9314,-7.8971,-7.8523,-7.7876,-7.6868,-7.6643,-7.6494,-7.6074,-7.5653,-7.5402,-7.5151,-7.4774,-7.4498,-7.4372,-7.4247,-7.4121,-7.3895,-7.3644,-7.3393,-7.8806,-7.8962,-7.8936,-7.9041,-7.9067,-7.8387,-7.7839,-7.7394,-7.6715,-7.614,-7.5826,-7.5721,-7.5721,-7.5721,-7.5721,-7.5721,-7.5721,-7.5721,-7.5721,-7.5721,-7.5721,-7.5721,-7.5721,-7.5721,-7.5721,-7.5721,-7.5721,-7.5721,-7.5721,-7.5721,-7.5721,-7.5721,-7.5721,-7.5721,-7.5721,-7.5721,-7.5721,-7.5721,-7.5721,-7.5721,-7.5721,-7.5721,-7.5721,-7.5721,-7.5721,-7.5721,-7.5721,-7.5721,-7.5721,-7.5695,-7.5591,-7.5486,-7.546,-7.5277,-7.5016,-7.4728,-7.465,-7.4467,-7.4258,-7.4597,-7.5068,-7.5512,-7.6009,-7.6558,-7.6976,-7.7002,-7.7081,-7.7316,-7.7577,-7.7969,-7.8335,-7.8675,-7.8989,-7.9119,-7.8989,-7.8962,-7.9119,-7.9172,-7.9172,-7.9172,-7.9172,-7.9172,-7.9224,-7.9224,-7.925,-7.925,-7.9302,-7.9407,-7.9694,-7.9825,-7.9851,-8.0269,-8.0381,-8.0478,-8.0478,-8.0381,-8.0186,-7.9866,-7.9457,-7.9035,-7.8051,-7.7209,-7.6988,-7.657,-7.62,-7.59,-7.5701,-7.5377,-7.5226,-7.5025,-7.4774,-7.4548,-7.4222,-7.3971,-7.372,-7.9172,-7.9172,-7.9172,-7.9172,-7.9093,-7.857,-7.8126,-7.776,-7.7211,-7.6636,-7.6192,-7.6087,-7.593,-7.5721,-7.5721,-7.5721,-7.5721,-7.5721,-7.5721,-7.5721,-7.5721,-7.5721,-7.5721,-7.5721,-7.5721,-7.5721,-7.5721,-7.5721,-7.5721,-7.5721,-7.5721,-7.5721,-7.5721,-7.5721,-7.5721,-7.5721,-7.5721,-7.5721,-7.5721,-7.5721,-7.5721,-7.5721,-7.5721,-7.5721,-7.5721,-7.5721,-7.5721,-7.5721,-7.5721,-7.5721,-7.5695,-7.5721,-7.5721,-7.5721,-7.5565,-7.5251,-7.5251,-7.5068,-7.4885,-7.5068,-7.5486,-7.6009,-7.6453,-7.6871,-7.729,-7.7473,-7.7499,-7.7839,-7.8152,-7.8414,-7.8701,-7.8989,-7.9145,-7.9172,-7.9172,-7.9172,-7.9172,-7.9172,-7.9172,-7.9172,-7.9172,-7.9302,-7.9485,-7.9537,-7.9668,-7.9851,-7.9982,-8.0139,-8.0322,-8.0374,-8.0505,-8.0871,-8.1001,-8.0897,-8.0844,-8.0844,-8.072,-8.055,-8.0348,-7.9996,-7.8964,-7.7851,-7.7481,-7.709,-7.6672,-7.6326,-7.6174,-7.6,-7.5728,-7.5477,-7.5201,-7.5,-7.4749,-7.4423,-7.4171,-7.9172,-7.9172,-7.9172,-7.9172,-7.9093,-7.8623,-7.8387,-7.8204,-7.776,-7.7237,-7.6767,-7.6636,-7.6296,-7.5826,-7.5774,-7.5721,-7.5721,-7.5721,-7.5721,-7.5721,-7.5721,-7.5721,-7.5721,-7.5721,-7.5721,-7.5721,-7.5721,-7.5721,-7.5721,-7.5721,-7.5721,-7.5721,-7.5721,-7.5721,-7.5721,-7.5721,-7.5721,-7.5721,-7.5721,-7.5721,-7.5721,-7.5721,-7.5721,-7.5721,-7.5721,-7.5721,-7.5721,-7.5721,-7.5721,-7.5721,-7.5721,-7.5721,-7.5721,-7.5721,-7.5695,-7.5721,-7.5721,-7.58,-7.5826,-7.5878,-7.6192,-7.6741,-7.6871,-7.7028,-7.7629,-7.7839,-7.7995,-7.8361,-7.8414,-7.8701,-7.8989,-7.9172,-7.9172,-7.9172,-7.9172,-7.9198,-7.925,-7.925,-7.925,-7.9276,-7.9302,-7.9616,-7.9903,-8.0139,-8.0269,-8.0348,-8.0505,-8.0661,-8.0844,-8.0975,-8.1106,-8.1315,-8.1315,-8.1184,-8.1184,-8.1184,-8.1158,-8.1034,-8.1034,-8.0642,-7.9496,-7.8647,-7.8148,-7.7681,-7.7362,-7.7017,-7.6596,-7.6374,-7.6177,-7.5929,-7.5653,-7.5552,-7.5427,-7.505,-7.4749,-7.9172,-7.9172,-7.9172,-7.9172,-7.9145,-7.9015,-7.8727,-7.8335,-7.8204,-7.7812,-7.729,-7.6845,-7.6558,-7.6375,-7.5957,-7.5721,-7.5721,-7.5721,-7.5721,-7.5721,-7.5721,-7.5721,-7.5721,-7.5721,-7.5721,-7.5721,-7.5721,-7.5721,-7.5721,-7.5721,-7.5721,-7.5721,-7.5721,-7.5721,-7.5721,-7.5721,-7.5721,-7.5721,-7.5721,-7.5721,-7.5721,-7.5721,-7.5721,-7.5721,-7.5721,-7.5721,-7.5721,-7.5721,-7.5721,-7.5721,-7.5721,-7.5721,-7.5721,-7.5721,-7.5721,-7.58,-7.6166,-7.6401,-7.6479,-7.6767,-7.7316,-7.7734,-7.7812,-7.8178,-7.8727,-7.8727,-7.8806,-7.8989,-7.9015,-7.9015,-7.9119,-7.9172,-7.9198,-7.9224,-7.9224,-7.9381,-7.972,-7.9825,-7.9773,-7.9903,-8.0191,-8.0557,-8.0661,-8.0688,-8.0792,-8.0871,-8.1001,-8.1132,-8.1341,-8.155,-8.1707,-8.1838,-8.189,-8.1811,-8.1811,-8.1785,-8.1707,-8.1629,-8.1602,-8.1524,-8.0472,-7.9678,-7.9281,-7.8678,-7.8076,-7.7609,-7.7413,-7.6745,-7.6497,-7.6351,-7.6153,-7.5929,-7.5728,-7.5477,-7.5327,-7.9172,-7.9172,-7.9172,-7.9172,-7.9172,-7.9172,-7.8989,-7.8753,-7.8727,-7.8387,-7.7891,-7.7525,-7.7133,-7.661,-7.627,-7.6009,-7.5748,-7.5721,-7.5721,-7.5721,-7.5721,-7.5721,-7.5721,-7.5721,-7.5721,-7.5721,-7.5721,-7.5721,-7.5721,-7.5721,-7.5721,-7.5721,-7.5721,-7.5721,-7.5721,-7.5721,-7.5721,-7.5721,-7.5721,-7.5721,-7.5721,-7.5721,-7.5721,-7.5721,-7.5721,-7.5721,-7.5721,-7.5721,-7.5721,-7.5721,-7.5721,-7.5721,-7.5721,-7.5721,-7.5721,-7.58,-7.627,-7.6584,-7.6741,-7.7159,-7.7682,-7.8283,-7.8335,-7.8649,-7.8989,-7.9172,-7.9172,-7.9172,-7.9145,-7.9172,-7.9172,-7.9172,-7.925,-7.9537,-7.9564,-7.9825,-8.0243,-8.0191,-8.0165,-8.0374,-8.0635,-8.0975,-8.1158,-8.1263,-8.1524,-8.1707,-8.1838,-8.1942,-8.1994,-8.2177,-8.2256,-8.236,-8.2491,-8.2517,-8.2517,-8.2439,-8.2334,-8.2256,-8.2177,-8.2125,-8.1712,-8.0967,-8.0426,-7.984,-7.9132,-7.8678,-7.821,-7.7588,-7.6893,-7.6548,-7.6376,-7.6252,-7.6004,-7.5778,-7.5703,-7.9172,-7.9172,-7.9172,-7.9172,-7.9172,-7.9172,-7.9145,-7.9145,-7.9172,-7.8858,-7.8466,-7.8387,-7.7629,-7.6924,-7.661,-7.6244,-7.5878,-7.5878,-7.5957,-7.5957,-7.614,-7.6166,-7.6166,-7.6166,-7.614,-7.5957,-7.58,-7.5721,-7.5721,-7.5721,-7.5721,-7.5721,-7.5721,-7.5721,-7.5721,-7.5721,-7.5721,-7.5721,-7.5721,-7.5721,-7.5721,-7.5721,-7.5721,-7.5721,-7.5721,-7.5721,-7.5721,-7.5721,-7.5721,-7.5721,-7.5721,-7.5774,-7.5826,-7.5852,-7.5852,-7.5904,-7.6584,-7.7028,-7.7185,-7.7525,-7.8048,-7.844,-7.8466,-7.8675,-7.9067,-7.9172,-7.9172,-7.9172,-7.9172,-7.9172,-7.9172,-7.9328,-7.9564,-7.9877,-8.006,-8.0426,-8.0766,-8.0557,-8.0688,-8.0923,-8.1289,-8.1629,-8.1785,-8.1916,-8.223,-8.2491,-8.2569,-8.2648,-8.2648,-8.2622,-8.2596,-8.2569,-8.2622,-8.2648,-8.2648,-8.2622,-8.2569,-8.2543,-8.2543,-8.2517,-8.2465,-8.1999,-8.1326,-8.0831,-8.027,-7.9788,-7.906,-7.841,-7.7715,-7.7093,-7.6672,-7.6351,-7.6252,-7.6153,-7.6004,-7.9172,-7.9172,-7.9172,-7.9172,-7.9172,-7.9172,-7.9172,-7.9172,-7.9172,-7.9119,-7.8962,-7.8544,-7.7995,-7.7316,-7.6793,-7.6296,-7.6009,-7.614,-7.6427,-7.6532,-7.6793,-7.7028,-7.6976,-7.695,-7.7028,-7.6898,-7.6375,-7.5878,-7.5826,-7.5721,-7.5826,-7.5748,-7.5721,-7.5721,-7.5721,-7.5721,-7.5721,-7.5721,-7.5721,-7.5721,-7.5721,-7.5721,-7.5721,-7.5721,-7.5721,-7.5721,-7.5721,-7.5721,-7.5721,-7.5721,-7.5721,-7.6009,-7.6349,-7.6479,-7.6505,-7.6662,-7.7342,-7.7812,-7.7917,-7.8466,-7.8832,-7.9015,-7.8962,-7.8989,-7.9145,-7.9172,-7.9172,-7.9198,-7.9198,-7.9198,-7.9198,-7.9616,-7.9903,-8.0139,-8.0505,-8.0975,-8.1419,-8.1524,-8.1446,-8.1602,-8.1968,-8.223,-8.2256,-8.2308,-8.2439,-8.2569,-8.2596,-8.2648,-8.2648,-8.2648,-8.2622,-8.2622,-8.2622,-8.2648,-8.2648,-8.2648,-8.2622,-8.2596,-8.2596,-8.2596,-8.2569,-8.2596,-8.223,-8.1582,-8.1112,-8.055,-7.9845,-7.924,-7.8565,-7.7894,-7.7246,-7.6573,-7.6351,-7.6252,-7.6153,-7.9172,-7.9172,-7.9172,-7.9172,-7.9172,-7.9172,-7.9172,-7.9172,-7.9172,-7.9172,-7.9093,-7.8858,-7.8257,-7.7577,-7.7211,-7.6741,-7.6401,-7.6427,-7.6767,-7.7054,-7.7342,-7.7446,-7.7499,-7.7499,-7.7446,-7.7316,-7.6871,-7.661,-7.6584,-7.6323,-7.6218,-7.6087,-7.5904,-7.5721,-7.5721,-7.5721,-7.5721,-7.5721,-7.5721,-7.5721,-7.5721,-7.5721,-7.5721,-7.5721,-7.5721,-7.5721,-7.5721,-7.5721,-7.5878,-7.6113,-7.6192,-7.6505,-7.695,-7.729,-7.7368,-7.7316,-7.7891,-7.8335,-7.8414,-7.8832,-7.9119,-7.9145,-7.9172,-7.9172,-7.9172,-7.9172,-7.9198,-7.925,-7.9537,-7.9616,-7.9642,-8.0139,-8.0557,-8.0897,-8.1184,-8.1576,-8.2021,-8.2177,-8.2177,-8.2177,-8.2334,-8.2465,-8.2543,-8.2569,-8.2622,-8.2648,-8.2648,-8.2648,-8.2648,-8.2648,-8.2648,-8.2648,-8.2648,-8.2648,-8.2648,-8.2648,-8.2648,-8.2648,-8.2648,-8.2648,-8.2622,-8.2622,-8.2569,-8.2282,-8.1738,-8.1269,-8.0863,-8.0307,-7.9452,-7.8672,-7.7949,-7.7299,-7.6674,-7.6351,-7.6303,-7.9172,-7.9172,-7.9172,-7.9172,-7.9172,-7.9172,-7.9172,-7.9172,-7.9172,-7.9172,-7.9172,-7.9093,-7.857,-7.7812,-7.7446,-7.7133,-7.6688,-7.6793,-7.729,-7.7603,-7.7839,-7.7839,-7.7839,-7.7812,-7.7917,-7.7995,-7.7865,-7.7682,-7.7263,-7.6976,-7.6819,-7.6636,-7.6192,-7.5904,-7.593,-7.5983,-7.5878,-7.5748,-7.5878,-7.5878,-7.5748,-7.5721,-7.58,-7.5878,-7.5904,-7.5983,-7.6192,-7.6218,-7.6401,-7.6662,-7.6845,-7.7107,-7.7734,-7.8231,-7.8387,-7.8257,-7.8414,-7.8492,-7.8779,-7.8884,-7.9224,-7.9407,-7.925,-7.9198,-7.9224,-7.9328,-7.9459,-7.9564,-7.9877,-8.0191,-8.0269,-8.0714,-8.1184,-8.1576,-8.1811,-8.2099,-8.2387,-8.2543,-8.2517,-8.2543,-8.2648,-8.2648,-8.2648,-8.2648,-8.2648,-8.2648,-8.2648,-8.2648,-8.2648,-8.2648,-8.2648,-8.2648,-8.2648,-8.2648,-8.2648,-8.2648,-8.2648,-8.2648,-8.2648,-8.2648,-8.2648,-8.2622,-8.2569,-8.2517,-8.2308,-8.1791,-8.1535,-8.1227,-8.0442,-7.9684,-7.8829,-7.7977,-7.735,-7.6826,-7.6603,-7.9172,-7.9172,-7.9172,-7.9172,-7.9172,-7.9172,-7.9172,-7.9172,-7.9172,-7.9172,-7.9172,-7.9145,-7.8806,-7.8178,-7.7629,-7.7159,-7.7081,-7.7551,-7.8021,-7.8257,-7.8597,-7.8779,-7.8884,-7.8989,-7.8779,-7.8727,-7.8806,-7.8335,-7.7812,-7.7499,-7.7368,-7.7237,-7.6845,-7.6505,-7.6505,-7.6505,-7.6218,-7.593,-7.627,-7.627,-7.5904,-7.5826,-7.6087,-7.6375,-7.6584,-7.6741,-7.7107,-7.7185,-7.7368,-7.7446,-7.7446,-7.7943,-7.8753,-7.9015,-7.9668,-7.9877,-7.9773,-7.9276,-7.9564,-7.9459,-7.9433,-7.9642,-7.9485,-7.925,-7.9433,-7.9747,-8.0086,-8.0661,-8.0766,-8.0766,-8.0871,-8.1341,-8.1655,-8.1916,-8.2204,-8.2387,-8.2648,-8.2648,-8.2648,-8.2648,-8.2648,-8.2648,-8.2648,-8.2648,-8.2648,-8.2648,-8.2648,-8.2648,-8.2648,-8.2648,-8.2648,-8.2648,-8.2648,-8.2648,-8.2648,-8.2648,-8.2648,-8.2648,-8.2648,-8.2648,-8.2648,-8.2648,-8.2648,-8.2569,-8.2439,-8.2387,-8.213,-8.1796,-8.141,-8.0675,-7.989,-7.8858,-7.7904,-7.7429,-7.7028,-7.9172,-7.9172,-7.9172,-7.9172,-7.9172,-7.9172,-7.9172,-7.9172,-7.9172,-7.9172,-7.9172,-7.9172,-7.8858,-7.8283,-7.7708,-7.7551,-7.7656,-7.81,-7.8518,-7.8753,-7.9041,-7.9172,-7.9145,-7.9172,-7.9172,-7.9172,-7.9145,-7.8962,-7.8414,-7.8074,-7.7943,-7.7865,-7.7394,-7.7081,-7.7081,-7.7107,-7.695,-7.6845,-7.695,-7.6976,-7.6767,-7.6715,-7.6819,-7.7107,-7.7394,-7.7708,-7.7969,-7.8309,-7.8597,-7.8806,-7.891,-7.9093,-7.9616,-7.9877,-8.0191,-7.972,-8.0113,-8.0086,-7.9982,-7.9799,-7.9877,-7.993,-7.9851,-7.9825,-8.006,-8.0348,-8.0557,-8.0818,-8.121,-8.1367,-8.1472,-8.1916,-8.2151,-8.236,-8.2465,-8.2517,-8.2648,-8.2648,-8.2648,-8.2648,-8.2648,-8.2648,-8.2648,-8.2648,-8.2648,-8.2648,-8.2648,-8.2648,-8.2648,-8.2648,-8.2648,-8.2648,-8.2648,-8.2648,-8.2648,-8.2648,-8.2648,-8.2648,-8.2648,-8.2648,-8.2648,-8.2648,-8.2648,-8.2648,-8.2569,-8.2569,-8.2622,-8.2339,-8.19,-8.144,-8.0956,-8.0019,-7.8961,-7.7804,-7.7378,-7.9172,-7.9172,-7.9172,-7.9172,-7.9172,-7.9172,-7.9172,-7.9172,-7.9172,-7.9172,-7.9172,-7.9145,-7.8858,-7.8414,-7.8074,-7.81,-7.8283,-7.8466,-7.8779,-7.9067,-7.9172,-7.9172,-7.9172,-7.9172,-7.9172,-7.9172,-7.9172,-7.9093,-7.9015,-7.8779,-7.8544,-7.8518,-7.7969,-7.7708,-7.7682,-7.7682,-7.7629,-7.7629,-7.7446,-7.7394,-7.7394,-7.7577,-7.7734,-7.8021,-7.8414,-7.8806,-7.8989,-7.9328,-7.9851,-8.0034,-8.0113,-8.0217,-8.0557,-8.0818,-8.0897,-8.0688,-8.1027,-8.1053,-8.0714,-8.0426,-8.0348,-8.0374,-8.0322,-8.0452,-8.0975,-8.1106,-8.1236,-8.1419,-8.1733,-8.1942,-8.2073,-8.2387,-8.2465,-8.2543,-8.2622,-8.2622,-8.2648,-8.2648,-8.2648,-8.2648,-8.2648,-8.2648,-8.2648,-8.2648,-8.2648,-8.2648,-8.2648,-8.2648,-8.2648,-8.2648,-8.2648,-8.2648,-8.2648,-8.2648,-8.2648,-8.2648,-8.2648,-8.2648,-8.2648,-8.2648,-8.2648,-8.2648,-8.2648,-8.2648,-8.2648,-8.2622,-8.2622,-8.2569,-8.2517,-8.2056,-8.1596,-8.1085,-8.0122,-7.891,-7.7754,-7.9172,-7.9172,-7.9172,-7.9172,-7.9172,-7.9172,-7.9172,-7.9172,-7.9172,-7.9172,-7.9172,-7.9145,-7.8858,-7.8544,-7.8701,-7.8675,-7.8361,-7.8884,-7.9067,-7.9145,-7.9172,-7.9172,-7.9172,-7.9172,-7.9172,-7.9172,-7.9172,-7.9172,-7.9145,-7.9093,-7.9041,-7.9015,-7.8492,-7.8335,-7.8309,-7.8361,-7.8387,-7.8335,-7.8126,-7.7891,-7.7969,-7.8204,-7.8623,-7.9093,-7.9616,-8.0139,-8.0635,-8.0714,-8.0792,-8.0949,-8.0949,-8.1001,-8.1315,-8.1576,-8.1629,-8.1602,-8.1942,-8.1864,-8.1472,-8.108,-8.1132,-8.1289,-8.1289,-8.1158,-8.1629,-8.1707,-8.1942,-8.223,-8.2334,-8.2439,-8.2517,-8.2622,-8.2622,-8.2648,-8.2648,-8.2648,-8.2648,-8.2648,-8.2648,-8.2648,-8.2648,-8.2648,-8.2648,-8.2648,-8.2648,-8.2648,-8.2648,-8.2648,-8.2648,-8.2648,-8.2648,-8.2648,-8.2648,-8.2648,-8.2648,-8.2648,-8.2648,-8.2648,-8.2648,-8.2648,-8.2648,-8.2648,-8.2648,-8.2648,-8.2648,-8.2648,-8.2648,-8.2596,-8.2596,-8.2622,-8.2213,-8.1648,-8.0783,-7.9592,-7.8458,-7.9172,-7.9172,-7.9172,-7.9172,-7.9172,-7.9172,-7.9172,-7.9172,-7.9172,-7.9172,-7.9172,-7.9145,-7.9041,-7.8962,-7.8989,-7.9067,-7.8884,-7.9015,-7.9145,-7.9172,-7.9172,-7.9172,-7.9172,-7.9172,-7.9172,-7.9172,-7.9172,-7.9172,-7.9172,-7.9172,-7.9172,-7.9067,-7.891,-7.8884,-7.891,-7.9145,-7.9328,-7.9407,-7.9459,-7.9537,-7.9616,-7.972,-7.9982,-8.0217,-8.0792,-8.1158,-8.1446,-8.1785,-8.1916,-8.1916,-8.189,-8.189,-8.1864,-8.2099,-8.2047,-8.1916,-8.2282,-8.2308,-8.1942,-8.1576,-8.1576,-8.1707,-8.1864,-8.2021,-8.223,-8.2282,-8.2387,-8.2569,-8.2648,-8.2648,-8.2622,-8.2622,-8.2648,-8.2648,-8.2648,-8.2648,-8.2648,-8.2648,-8.2648,-8.2648,-8.2648,-8.2648,-8.2648,-8.2648,-8.2648,-8.2648,-8.2648,-8.2648,-8.2648,-8.2648,-8.2648,-8.2648,-8.2648,-8.2648,-8.2648,-8.2648,-8.2648,-8.2648,-8.2648,-8.2648,-8.2648,-8.2648,-8.2648,-8.2648,-8.2648,-8.2648,-8.2648,-8.2648,-8.2648,-8.2622,-8.2443,-8.2035,-8.1141,-8.0251,-7.9316,-7.9172,-7.9172,-7.9172,-7.9172,-7.9172,-7.9172,-7.9172,-7.9172,-7.9172,-7.9172,-7.9172,-7.9172,-7.9172,-7.9172,-7.9172,-7.9172,-7.9119,-7.9145,-7.9172,-7.9172,-7.9172,-7.9172,-7.9172,-7.9172,-7.9172,-7.9172,-7.9172,-7.9172,-7.9172,-7.9172,-7.9172,-7.9198,-7.9328,-7.9407,-7.9564,-7.9956,-8.0295,-8.04,-8.0609,-8.0871,-8.0792,-8.1001,-8.108,-8.1184,-8.1655,-8.1942,-8.2099,-8.2308,-8.2465,-8.2517,-8.2491,-8.2387,-8.2308,-8.2256,-8.2125,-8.1994,-8.1994,-8.2387,-8.2151,-8.2021,-8.2021,-8.2151,-8.2334,-8.2517,-8.2648,-8.2648,-8.2596,-8.2622,-8.2648,-8.2648,-8.2648,-8.2648,-8.2648,-8.2648,-8.2648,-8.2648,-8.2648,-8.2648,-8.2648,-8.2648,-8.2648,-8.2648,-8.2648,-8.2648,-8.2648,-8.2648,-8.2648,-8.2648,-8.2648,-8.2648,-8.2648,-8.2648,-8.2648,-8.2648,-8.2648,-8.2648,-8.2648,-8.2648,-8.2648,-8.2648,-8.2648,-8.2648,-8.2648,-8.2648,-8.2648,-8.2648,-8.2648,-8.2648,-8.2648,-8.2648,-8.2443,-8.2265,-8.1956,-8.099,-8.0303,-7.9172,-7.9172,-7.9172,-7.9172,-7.9172,-7.9172,-7.9172,-7.9172,-7.9172,-7.9172,-7.9172,-7.9172,-7.9172,-7.9172,-7.9172,-7.9172,-7.9172,-7.9172,-7.9172,-7.9172,-7.9172,-7.9172,-7.9172,-7.9172,-7.9172,-7.9172,-7.9172,-7.9172,-7.9172,-7.9302,-7.9276,-7.9485,-7.9851,-8.0086,-8.0086,-8.0583,-8.0844,-8.0871,-8.0923,-8.1053,-8.1184,-8.155,-8.1707,-8.189,-8.2204,-8.2439,-8.2491,-8.2543,-8.2648,-8.2648,-8.2648,-8.2569,-8.2543,-8.2543,-8.2517,-8.2491,-8.2517,-8.2596,-8.2596,-8.2596,-8.2543,-8.2491,-8.2596,-8.2622,-8.2648,-8.2648,-8.2648,-8.2648,-8.2648,-8.2648,-8.2648,-8.2648,-8.2648,-8.2648,-8.2648,-8.2648,-8.2648,-8.2648,-8.2648,-8.2648,-8.2648,-8.2648,-8.2648,-8.2648,-8.2648,-8.2648,-8.2648,-8.2648,-8.2648,-8.2648,-8.2648,-8.2648,-8.2648,-8.2648,-8.2648,-8.2648,-8.2648,-8.2648,-8.2648,-8.2648,-8.2648,-8.2648,-8.2648,-8.2648,-8.2648,-8.2648,-8.2648,-8.2648,-8.2648,-8.2648,-8.2648,-8.2469,-8.2213,-8.183,-8.1115,-7.9172,-7.9172,-7.9172,-7.9172,-7.9172,-7.9172,-7.9172,-7.9172,-7.9172,-7.9172,-7.9172,-7.9172,-7.9172,-7.9172,-7.9172,-7.9172,-7.9172,-7.9172,-7.9172,-7.9172,-7.9172,-7.9172,-7.9172,-7.9172,-7.9172,-7.9172,-7.9172,-7.9224,-7.9172,-7.9537,-7.972,-7.993,-8.0557,-8.0897,-8.0844,-8.1132,-8.1472,-8.155,-8.1811,-8.2073,-8.2073,-8.2204,-8.2308,-8.2308,-8.2543,-8.2622,-8.2648,-8.2648,-8.2648,-8.2648,-8.2648,-8.2648,-8.2648,-8.2648,-8.2648,-8.2648,-8.2648,-8.2648,-8.2648,-8.2622,-8.2622,-8.2648,-8.2648,-8.2648,-8.2648,-8.2648,-8.2648,-8.2648,-8.2648,-8.2648,-8.2648,-8.2648,-8.2648,-8.2648,-8.2648,-8.2648,-8.2648,-8.2648,-8.2648,-8.2648,-8.2648,-8.2648,-8.2648,-8.2648,-8.2648,-8.2648,-8.2648,-8.2648,-8.2648,-8.2648,-8.2648,-8.2648,-8.2648,-8.2648,-8.2648,-8.2648,-8.2648,-8.2648,-8.2648,-8.2648,-8.2648,-8.2648,-8.2648,-8.2648,-8.2648,-8.2648,-8.2648,-8.2648,-8.2648,-8.2648,-8.2648,-8.2648,-8.2443,-8.2213,-8.183,-7.9172,-7.9172,-7.9172,-7.9172,-7.9172,-7.9172,-7.9172,-7.9172,-7.9172,-7.9172,-7.9172,-7.9172,-7.9172,-7.9172,-7.9172,-7.9172,-7.9172,-7.9172,-7.9172,-7.9172,-7.9172,-7.9172,-7.9172,-7.9198,-7.9328,-7.9355,-7.9485,-7.9537,-7.9877,-8.0165,-8.0452,-8.0844,-8.1393,-8.1576,-8.1629,-8.1916,-8.2073,-8.2151,-8.236,-8.2517,-8.2543,-8.2596,-8.2596,-8.2596,-8.2648,-8.2648,-8.2648,-8.2648,-8.2648,-8.2648,-8.2648,-8.2648,-8.2648,-8.2648,-8.2648,-8.2648,-8.2648,-8.2648,-8.2648,-8.2648,-8.2648,-8.2648,-8.2648,-8.2648,-8.2648,-8.2648,-8.2648,-8.2648,-8.2648,-8.2648,-8.2648,-8.2648,-8.2648,-8.2648,-8.2648,-8.2648,-8.2648,-8.2648,-8.2648,-8.2648,-8.2648,-8.2648,-8.2648,-8.2648,-8.2648,-8.2648,-8.2648,-8.2648,-8.2648,-8.2648,-8.2648,-8.2648,-8.2648,-8.2648,-8.2648,-8.2648,-8.2648,-8.2648,-8.2648,-8.2648,-8.2648,-8.2648,-8.2648,-8.2648,-8.2648,-8.2648,-8.2648,-8.2648,-8.2648,-8.2648,-8.2648,-8.2648,-8.2648,-8.2443,-8.2239,-7.9172,-7.9172,-7.9172,-7.9172,-7.9172,-7.9172,-7.9172,-7.9172,-7.9172,-7.9172,-7.9172,-7.9172,-7.9172,-7.9172,-7.9172,-7.9172,-7.9172,-7.9172,-7.9172,-7.9172,-7.9172,-7.9172,-7.9172,-7.9172,-7.9355,-7.9747,-7.9956,-8.0008,-8.0714,-8.0871,-8.1184,-8.1602,-8.1838,-8.2073,-8.2308,-8.2439,-8.2491,-8.2517,-8.2543,-8.2648,-8.2648,-8.2648,-8.2648,-8.2648,-8.2648,-8.2648,-8.2648,-8.2648,-8.2648,-8.2648,-8.2648,-8.2648,-8.2648,-8.2648,-8.2648,-8.2648,-8.2648,-8.2648,-8.2648,-8.2648,-8.2648,-8.2648,-8.2648,-8.2648,-8.2648,-8.2648,-8.2648,-8.2648,-8.2648,-8.2648,-8.2648,-8.2648,-8.2648,-8.2648,-8.2648,-8.2648,-8.2648,-8.2648,-8.2648,-8.2648,-8.2648,-8.2648,-8.2648,-8.2648,-8.2648,-8.2648,-8.2648,-8.2648,-8.2648,-8.2648,-8.2648,-8.2648,-8.2648,-8.2648,-8.2648,-8.2648,-8.2648,-8.2648,-8.2648,-8.2648,-8.2648,-8.2648,-8.2648,-8.2648,-8.2648,-8.2648,-8.2648,-8.2648,-8.2648,-8.2648,-8.2648,-8.2648,-8.2648,-8.2648,-8.2443,-7.9172,-7.9172,-7.9172,-7.9172,-7.9172,-7.9172,-7.9172,-7.9172,-7.9172,-7.9172,-7.9172,-7.9172,-7.9172,-7.9172,-7.9172,-7.9172,-7.9172,-7.9172,-7.9172,-7.9172,-7.9172,-7.9172,-7.9172,-7.9172,-7.9302,-7.9537,-7.9851,-8.0243,-8.0505,-8.0975,-8.1811,-8.2282,-8.2308,-8.2491,-8.2569,-8.2648,-8.2648,-8.2648,-8.2648,-8.2648,-8.2648,-8.2648,-8.2648,-8.2648,-8.2648,-8.2648,-8.2648,-8.2648,-8.2648,-8.2648,-8.2648,-8.2648,-8.2648,-8.2648,-8.2648,-8.2648,-8.2648,-8.2648,-8.2648,-8.2648,-8.2648,-8.2648,-8.2648,-8.2648,-8.2648,-8.2648,-8.2648,-8.2648,-8.2648,-8.2648,-8.2648,-8.2648,-8.2648,-8.2648,-8.2648,-8.2648,-8.2648,-8.2648,-8.2648,-8.2648,-8.2648,-8.2648,-8.2648,-8.2648,-8.2648,-8.2648,-8.2648,-8.2648,-8.2648,-8.2648,-8.2648,-8.2648,-8.2648,-8.2648,-8.2648,-8.2648,-8.2648,-8.2648,-8.2648,-8.2648,-8.2648,-8.2648,-8.2648,-8.2648,-8.2648,-8.2648,-8.2648,-8.2648,-8.2648,-8.2648,-8.2648,-8.2648,-8.2648,-8.2648,-8.2622,-7.9172,-7.9172,-7.9172,-7.9172,-7.9172,-7.9172,-7.9172,-7.9172,-7.9172,-7.9172,-7.9172,-7.9172,-7.9172,-7.9172,-7.9172,-7.9172,-7.9172,-7.9172,-7.9172,-7.9172,-7.9172,-7.9172,-7.9172,-7.9198,-7.9355,-7.959,-8.006,-8.0609,-8.0844,-8.1524,-8.236,-8.2543,-8.2648,-8.2648,-8.2648,-8.2648,-8.2648,-8.2648,-8.2648,-8.2648,-8.2648,-8.2648,-8.2648,-8.2648,-8.2648,-8.2648,-8.2648,-8.2648,-8.2648,-8.2648,-8.2648,-8.2648,-8.2648,-8.2648,-8.2648,-8.2648,-8.2648,-8.2648,-8.2648,-8.2648,-8.2648,-8.2648,-8.2648,-8.2648,-8.2648,-8.2648,-8.2648,-8.2648,-8.2648,-8.2648,-8.2648,-8.2648,-8.2648,-8.2648,-8.2648,-8.2648,-8.2648,-8.2648,-8.2648,-8.2648,-8.2648,-8.2648,-8.2648,-8.2648,-8.2648,-8.2648,-8.2648,-8.2648,-8.2648,-8.2648,-8.2648,-8.2648,-8.2648,-8.2648,-8.2648,-8.2648,-8.2648,-8.2648,-8.2648,-8.2648,-8.2648,-8.2648,-8.2648,-8.2648,-8.2648,-8.2648,-8.2648,-8.2648,-8.2648,-8.2648,-8.2648,-8.2648,-8.2648,-8.2648,-8.2622,-7.9172,-7.9172,-7.9172,-7.9172,-7.9172,-7.9172,-7.9172,-7.9172,-7.9172,-7.9172,-7.9172,-7.9172,-7.9172,-7.9172,-7.9172,-7.9172,-7.9172,-7.9172,-7.9172,-7.9172,-7.9172,-7.9172,-7.9172,-7.9198,-7.9328,-7.993,-8.0557,-8.1027,-8.1759,-8.2256,-8.2517,-8.2648,-8.2648,-8.2648,-8.2648,-8.2648,-8.2648,-8.2648,-8.2648,-8.2648,-8.2648,-8.2648,-8.2648,-8.2648,-8.2648,-8.2648,-8.2648,-8.2648,-8.2648,-8.2648,-8.2648,-8.2648,-8.2648,-8.2648,-8.2648,-8.2648,-8.2648,-8.2648,-8.2648,-8.2648,-8.2648,-8.2648,-8.2648,-8.2648,-8.2648,-8.2648,-8.2648,-8.2648,-8.2648,-8.2648,-8.2648,-8.2648,-8.2648,-8.2648,-8.2648,-8.2648,-8.2648,-8.2648,-8.2648,-8.2648,-8.2648,-8.2648,-8.2648,-8.2648,-8.2648,-8.2648,-8.2648,-8.2648,-8.2648,-8.2648,-8.2648,-8.2648,-8.2648,-8.2648,-8.2648,-8.2648,-8.2648,-8.2648,-8.2648,-8.2648,-8.2648,-8.2648,-8.2648,-8.2648,-8.2648,-8.2648,-8.2648,-8.2648,-8.2648,-8.2648,-8.2648,-8.2648,-8.2648,-8.2648,-8.2622,-7.9172,-7.9172,-7.9172,-7.9172,-7.9172,-7.9172,-7.9172,-7.9172,-7.9172,-7.9172,-7.9172,-7.9172,-7.9172,-7.9172,-7.9172,-7.9172,-7.9172,-7.9172,-7.9172,-7.9172,-7.9172,-7.925,-7.9172,-7.9224,-7.9355,-7.9642,-8.0348,-8.1419,-8.2177,-8.2543,-8.2648,-8.2648,-8.2648,-8.2648,-8.2648,-8.2648,-8.2648,-8.2648,-8.2648,-8.2648,-8.2648,-8.2648,-8.2648,-8.2648,-8.2648,-8.2648,-8.2648,-8.2648,-8.2648,-8.2648,-8.2648,-8.2648,-8.2648,-8.2648,-8.2648,-8.2648,-8.2648,-8.2648,-8.2648,-8.2648,-8.2648,-8.2648,-8.2648,-8.2648,-8.2648,-8.2648,-8.2648,-8.2648,-8.2648,-8.2648,-8.2648,-8.2648,-8.2648,-8.2648,-8.2648,-8.2648,-8.2648,-8.2648,-8.2648,-8.2648,-8.2648,-8.2648,-8.2648,-8.2648,-8.2648,-8.2648,-8.2648,-8.2648,-8.2648,-8.2648,-8.2648,-8.2648,-8.2648,-8.2648,-8.2648,-8.2648,-8.2648,-8.2648,-8.2648,-8.2648,-8.2648,-8.2648,-8.2648,-8.2648,-8.2648,-8.2648,-8.2648,-8.2648,-8.2648,-8.2648,-8.2648,-8.2648,-8.2648,-8.2648,-8.2648,-7.9172,-7.9172,-7.9172,-7.9172,-7.9172,-7.9172,-7.9172,-7.9172,-7.9172,-7.9172,-7.9172,-7.9172,-7.9172,-7.9172,-7.9172,-7.9198,-7.9198,-7.9172,-7.9172,-7.9172,-7.9276,-7.9381,-7.9381,-7.9355,-7.972,-8.0008,-8.0818,-8.1759,-8.2517,-8.2648,-8.2648,-8.2648,-8.2648,-8.2648,-8.2648,-8.2648,-8.2648,-8.2648,-8.2648,-8.2648,-8.2648,-8.2648,-8.2648,-8.2648,-8.2648,-8.2648,-8.2648,-8.2648,-8.2648,-8.2648,-8.2648,-8.2648,-8.2648,-8.2648,-8.2648,-8.2648,-8.2648,-8.2648,-8.2648,-8.2648,-8.2648,-8.2648,-8.2648,-8.2648,-8.2648,-8.2648,-8.2648,-8.2648,-8.2648,-8.2648,-8.2648,-8.2648,-8.2648,-8.2648,-8.2648,-8.2648,-8.2648,-8.2648,-8.2648,-8.2648,-8.2648,-8.2648,-8.2648,-8.2648,-8.2648,-8.2648,-8.2648,-8.2648,-8.2648,-8.2648,-8.2648,-8.2648,-8.2648,-8.2648,-8.2648,-8.2648,-8.2648,-8.2648,-8.2648,-8.2648,-8.2648,-8.2648,-8.2648,-8.2648,-8.2648,-8.2648,-8.2648,-8.2648,-8.2648,-8.2648,-8.2648,-8.2648,-8.2648,-8.2648,-8.2648,-7.9172,-7.9172,-7.9172,-7.9172,-7.9172,-7.9172,-7.9172,-7.9172,-7.9172,-7.9172,-7.9172,-7.9172,-7.9172,-7.9172,-7.9172,-7.9224,-7.9302,-7.9433,-7.9355,-7.9381,-7.9485,-7.9668,-7.9747,-7.972,-8.0217,-8.0766,-8.1419,-8.1994,-8.2622,-8.2648,-8.2648,-8.2648,-8.2648,-8.2648,-8.2648,-8.2648,-8.2648,-8.2648,-8.2648,-8.2648,-8.2648,-8.2648,-8.2648,-8.2648,-8.2648,-8.2648,-8.2648,-8.2648,-8.2648,-8.2648,-8.2648,-8.2648,-8.2648,-8.2648,-8.2648,-8.2648,-8.2648,-8.2648,-8.2648,-8.2648,-8.2648,-8.2648,-8.2648,-8.2648,-8.2648,-8.2648,-8.2648,-8.2648,-8.2648,-8.2648,-8.2648,-8.2648,-8.2648,-8.2648,-8.2648,-8.2648,-8.2648,-8.2648,-8.2648,-8.2648,-8.2648,-8.2648,-8.2648,-8.2648,-8.2648,-8.2648,-8.2648,-8.2648,-8.2648,-8.2648,-8.2648,-8.2648,-8.2648,-8.2648,-8.2648,-8.2648,-8.2648,-8.2648,-8.2648,-8.2648,-8.2648,-8.2648,-8.2648,-8.2648,-8.2648,-8.2648,-8.2648,-8.2648,-8.2648,-8.2648,-8.2648,-8.2648,-8.2648,-8.2648,-8.2648,-7.9172,-7.9172,-7.9172,-7.9172,-7.9172,-7.9172,-7.9172,-7.9172,-7.9172,-7.9172,-7.9172,-7.9172,-7.9172,-7.9172,-7.9172,-7.9328,-7.972,-7.9773,-7.9825,-7.9877,-8.0139,-8.0191,-8.0295,-8.0505,-8.0975,-8.1419,-8.1785,-8.2099,-8.2569,-8.2648,-8.2648,-8.2648,-8.2648,-8.2648,-8.2648,-8.2648,-8.2648,-8.2648,-8.2648,-8.2648,-8.2648,-8.2648,-8.2648,-8.2648,-8.2648,-8.2648,-8.2648,-8.2648,-8.2648,-8.2648,-8.2648,-8.2648,-8.2648,-8.2648,-8.2648,-8.2648,-8.2648,-8.2648,-8.2648,-8.2648,-8.2648,-8.2648,-8.2648,-8.2648,-8.2648,-8.2648,-8.2648,-8.2648,-8.2648,-8.2648,-8.2648,-8.2648,-8.2648,-8.2648,-8.2648,-8.2648,-8.2648,-8.2648,-8.2648,-8.2648,-8.2648,-8.2648,-8.2648,-8.2648,-8.2648,-8.2648,-8.2648,-8.2648,-8.2648,-8.2648,-8.2648,-8.2648,-8.2648,-8.2648,-8.2648,-8.2648,-8.2648,-8.2648,-8.2648,-8.2648,-8.2648,-8.2648,-8.2648,-8.2648,-8.2648,-8.2648,-8.2648,-8.2648,-8.2648,-8.2648,-8.2648,-8.2648,-8.2648,-8.2648,-8.2648]},{"header":{"parameterUnit":"m.s-1","parameterCategory":1,"la1":31.0,"la2":29.5877,"lo1":-88.7671,"lo2":-86.6584,"dy":0.0162,"dx":0.0185,"nx":115,"ny":88,"refTime":"2024-03-22T06:00:00:Z","depth":0,"parameterNumber":3,"parameterNumberName":"V-component_of_WINDS"},"data":[0.0,0.0,0.0,0.0,0.0,0.0,0.0,0.0,0.0,0.0,0.0,0.0,0.0,0.0,0.0,0.0,0.0,0.0,0.0,0.0,0.0,0.0,0.0,0.0,0.0,0.0,0.0,0.0,0.0,0.0,0.0,0.0,0.0,0.0,0.0,0.0,0.0,0.0,0.0,0.0,0.0,0.0,0.0,0.0,0.0,0.0,0.0,0.0,0.0,0.0,0.0,0.0,0.0,0.0,0.0,0.0,0.0,0.0,0.0,0.0,0.0,0.0,0.0,0.0,0.0,0.0,0.0,0.0,0.0,0.0,0.0,0.0,0.0,0.0,0.0,0.0,0.0,0.0,0.0,0.0,0.0,0.0,0.0,0.0,0.0,0.0,0.0,0.0,0.0,0.0,0.0,0.0,0.0,0.0,0.0,0.0,0.0,0.0,0.0,0.0,0.0,0.0,0.0,0.0,0.0,0.0,0.0,0.0,0.0,0.0,0.0,0.0,0.0,0.0,0.0,0.0,0.0,0.0,0.0,0.0,0.0,0.0,0.0,0.0,0.0,0.0,0.0,0.0,0.0,0.0,0.0,0.0,0.0,0.0,0.0,0.0,0.0,0.0,0.0,0.0,0.0,0.0,0.0,0.0,0.0,0.0,0.0,0.0,0.0,0.0,0.0,0.0,0.0,0.0,0.0,0.0,0.0,0.0,0.0,0.0,0.0,0.0,0.0,0.0,0.0,0.0,0.0,0.0,0.0,0.0,0.0,0.0,0.0,0.0,0.0,0.0,0.0,0.0,0.0,0.0,0.0,0.0,0.0,0.0,0.0,0.0,0.0,0.0,0.0,0.0,0.0,0.0,0.0,0.0,0.0,0.0,0.0,0.0,0.0,0.0,0.0,0.0,0.0,0.0,0.0,0.0,0.0,0.0,0.0,0.0,0.0,0.0,0.0,0.0,0.0,0.0,0.0,0.0,0.0,0.0,0.0,0.0,0.0,0.0,0.0,0.0,0.0,0.0,0.0,0.0,0.0,0.0,0.0,0.0,0.0,0.0,0.0,0.0,0.0,0.0,0.0,0.0,0.0,0.0,0.0,0.0,0.0,0.0,0.0,0.0,0.0,0.0,0.0,0.0,0.0,0.0,0.0,0.0,0.0,0.0,0.0,0.0,0.0,0.0,0.0,0.0,0.0,0.0,0.0,0.0,0.0,0.0,0.0,0.0,0.0,0.0,0.0,0.0,0.0,0.0,0.0,0.0,0.0,0.0,0.0,0.0,0.0,0.0,0.0,0.0,0.0,0.0,0.0,0.0,0.0,0.0,0.0,0.0,0.0,0.0,0.0,0.0,0.0,0.0,0.0,0.0,0.0,0.0,0.0,0.0,0.0,0.0,0.0,0.0,0.0,0.0,0.0,0.0,0.0,0.0,0.0,0.0,0.0,0.0,0.0,0.0,0.0,0.0,0.0,0.0,0.0,0.0,0.0,0.0,0.0,0.0,0.0,0.0,0.0,0.0,0.0,0.0,0.0,0.0,0.0,0.0,0.0,0.0,0.0,0.0,0.0,0.0,0.0,0.0,0.0,0.0,0.0,0.0,0.0,0.0,0.0,0.0,0.0,0.0,0.0,0.0,0.0,0.0,0.0,0.0,0.0,0.0,0.0,0.0,0.0,0.0,0.0,0.0,0.0,0.0,0.0,0.0,0.0,0.0,0.0,0.0,0.0,0.0,0.0,0.0,0.0,0.0,0.0,0.0,0.0,0.0,0.0,0.0,0.0,0.0,0.0,0.0,0.0,0.0,0.0,0.0,0.0,0.0,0.0,0.0,0.0,0.0,0.0,0.0,0.0,0.0,0.0,0.0,0.0,0.0,0.0,0.0,0.0,0.0,0.0,0.0,0.0,0.0,0.0,0.0,0.0,0.0,0.0,0.0,0.0,0.0,0.0,0.0,0.0,0.0,0.0,0.0,0.0,0.0,0.0,0.0,0.0,0.0,0.0,0.0,0.0,0.0,0.0,0.0,0.0,0.0,0.0,0.0,0.0,0.0,0.0,0.0,0.0,0.0,0.0,0.0,0.0,0.0,0.0,0.0,0.0,0.0,0.0,0.0,0.0,0.0,0.0,0.0,0.0,0.0,0.0,0.0,0.0,0.0,0.0,0.0,0.0,0.0,0.0,0.0,0.0,0.0,0.0,0.0,0.0,0.0,0.0,0.0,0.0,0.0,0.0,0.0,0.0,0.0,0.0,0.0,0.0,0.0,0.0,0.0,0.0,0.0,0.0,0.0,0.0,0.0,0.0,0.0,0.0,0.0,0.0,0.0,0.0,0.0,0.0,0.0,0.0,0.0,0.0,0.0,0.0,0.0,0.0,0.0,0.0,0.0,0.0,0.0,0.0,0.0,0.0,0.0,0.0,0.0,0.0,0.0,0.0,0.0,0.0,0.0,0.0,0.0,0.0,0.0,0.0,0.0,0.0,0.0,0.0,0.0,0.0,0.0,0.0,0.0,0.0,0.0,0.0,0.0,0.0,0.0,0.0,0.0,0.0,0.0,0.0,0.0,0.0,0.0,0.0,0.0,0.0,0.0,0.0,0.0,0.0,0.0,0.0,0.0,0.0,0.0,0.0,0.0,0.0,0.0,0.0,0.0,0.0,0.0,0.0,0.0,0.0,0.0,0.0,0.0,0.0,0.0,0.0,0.0,0.0,0.0,0.0,0.0,0.0,0.0,0.0,0.0,0.0,0.0,0.0,0.0,0.0,0.0,0.0,0.0,0.0,0.0,0.0,0.0,0.0,0.0,0.0,0.0,0.0,0.0,0.0,0.0,0.0,0.0,0.0,0.0,0.0,0.0,0.0,0.0,0.0,0.0,0.0,0.0,0.0,0.0,0.0,0.0,0.0,0.0,0.0,0.0,0.0,0.0,0.0,0.0,0.0,0.0,0.0,0.0,0.0,0.0,0.0,0.0,0.0,0.0,0.0,0.0,0.0,0.0,0.0,0.0,0.0,0.0,0.0,0.0,0.0,0.0,0.0,0.0,0.0,0.0,0.0,0.0,0.0,0.0,0.0,0.0,0.0,0.0,0.0,0.0,0.0,0.0,0.0,0.0,0.0,0.0,0.0,0.0,0.0,0.0,0.0,0.0,0.0,0.0,0.0,0.0,0.0,0.0,0.0,0.0,0.0,0.0,0.0,0.0,0.0,0.0,0.0,0.0,0.0,0.0,0.0,0.0,0.0,0.0,0.0,0.0,0.0,0.0,0.0,0.0,0.0,0.0,0.0,0.0,0.0,0.0,0.0,0.0,0.0,0.0,0.0,0.0,0.0,0.0,0.0,0.0,0.0,0.0,0.0,0.0,0.0,0.0,0.0,0.0,0.0,0.0,0.0,0.0,0.0,0.0,0.0,0.0,0.0,0.0,0.0,0.0,0.0,0.0,0.0,0.0,0.0,0.0,0.0,0.0,0.0,0.0,0.0,0.0,0.0,0.0,0.0,0.0,0.0,0.0,0.0,0.0,0.0,0.0,0.0,0.0,0.0,0.0,0.0,0.0,0.0,0.0,0.0,0.0,0.0,0.0,0.0,0.0,0.0,0.0,0.0,0.0,0.0,0.0,0.0,0.0,0.0,0.0,0.0,0.0,0.0,0.0,0.0,0.0,0.0,0.0,0.0,0.0,0.0,0.0,0.0,0.0,0.0,0.0,0.0,0.0,0.0,0.0,0.0,0.0,0.0,0.0,0.0,0.0,0.0,0.0,0.0,0.0,0.0,0.0,0.0,0.0,0.0,0.0,0.0,0.0,0.0,0.0,0.0,0.0,0.0,0.0,0.0,0.0,0.0,0.0,0.0,0.0,0.0,0.0,0.0,0.0,0.0,0.0,0.0,0.0,0.0,0.0,0.0,0.0,0.0,0.0,0.0,0.0,0.0,0.0,0.0,0.0,0.0,0.0,0.0,0.0,0.0,0.0,0.0,0.0,0.0,0.0,0.0,0.0,0.0,0.0,0.0,0.0,0.0,0.0,0.0,0.0,0.0,0.0,0.0,0.0,0.0,0.0,0.0,0.0,0.0,0.0,0.0,0.0,0.0,0.0,0.0,0.0,0.0,0.0,0.0,0.0,0.0,0.0,0.0,0.0,0.0,0.0,0.0,0.0,0.0,0.0,0.0,0.0,0.0,0.0,0.0,0.0,0.0,0.0,0.0,0.0,0.0,0.0,0.0,0.0,0.0,0.0,0.0,0.0,0.0,0.0,0.0,0.0,0.0,0.0,0.0,0.0,0.0,0.0,6.2151,0.0,0.0,0.0,0.0,0.0,0.0,0.0,0.0,0.0,0.0,0.0,0.0,0.0,0.0,0.0,0.0,0.0,0.0,0.0,0.0,0.0,0.0,0.0,0.0,0.0,0.0,0.0,0.0,0.0,0.0,0.0,0.0,0.0,0.0,0.0,0.0,0.0,0.0,0.0,0.0,0.0,0.0,0.0,0.0,0.0,0.0,0.0,0.0,0.0,0.0,0.0,0.0,0.0,0.0,0.0,0.0,0.0,0.0,0.0,0.0,0.0,0.0,0.0,0.0,0.0,0.0,0.0,0.0,0.0,0.0,0.0,0.0,0.0,0.0,0.0,0.0,0.0,0.0,0.0,0.0,0.0,0.0,0.0,0.0,0.0,0.0,0.0,0.0,0.0,0.0,0.0,0.0,0.0,0.0,0.0,0.0,0.0,0.0,0.0,0.0,0.0,0.0,0.0,0.0,0.0,0.0,0.0,0.0,0.0,0.0,6.4851,6.4561,6.4212,6.3603,6.2703,0.0,0.0,0.0,0.0,0.0,0.0,0.0,0.0,0.0,0.0,0.0,0.0,0.0,0.0,0.0,0.0,0.0,0.0,0.0,0.0,0.0,0.0,0.0,0.0,0.0,0.0,0.0,0.0,0.0,0.0,0.0,0.0,0.0,0.0,0.0,0.0,0.0,0.0,0.0,0.0,0.0,0.0,0.0,0.0,0.0,0.0,0.0,0.0,0.0,0.0,0.0,0.0,0.0,0.0,0.0,0.0,0.0,0.0,0.0,0.0,0.0,0.0,0.0,0.0,0.0,0.0,0.0,0.0,0.0,0.0,0.0,0.0,0.0,0.0,0.0,0.0,0.0,0.0,0.0,0.0,0.0,0.0,0.0,0.0,0.0,0.0,0.0,0.0,0.0,0.0,0.0,0.0,0.0,0.0,0.0,0.0,0.0,0.0,0.0,0.0,0.0,0.0,0.0,0.0,0.0,0.0,0.0,0.0,0.0,0.0,0.0,0.0,6.4735,6.4154,6.3545,0.0,0.0,0.0,0.0,0.0,0.0,0.0,0.0,0.0,0.0,0.0,0.0,0.0,0.0,0.0,0.0,0.0,0.0,0.0,0.0,0.0,0.0,0.0,0.0,0.0,0.0,0.0,0.0,0.0,0.0,0.0,0.0,0.0,0.0,0.0,0.0,0.0,0.0,0.0,0.0,0.0,0.0,0.0,0.0,0.0,0.0,0.0,0.0,0.0,0.0,0.0,0.0,0.0,0.0,0.0,0.0,0.0,0.0,0.0,0.0,0.0,0.0,0.0,0.0,0.0,0.0,0.0,0.0,0.0,0.0,0.0,0.0,0.0,0.0,0.0,0.0,0.0,0.0,0.0,0.0,0.0,0.0,0.0,0.0,0.0,0.0,0.0,0.0,0.0,0.0,0.0,0.0,0.0,0.0,0.0,0.0,0.0,0.0,0.0,0.0,0.0,0.0,0.0,0.0,0.0,0.0,0.0,0.0,0.0,0.0,6.5257,6.5809,6.5715,0.0,6.4851,0.0,0.0,0.0,0.0,0.0,0.0,0.0,0.0,0.0,0.0,0.0,0.0,0.0,0.0,0.0,0.0,0.0,0.0,0.0,0.0,0.0,0.0,0.0,0.0,0.0,0.0,0.0,0.0,0.0,0.0,0.0,0.0,0.0,0.0,0.0,0.0,0.0,0.0,0.0,0.0,0.0,0.0,0.0,0.0,0.0,0.0,0.0,0.0,0.0,0.0,0.0,0.0,0.0,0.0,0.0,0.0,0.0,0.0,0.0,0.0,0.0,0.0,0.0,0.0,0.0,0.0,0.0,0.0,0.0,0.0,0.0,0.0,0.0,0.0,0.0,0.0,0.0,0.0,0.0,0.0,0.0,0.0,0.0,0.0,0.0,0.0,0.0,0.0,0.0,0.0,0.0,0.0,0.0,0.0,0.0,0.0,0.0,0.0,0.0,0.0,0.0,0.0,0.0,0.0,0.0,0.0,0.0,0.0,0.0,0.0,6.5286,6.5896,6.5199,6.4677,0.0,0.0,0.0,0.0,0.0,0.0,0.0,0.0,0.0,0.0,0.0,0.0,0.0,0.0,0.0,0.0,0.0,0.0,0.0,0.0,0.0,0.0,0.0,0.0,0.0,0.0,0.0,0.0,0.0,0.0,0.0,0.0,0.0,0.0,0.0,0.0,0.0,0.0,0.0,0.0,0.0,0.0,0.0,0.0,0.0,0.0,0.0,0.0,0.0,0.0,0.0,0.0,0.0,0.0,0.0,0.0,0.0,0.0,0.0,0.0,0.0,0.0,0.0,0.0,0.0,0.0,0.0,0.0,0.0,0.0,0.0,0.0,0.0,0.0,0.0,0.0,0.0,0.0,0.0,0.0,0.0,0.0,0.0,0.0,0.0,0.0,0.0,0.0,0.0,0.0,0.0,0.0,0.0,0.0,0.0,0.0,0.0,0.0,0.0,0.0,0.0,0.0,0.0,0.0,0.0,0.0,0.0,0.0,0.0,0.0,6.5083,6.5286,6.5838,6.499,6.4236,6.3743,0.0,0.0,0.0,0.0,0.0,0.0,0.0,0.0,0.0,0.0,0.0,0.0,0.0,0.0,0.0,0.0,0.0,0.0,0.0,0.0,0.0,0.0,0.0,0.0,0.0,0.0,0.0,0.0,0.0,0.0,0.0,0.0,0.0,0.0,0.0,0.0,0.0,0.0,0.0,0.0,0.0,0.0,0.0,0.0,0.0,0.0,0.0,0.0,0.0,0.0,0.0,0.0,0.0,0.0,0.0,0.0,0.0,0.0,0.0,0.0,0.0,0.0,0.0,0.0,0.0,0.0,0.0,0.0,0.0,0.0,0.0,0.0,0.0,0.0,0.0,0.0,0.0,0.0,0.0,0.0,0.0,0.0,0.0,0.0,0.0,0.0,0.0,0.0,0.0,0.0,0.0,0.0,0.0,0.0,0.0,0.0,0.0,0.0,0.0,0.0,0.0,0.0,0.0,0.0,0.0,0.0,0.0,0.0,6.5751,6.5286,6.5286,6.5925,6.5802,6.4996,0.0,0.0,0.0,0.0,0.0,0.0,0.0,0.0,0.0,0.0,0.0,0.0,0.0,0.0,0.0,0.0,0.0,0.0,0.0,0.0,0.0,0.0,0.0,0.0,0.0,0.0,0.0,0.0,0.0,0.0,0.0,0.0,0.0,0.0,0.0,0.0,0.0,0.0,0.0,0.0,0.0,0.0,0.0,0.0,0.0,0.0,0.0,0.0,0.0,0.0,0.0,0.0,0.0,0.0,0.0,0.0,0.0,0.0,0.0,0.0,0.0,0.0,0.0,0.0,0.0,0.0,0.0,0.0,0.0,0.0,0.0,0.0,0.0,0.0,0.0,0.0,0.0,0.0,0.0,0.0,0.0,0.0,0.0,0.0,0.0,0.0,0.0,0.0,0.0,0.0,0.0,0.0,0.0,0.0,0.0,0.0,0.0,0.0,0.0,0.0,0.0,0.0,0.0,0.0,0.0,0.0,0.0,0.0,0.0,6.4584,6.4502,6.5083,6.6418,6.4967,6.4154,0.0,0.0,0.0,0.0,0.0,0.0,0.0,0.0,0.0,0.0,0.0,0.0,0.0,0.0,0.0,0.0,0.0,0.0,0.0,0.0,0.0,0.0,0.0,0.0,0.0,0.0,0.0,0.0,0.0,0.0,0.0,0.0,0.0,0.0,0.0,0.0,0.0,0.0,0.0,0.0,0.0,0.0,0.0,0.0,0.0,0.0,0.0,0.0,0.0,0.0,0.0,0.0,0.0,0.0,0.0,0.0,0.0,0.0,0.0,0.0,0.0,0.0,0.0,0.0,0.0,0.0,0.0,0.0,0.0,0.0,0.0,0.0,0.0,0.0,0.0,0.0,0.0,0.0,0.0,0.0,0.0,0.0,0.0,0.0,0.0,0.0,0.0,0.0,0.0,0.0,0.0,0.0,0.0,0.0,0.0,0.0,0.0,0.0,0.0,0.0,0.0,0.0,0.0,0.0,0.0,0.0,0.0,0.0,0.0,6.4555,0.0,6.5373,6.6157,6.4619,6.3719,0.0,0.0,0.0,0.0,0.0,0.0,0.0,0.0,0.0,0.0,0.0,0.0,0.0,0.0,0.0,0.0,0.0,0.0,0.0,0.0,0.0,0.0,0.0,0.0,0.0,0.0,0.0,0.0,0.0,0.0,0.0,0.0,0.0,0.0,0.0,0.0,0.0,0.0,0.0,0.0,0.0,0.0,0.0,0.0,0.0,0.0,0.0,0.0,0.0,0.0,0.0,0.0,0.0,0.0,0.0,0.0,0.0,0.0,0.0,0.0,0.0,0.0,0.0,0.0,0.0,0.0,0.0,0.0,0.0,0.0,0.0,0.0,0.0,0.0,0.0,0.0,0.0,0.0,0.0,0.0,0.0,0.0,0.0,0.0,0.0,0.0,0.0,0.0,0.0,0.0,0.0,0.0,0.0,0.0,0.0,0.0,0.0,0.0,0.0,0.0,0.0,0.0,0.0,0.0,0.0,0.0,0.0,0.0,6.4038,6.5809,6.6476,6.6244,6.5083,6.4996,6.3806,0.0,0.0,0.0,0.0,0.0,0.0,0.0,0.0,0.0,0.0,0.0,0.0,0.0,0.0,0.0,0.0,0.0,0.0,0.0,0.0,0.0,0.0,0.0,0.0,0.0,0.0,0.0,0.0,0.0,0.0,0.0,0.0,0.0,0.0,0.0,0.0,0.0,0.0,0.0,0.0,0.0,0.0,0.0,0.0,0.0,0.0,0.0,0.0,0.0,0.0,0.0,0.0,0.0,0.0,0.0,0.0,0.0,0.0,0.0,0.0,0.0,0.0,0.0,0.0,0.0,0.0,0.0,0.0,0.0,0.0,0.0,0.0,0.0,0.0,0.0,0.0,0.0,0.0,0.0,0.0,0.0,0.0,0.0,0.0,0.0,0.0,0.0,0.0,0.0,0.0,0.0,0.0,0.0,0.0,0.0,0.0,0.0,0.0,0.0,0.0,0.0,0.0,0.0,0.0,0.0,0.0,0.0,0.0,0.0,6.4648,6.5693,6.6476,6.6883,6.5257,6.459,0.0,0.0,0.0,0.0,0.0,0.0,0.0,0.0,0.0,0.0,0.0,0.0,0.0,0.0,0.0,0.0,0.0,0.0,0.0,0.0,0.0,0.0,0.0,0.0,0.0,0.0,0.0,0.0,0.0,0.0,0.0,0.0,0.0,0.0,0.0,0.0,0.0,0.0,0.0,0.0,0.0,0.0,0.0,0.0,0.0,0.0,0.0,0.0,0.0,0.0,0.0,0.0,0.0,0.0,0.0,0.0,0.0,0.0,0.0,0.0,0.0,0.0,0.0,0.0,0.0,0.0,0.0,0.0,0.0,0.0,0.0,0.0,0.0,0.0,0.0,0.0,0.0,0.0,0.0,0.0,0.0,0.0,0.0,0.0,0.0,0.0,0.0,0.0,0.0,0.0,0.0,0.0,0.0,0.0,0.0,0.0,0.0,0.0,0.0,0.0,0.0,0.0,0.0,0.0,0.0,0.0,0.0,0.0,0.0,6.6244,6.6941,6.7522,6.787,6.6302,6.5577,6.5751,0.0,0.0,0.0,0.0,0.0,0.0,0.0,0.0,0.0,0.0,0.0,0.0,0.0,0.0,0.0,0.0,0.0,0.0,0.0,0.0,0.0,0.0,0.0,0.0,0.0,0.0,0.0,0.0,0.0,0.0,0.0,0.0,0.0,0.0,0.0,0.0,0.0,0.0,0.0,0.0,0.0,0.0,0.0,0.0,0.0,0.0,0.0,0.0,0.0,0.0,0.0,0.0,0.0,0.0,0.0,0.0,0.0,0.0,0.0,0.0,0.0,0.0,0.0,0.0,0.0,0.0,0.0,0.0,0.0,0.0,0.0,0.0,0.0,0.0,0.0,0.0,0.0,0.0,0.0,0.0,0.0,0.0,0.0,0.0,0.0,0.0,0.0,0.0,0.0,0.0,0.0,0.0,0.0,0.0,0.0,0.0,0.0,0.0,0.0,0.0,0.0,0.0,0.0,0.0,0.0,0.0,0.0,0.0,6.9815,6.9931,6.9408,6.8247,6.8044,6.6825,0.0,0.0,0.0,0.0,0.0,0.0,0.0,0.0,0.0,0.0,0.0,0.0,0.0,0.0,0.0,0.0,0.0,0.0,0.0,0.0,0.0,0.0,0.0,0.0,0.0,0.0,0.0,0.0,0.0,0.0,0.0,0.0,0.0,0.0,0.0,0.0,0.0,0.0,0.0,0.0,0.0,0.0,0.0,0.0,0.0,0.0,0.0,0.0,0.0,0.0,0.0,0.0,0.0,0.0,0.0,0.0,0.0,0.0,0.0,0.0,0.0,0.0,0.0,0.0,0.0,0.0,0.0,0.0,0.0,0.0,0.0,0.0,0.0,0.0,0.0,0.0,0.0,0.0,0.0,0.0,0.0,0.0,0.0,0.0,0.0,0.0,0.0,0.0,0.0,0.0,0.0,0.0,0.0,0.0,0.0,0.0,0.0,0.0,0.0,0.0,0.0,0.0,0.0,0.0,0.0,0.0,0.0,0.0,0.0,7.0453,7.1847,7.2224,7.1382,7.0018,6.8741,0.0,0.0,0.0,0.0,0.0,0.0,0.0,0.0,0.0,0.0,0.0,0.0,0.0,0.0,0.0,0.0,0.0,0.0,0.0,0.0,0.0,0.0,0.0,0.0,0.0,0.0,0.0,0.0,0.0,0.0,0.0,0.0,0.0,0.0,0.0,0.0,0.0,0.0,0.0,0.0,0.0,0.0,0.0,0.0,0.0,0.0,0.0,0.0,0.0,0.0,0.0,0.0,0.0,0.0,0.0,0.0,0.0,0.0,0.0,0.0,0.0,0.0,0.0,0.0,0.0,0.0,0.0,0.0,0.0,0.0,0.0,0.0,0.0,0.0,0.0,0.0,0.0,0.0,0.0,0.0,0.0,0.0,0.0,0.0,0.0,0.0,0.0,0.0,0.0,0.0,0.0,0.0,0.0,0.0,0.0,0.0,0.0,0.0,0.0,0.0,0.0,0.0,0.0,0.0,0.0,0.0,0.0,0.0,7.0512,7.2282,7.3676,7.4227,7.3821,7.2253,7.0715,0.0,0.0,0.0,0.0,0.0,0.0,0.0,0.0,0.0,0.0,0.0,0.0,0.0,0.0,0.0,0.0,0.0,0.0,0.0,0.0,0.0,0.0,0.0,0.0,0.0,0.0,0.0,0.0,0.0,0.0,0.0,0.0,0.0,0.0,0.0,0.0,0.0,0.0,0.0,0.0,0.0,0.0,0.0,0.0,0.0,0.0,0.0,0.0,0.0,0.0,0.0,0.0,0.0,0.0,0.0,0.0,0.0,0.0,0.0,0.0,0.0,0.0,0.0,0.0,0.0,0.0,0.0,0.0,0.0,0.0,0.0,0.0,0.0,0.0,0.0,0.0,0.0,0.0,0.0,0.0,0.0,0.0,0.0,0.0,0.0,0.0,0.0,0.0,0.0,0.0,0.0,0.0,0.0,0.0,0.0,0.0,0.0,0.0,0.0,0.0,0.0,0.0,0.0,0.0,0.0,0.0,0.0,0.0,7.2166,7.4459,7.5359,7.5824,7.5766,7.4372,7.2456,0.0,0.0,0.0,0.0,0.0,0.0,0.0,0.0,0.0,0.0,0.0,0.0,0.0,0.0,0.0,0.0,0.0,0.0,0.0,0.0,0.0,0.0,0.0,0.0,0.0,0.0,0.0,0.0,0.0,0.0,0.0,0.0,0.0,0.0,0.0,0.0,0.0,0.0,0.0,0.0,0.0,0.0,0.0,0.0,0.0,0.0,0.0,0.0,0.0,0.0,0.0,0.0,0.0,0.0,0.0,0.0,0.0,0.0,0.0,0.0,0.0,0.0,0.0,0.0,0.0,0.0,0.0,0.0,0.0,0.0,0.0,0.0,0.0,0.0,0.0,0.0,0.0,0.0,0.0,0.0,0.0,0.0,0.0,0.0,0.0,0.0,0.0,0.0,0.0,0.0,0.0,0.0,0.0,0.0,0.0,0.0,0.0,0.0,0.0,0.0,0.0,0.0,0.0,0.0,0.0,0.0,0.0,0.0,7.3501,7.4518,7.6666,7.7769,7.7769,7.5069,7.266,0.0,0.0,0.0,0.0,0.0,0.0,0.0,0.0,0.0,0.0,0.0,0.0,0.0,0.0,0.0,0.0,0.0,0.0,0.0,0.0,0.0,0.0,0.0,0.0,0.0,0.0,0.0,0.0,0.0,0.0,0.0,0.0,0.0,0.0,0.0,0.0,0.0,0.0,0.0,0.0,0.0,0.0,0.0,0.0,0.0,0.0,0.0,0.0,6.0351,0.0,0.0,0.0,0.0,0.0,0.0,0.0,0.0,0.0,0.0,0.0,0.0,0.0,0.0,0.0,0.0,0.0,0.0,0.0,0.0,0.0,0.0,0.0,0.0,0.0,0.0,0.0,0.0,0.0,0.0,0.0,0.0,0.0,0.0,0.0,0.0,0.0,0.0,0.0,0.0,0.0,0.0,0.0,0.0,0.0,0.0,0.0,0.0,0.0,0.0,0.0,0.0,0.0,0.0,0.0,0.0,0.0,0.0,0.0,7.4953,7.5882,7.7537,7.8407,7.832,7.6664,7.4749,0.0,0.0,0.0,0.0,0.0,0.0,0.0,0.0,0.0,0.0,0.0,0.0,0.0,0.0,0.0,0.0,0.0,0.0,0.0,0.0,0.0,0.0,0.0,0.0,0.0,0.0,0.0,0.0,0.0,0.0,0.0,0.0,0.0,0.0,0.0,0.0,0.0,0.0,0.0,0.0,0.0,0.0,0.0,0.0,0.0,0.0,0.0,0.0,0.0,0.0,0.0,0.0,0.0,0.0,0.0,0.0,0.0,0.0,0.0,0.0,0.0,0.0,0.0,0.0,0.0,0.0,0.0,0.0,0.0,0.0,0.0,0.0,0.0,0.0,0.0,0.0,0.0,0.0,0.0,0.0,0.0,0.0,0.0,0.0,0.0,0.0,0.0,0.0,0.0,0.0,0.0,0.0,0.0,0.0,0.0,0.0,0.0,0.0,0.0,0.0,0.0,0.0,0.0,0.0,0.0,0.0,0.0,7.4488,7.6317,7.7653,7.859,7.9035,7.8831,7.8908,7.775,7.5246,0.0,0.0,0.0,0.0,0.0,0.0,0.0,0.0,0.0,0.0,0.0,0.0,0.0,0.0,0.0,0.0,0.0,0.0,0.0,0.0,0.0,0.0,0.0,0.0,0.0,0.0,0.0,0.0,0.0,0.0,0.0,0.0,0.0,0.0,0.0,0.0,0.0,0.0,6.1863,6.3129,0.0,0.0,0.0,0.0,0.0,0.0,0.0,0.0,6.1399,0.0,0.0,0.0,0.0,0.0,0.0,0.0,0.0,0.0,0.0,0.0,0.0,0.0,0.0,0.0,0.0,0.0,0.0,0.0,0.0,0.0,0.0,0.0,0.0,0.0,0.0,0.0,0.0,0.0,0.0,0.0,0.0,0.0,0.0,0.0,0.0,0.0,0.0,0.0,0.0,0.0,0.0,0.0,0.0,0.0,0.0,0.0,0.0,0.0,0.0,0.0,0.0,0.0,0.0,0.0,0.0,7.4808,7.5824,7.7188,7.8959,8.1135,8.1657,8.0639,8.1644,8.0943,7.8127,0.0,0.0,0.0,0.0,0.0,0.0,0.0,0.0,0.0,0.0,0.0,0.0,0.0,0.0,0.0,0.0,0.0,0.0,0.0,0.0,0.0,0.0,0.0,0.0,0.0,0.0,0.0,0.0,0.0,0.0,0.0,0.0,0.0,0.0,0.0,0.0,0.0,0.0,0.0,6.5639,6.5588,0.0,0.0,0.0,0.0,0.0,0.0,0.0,0.0,6.2138,0.0,0.0,0.0,0.0,0.0,0.0,0.0,0.0,0.0,0.0,0.0,0.0,0.0,0.0,0.0,0.0,0.0,0.0,0.0,0.0,0.0,0.0,0.0,0.0,0.0,0.0,0.0,0.0,0.0,0.0,0.0,0.0,0.0,0.0,0.0,0.0,0.0,0.0,0.0,0.0,0.0,0.0,0.0,0.0,0.0,0.0,0.0,0.0,0.0,0.0,0.0,0.0,0.0,0.0,0.0,7.3937,7.693,7.8842,7.9783,8.2167,8.2951,8.196,8.2113,8.0963,0.0,0.0,0.0,0.0,0.0,0.0,0.0,0.0,0.0,0.0,0.0,0.0,0.0,0.0,0.0,0.0,0.0,0.0,0.0,0.0,0.0,0.0,0.0,0.0,0.0,0.0,0.0,0.0,0.0,0.0,0.0,0.0,0.0,0.0,0.0,0.0,0.0,0.0,0.0,0.0,6.6853,6.701,6.6848,0.0,0.0,0.0,0.0,0.0,0.0,6.3342,6.302,0.0,0.0,0.0,0.0,0.0,0.0,0.0,0.0,0.0,0.0,0.0,0.0,0.0,0.0,0.0,0.0,0.0,0.0,0.0,0.0,0.0,0.0,0.0,0.0,0.0,0.0,0.0,0.0,0.0,0.0,0.0,0.0,0.0,0.0,0.0,0.0,0.0,0.0,0.0,0.0,0.0,0.0,0.0,0.0,0.0,0.0,0.0,0.0,0.0,0.0,0.0,0.0,0.0,0.0,0.0,7.2934,7.7505,7.9946,8.0049,8.2513,8.3391,8.2596,8.2273,8.0873,0.0,0.0,0.0,0.0,0.0,0.0,0.0,0.0,0.0,0.0,0.0,0.0,0.0,0.0,0.0,0.0,0.0,0.0,0.0,0.0,0.0,0.0,0.0,0.0,0.0,0.0,0.0,0.0,0.0,0.0,0.0,0.0,0.0,0.0,0.0,0.0,0.0,0.0,0.0,0.0,0.0,6.8614,6.8401,6.7516,0.0,0.0,0.0,0.0,6.5668,6.5433,0.0,0.0,0.0,0.0,0.0,0.0,0.0,0.0,0.0,0.0,0.0,0.0,0.0,0.0,0.0,0.0,0.0,0.0,0.0,0.0,0.0,0.0,0.0,0.0,0.0,0.0,0.0,0.0,0.0,0.0,0.0,0.0,0.0,0.0,0.0,0.0,0.0,0.0,0.0,0.0,0.0,0.0,0.0,0.0,0.0,0.0,0.0,0.0,0.0,0.0,0.0,0.0,0.0,0.0,0.0,0.0,7.3545,7.7269,7.9174,7.9325,8.2215,8.3039,8.1644,8.3139,8.2629,0.0,0.0,0.0,0.0,0.0,0.0,0.0,0.0,0.0,0.0,0.0,0.0,0.0,0.0,0.0,0.0,0.0,0.0,0.0,0.0,0.0,0.0,0.0,0.0,0.0,0.0,0.0,0.0,0.0,0.0,0.0,0.0,0.0,0.0,0.0,0.0,0.0,0.0,0.0,0.0,0.0,7.0681,6.9788,6.9582,6.9227,0.0,0.0,6.8673,6.9643,7.0183,0.0,0.0,0.0,0.0,0.0,0.0,0.0,0.0,0.0,0.0,0.0,0.0,0.0,0.0,0.0,0.0,0.0,0.0,0.0,0.0,0.0,0.0,0.0,0.0,0.0,0.0,0.0,0.0,0.0,0.0,0.0,0.0,0.0,0.0,0.0,0.0,0.0,0.0,0.0,0.0,0.0,0.0,0.0,0.0,0.0,0.0,0.0,0.0,0.0,0.0,0.0,0.0,0.0,0.0,0.0,7.237,7.4074,7.902,8.1429,8.1141,8.3828,8.4544,8.3102,8.3094,8.1976,0.0,0.0,0.0,0.0,0.0,0.0,0.0,0.0,0.0,0.0,0.0,0.0,0.0,0.0,0.0,0.0,0.0,0.0,0.0,0.0,0.0,0.0,0.0,0.0,0.0,0.0,0.0,0.0,0.0,0.0,0.0,0.0,0.0,0.0,0.0,0.0,0.0,0.0,0.0,0.0,0.0,0.0,7.1057,7.1221,0.0,0.0,0.0,7.0621,7.1436,0.0,0.0,0.0,0.0,0.0,0.0,0.0,0.0,0.0,0.0,0.0,0.0,0.0,0.0,0.0,0.0,0.0,0.0,0.0,0.0,0.0,0.0,0.0,0.0,0.0,0.0,0.0,0.0,0.0,0.0,0.0,0.0,0.0,0.0,0.0,0.0,0.0,0.0,0.0,0.0,0.0,0.0,0.0,0.0,0.0,0.0,0.0,0.0,0.0,0.0,0.0,0.0,0.0,0.0,0.0,0.0,0.0,7.4634,8.0531,8.3263,8.266,8.4782,8.5333,8.4046,8.3016,0.0,0.0,0.0,0.0,0.0,0.0,0.0,0.0,0.0,0.0,0.0,0.0,0.0,0.0,0.0,0.0,0.0,0.0,0.0,0.0,0.0,0.0,0.0,0.0,0.0,0.0,0.0,6.0266,0.0,0.0,0.0,0.0,0.0,0.0,0.0,0.0,0.0,0.0,0.0,0.0,0.0,0.0,7.154,7.2156,7.2768,7.3049,0.0,0.0,7.2662,7.3385,7.3325,7.2499,0.0,0.0,0.0,0.0,0.0,0.0,0.0,0.0,0.0,0.0,0.0,0.0,0.0,0.0,0.0,0.0,0.0,0.0,0.0,0.0,0.0,0.0,0.0,0.0,0.0,0.0,0.0,0.0,0.0,0.0,0.0,0.0,0.0,0.0,0.0,0.0,0.0,0.0,0.0,0.0,0.0,0.0,0.0,0.0,0.0,0.0,0.0,0.0,0.0,0.0,0.0,0.0,0.0,0.0,7.4432,7.5488,8.0776,8.3199,8.2602,8.3918,8.4233,8.3338,8.3192,8.1881,0.0,0.0,0.0,0.0,0.0,0.0,0.0,0.0,0.0,0.0,0.0,0.0,0.0,0.0,0.0,0.0,0.0,0.0,0.0,0.0,0.0,0.0,0.0,0.0,0.0,0.0,0.0,0.0,0.0,0.0,0.0,0.0,0.0,0.0,0.0,0.0,0.0,0.0,0.0,0.0,0.0,7.2535,7.3198,7.4357,7.5438,0.0,7.5627,7.5378,7.6315,7.7461,7.6634,7.1571,0.0,0.0,0.0,0.0,0.0,0.0,0.0,0.0,0.0,0.0,0.0,0.0,0.0,0.0,0.0,0.0,0.0,0.0,0.0,0.0,0.0,0.0,0.0,0.0,0.0,0.0,0.0,0.0,0.0,0.0,0.0,0.0,0.0,0.0,0.0,0.0,0.0,0.0,0.0,0.0,0.0,0.0,0.0,0.0,0.0,0.0,0.0,0.0,0.0,0.0,0.0,0.0,0.0,7.4861,7.6486,8.1845,8.4444,8.4269,8.5202,8.5096,8.388,8.3865,8.2387,0.0,0.0,0.0,0.0,0.0,0.0,0.0,0.0,0.0,0.0,0.0,0.0,0.0,0.0,0.0,0.0,0.0,0.0,0.0,0.0,0.0,0.0,0.0,0.0,0.0,0.0,0.0,0.0,6.4279,6.4217,6.3898,0.0,0.0,0.0,0.0,0.0,0.0,0.0,0.0,0.0,0.0,7.3504,7.4782,7.5677,0.0,0.0,7.6464,7.6553,7.7322,7.6814,7.5557,7.3133,7.1147,0.0,0.0,0.0,0.0,0.0,0.0,0.0,0.0,0.0,0.0,0.0,0.0,0.0,0.0,0.0,0.0,0.0,0.0,0.0,0.0,0.0,0.0,0.0,0.0,0.0,0.0,0.0,0.0,0.0,0.0,0.0,0.0,0.0,0.0,0.0,0.0,0.0,0.0,0.0,0.0,0.0,0.0,0.0,0.0,0.0,0.0,0.0,0.0,0.0,0.0,0.0,0.0,7.5256,7.7539,8.2656,8.5326,8.5326,8.5989,8.5705,8.4346,8.4062,8.2513,0.0,0.0,0.0,0.0,0.0,0.0,0.0,0.0,0.0,0.0,0.0,0.0,0.0,0.0,0.0,0.0,0.0,0.0,0.0,0.0,0.0,0.0,0.0,0.0,0.0,0.0,0.0,0.0,6.5683,6.511,6.4226,0.0,0.0,0.0,0.0,0.0,0.0,0.0,0.0,0.0,0.0,7.4713,7.6205,7.6844,7.7203,7.7382,7.7083,7.7053,7.7711,7.6664,7.5318,7.4091,0.0,0.0,0.0,0.0,0.0,0.0,0.0,0.0,0.0,0.0,0.0,0.0,0.0,0.0,0.0,0.0,0.0,0.0,0.0,0.0,0.0,0.0,0.0,0.0,0.0,0.0,0.0,6.6825,0.0,0.0,6.5896,0.0,0.0,0.0,0.0,0.0,0.0,0.0,0.0,0.0,0.0,0.0,0.0,0.0,0.0,0.0,0.0,0.0,0.0,0.0,0.0,0.0,0.0,7.5583,7.8564,8.296,8.5294,8.5326,8.5989,8.5673,8.4315,8.3619,8.226,8.0111,0.0,0.0,0.0,0.0,0.0,0.0,0.0,0.0,0.0,0.0,0.0,0.0,0.0,0.0,0.0,0.0,0.0,0.0,0.0,0.0,0.0,0.0,0.0,0.0,0.0,0.0,6.586,6.5708,6.4898,0.0,0.0,0.0,0.0,0.0,0.0,0.0,0.0,0.0,0.0,7.4394,7.6305,7.7562,7.7801,7.8011,7.8609,7.7652,7.7083,7.7741,7.7741,7.6874,0.0,0.0,0.0,0.0,0.0,0.0,0.0,0.0,0.0,0.0,0.0,0.0,0.0,0.0,0.0,0.0,0.0,0.0,0.0,0.0,0.0,0.0,0.0,0.0,0.0,0.0,0.0,6.8944,6.8131,0.0,0.0,0.0,0.0,0.0,0.0,0.0,0.0,0.0,0.0,0.0,7.413,7.4916,0.0,0.0,0.0,0.0,0.0,0.0,0.0,0.0,0.0,0.0,0.0,0.0,7.5583,7.8661,8.2587,8.4852,8.5294,8.5547,8.5231,8.4315,8.4062,8.2513,7.9543,0.0,0.0,0.0,0.0,0.0,0.0,0.0,0.0,0.0,0.0,0.0,0.0,0.0,0.0,0.0,0.0,0.0,0.0,0.0,0.0,0.0,0.0,0.0,0.0,0.0,6.5509,0.0,0.0,0.0,0.0,0.0,0.0,0.0,0.0,0.0,0.0,0.0,7.2075,7.3797,7.5488,7.6993,7.828,7.846,7.8549,0.0,0.0,0.0,0.0,0.0,0.0,0.0,0.0,0.0,0.0,0.0,0.0,0.0,0.0,7.3103,6.9632,6.8615,6.8405,6.8615,0.0,0.0,0.0,0.0,0.0,0.0,0.0,0.0,0.0,0.0,0.0,0.0,0.0,0.0,7.0395,6.9757,6.8915,0.0,0.0,0.0,0.0,0.0,0.0,0.0,0.0,7.4518,7.5972,7.7233,7.8026,7.8195,0.0,7.7181,7.5062,0.0,0.0,0.0,0.0,0.0,0.0,0.0,0.0,7.6348,7.9117,8.2531,8.4378,8.4599,8.482,8.4631,8.3935,8.3682,8.2387,7.9922,7.8689,7.7109,0.0,0.0,0.0,0.0,0.0,0.0,0.0,0.0,0.0,0.0,0.0,0.0,0.0,0.0,0.0,0.0,0.0,0.0,0.0,0.0,0.0,0.0,0.0,6.7516,0.0,0.0,0.0,0.0,0.0,0.0,0.0,0.0,0.0,7.0623,7.238,7.4176,7.5707,7.6814,7.7831,7.8669,0.0,0.0,0.0,0.0,0.0,0.0,0.0,7.7322,7.7472,7.6305,7.5288,7.5258,7.5976,7.6425,7.5976,0.0,0.0,7.2385,7.1368,7.1128,7.1338,7.1038,7.1098,7.2385,7.2116,7.1876,0.0,0.0,0.0,0.0,7.1702,0.0,0.0,0.0,7.1469,7.1295,0.0,7.0424,0.0,0.0,0.0,0.0,7.0569,7.2613,0.0,0.0,7.7927,7.9117,7.9676,8.0728,8.1279,8.1344,8.1848,8.0639,7.7639,7.3439,0.0,0.0,0.0,0.0,0.0,0.0,7.7743,8.0111,8.2829,8.3904,8.3303,8.3904,8.3904,8.3272,8.2608,8.1913,8.1249,8.0522,7.9195,7.7172,7.6414,0.0,0.0,0.0,0.0,0.0,0.0,0.0,0.0,0.0,0.0,0.0,0.0,0.0,0.0,0.0,0.0,0.0,0.0,0.0,0.0,7.0636,0.0,0.0,0.0,0.0,0.0,0.0,0.0,0.0,0.0,0.0,7.3193,7.4749,7.6425,7.7622,0.0,0.0,0.0,0.0,7.9088,7.9746,7.9297,7.9088,7.9746,7.9806,7.9567,7.8968,0.0,0.0,7.81,7.8968,7.9357,7.813,7.7951,7.7711,7.7023,7.5677,7.5048,7.5587,7.4689,7.448,7.5557,7.5258,7.5048,7.5853,0.0,0.0,0.0,0.0,7.3501,7.4082,7.4692,7.4779,7.4401,7.3647,7.2369,0.0,0.0,0.0,0.0,0.0,0.0,7.5976,7.8018,7.908,8.0593,8.2403,8.2709,8.3354,8.4125,8.3303,8.2477,8.1522,7.8845,7.5366,7.1389,0.0,0.0,0.0,0.0,7.8495,8.0837,8.264,8.343,8.3208,8.343,8.343,8.3208,8.3019,8.2608,8.1944,8.1692,8.0838,7.9258,7.8057,0.0,0.0,0.0,0.0,0.0,0.0,0.0,0.0,0.0,0.0,0.0,0.0,0.0,0.0,0.0,0.0,0.0,0.0,0.0,7.1933,7.1164,7.0649,0.0,0.0,0.0,0.0,0.0,0.0,0.0,0.0,0.0,7.6305,7.6904,7.7412,0.0,0.0,7.9537,7.9537,7.9926,8.0315,8.0494,8.0345,0.0,8.0464,8.0135,7.9926,8.0165,8.0405,8.0375,8.0016,8.0255,8.0405,7.9986,7.9926,7.9866,7.9597,7.7801,7.6485,7.6485,7.6245,7.6275,7.7023,7.7083,7.7023,7.8582,7.7014,7.4982,7.4518,7.5156,7.5504,7.6027,7.6666,7.6782,7.6404,7.5621,7.4605,7.3443,7.2166,7.1319,0.0,0.0,0.0,7.7996,8.0356,8.0538,8.1937,8.4106,8.379,8.4137,8.5195,8.4157,8.3651,8.3619,8.2102,7.9411,7.5768,0.0,0.0,7.6177,7.8054,7.985,8.1597,8.2671,8.3208,8.3208,8.3208,8.3208,8.3208,8.3208,8.3019,8.2608,8.2608,8.2071,8.0965,7.9606,7.8089,0.0,0.0,0.0,0.0,0.0,0.0,0.0,0.0,0.0,0.0,0.0,7.1945,6.9064,0.0,0.0,0.0,7.3011,7.4422,7.5007,7.3813,0.0,0.0,0.0,0.0,0.0,0.0,0.0,7.4262,7.6215,7.7741,7.8489,7.8819,7.8998,7.8998,7.9686,8.0195,8.0195,0.0,8.0883,8.1153,8.1183,8.1272,8.1542,8.1242,8.1123,8.1512,8.1572,8.1572,8.1572,8.1572,8.1572,8.1572,8.1362,8.1183,8.1212,7.9627,7.828,7.8071,7.7801,7.7741,7.813,7.819,7.819,8.1281,8.102,7.8117,7.7159,7.7566,7.7566,7.7885,7.8349,7.7798,7.7537,7.742,7.6811,7.5853,7.4634,7.4445,0.0,7.6427,7.8178,8.0193,8.2443,8.2245,8.3252,8.5181,8.4186,8.4293,8.5321,8.4627,8.4279,8.422,8.3556,8.2576,8.1376,8.008,7.9225,7.8919,8.0419,8.1628,8.226,8.2892,8.3208,8.3208,8.3208,8.3208,8.3208,8.3208,8.3208,8.3208,8.3208,8.2924,8.226,8.0933,7.929,7.7299,0.0,0.0,0.0,0.0,0.0,0.0,0.0,0.0,0.0,0.0,0.0,0.0,0.0,0.0,0.0,7.6489,0.0,7.8789,7.7644,0.0,0.0,0.0,7.3057,7.421,7.5101,7.5984,7.6923,0.0,0.0,7.9986,8.0554,8.0943,8.0973,8.0913,8.0883,8.0883,8.0943,8.1153,8.1781,8.1871,8.208,8.2605,8.2619,8.2589,8.2619,8.2769,8.2679,8.2679,8.2679,8.2739,8.2679,8.226,8.1871,8.1871,8.1242,8.0674,8.0045,7.9357,7.8849,7.8878,7.8789,7.8729,8.1949,8.1891,8.1136,8.0062,7.8872,7.8843,7.8669,7.8436,7.8727,7.8582,7.8117,7.7478,7.6753,7.5998,7.6002,7.6593,7.7836,7.9592,8.0963,8.2061,8.4256,8.5369,8.5485,8.5273,8.5307,8.5573,8.43,8.3707,8.3817,8.3423,8.305,8.2734,8.2418,8.1688,8.0643,8.1467,8.2292,8.2987,8.3145,8.3208,8.3208,8.3208,8.3208,8.3208,8.3208,8.3208,8.3208,8.3208,8.3145,8.2956,8.166,8.0459,7.9385,7.692,0.0,0.0,0.0,0.0,0.0,0.0,0.0,0.0,0.0,7.3987,7.0457,0.0,7.5239,0.0,7.7653,7.965,8.0906,7.8698,0.0,0.0,7.6733,7.5378,7.7442,7.782,7.8268,7.9028,8.0405,8.1302,8.1332,8.1871,8.229,8.229,8.1871,8.1542,8.1542,8.1991,8.235,8.2469,8.2575,8.2589,8.2709,8.2769,8.2769,8.2769,8.2769,8.2769,8.2769,8.2769,8.2769,8.2769,8.2724,8.2529,8.2499,8.1991,8.1542,8.1272,8.0405,7.9567,7.9567,7.9178,7.8819,8.3023,8.3023,8.2762,8.1833,8.0556,8.0265,7.9946,7.9656,7.9714,7.9394,7.8756,7.8117,7.7653,7.7333,7.7532,7.798,7.877,8.0508,8.1533,8.2018,8.3733,8.4577,8.477,8.4494,8.4516,8.4776,8.396,8.3551,8.3479,8.3157,8.2811,8.2446,8.2759,8.254,8.1917,8.2345,8.2829,8.3208,8.3208,8.3208,8.3208,8.3208,8.3208,8.3208,8.3208,8.3082,8.2766,8.2766,8.2608,8.2324,8.1281,8.0396,7.9669,7.7615,7.594,0.0,0.0,0.0,0.0,0.0,0.0,0.0,0.0,0.0,0.0,0.0,7.6953,7.7446,7.9639,8.1546,8.2683,8.0752,7.9886,8.1233,7.8963,7.7826,7.9148,7.9776,8.0285,8.0644,8.1601,8.223,8.223,8.2529,8.2769,8.2769,8.2439,8.223,8.223,8.2529,8.2769,8.2769,8.2769,8.2769,8.2769,8.2769,8.2769,8.2769,8.2769,8.2769,8.2769,8.2769,8.2769,8.2769,8.2769,8.2769,8.2739,8.2499,8.223,8.208,8.1422,8.0674,8.0315,7.9956,7.9686,8.4097,8.4039,8.3546,8.2965,8.2384,8.163,8.1223,8.1049,8.0527,7.9975,7.9394,7.8872,7.864,7.864,7.8937,7.9094,7.9356,8.0893,8.1719,8.1951,8.2193,8.2845,8.3664,8.3088,8.29,8.311,8.3286,8.3139,8.2834,8.2546,8.2161,8.1608,8.2096,8.2474,8.2513,8.2807,8.3161,8.3493,8.3294,8.3329,8.3493,8.336,8.3231,8.33,8.3272,8.2892,8.2229,8.2166,8.1913,8.1344,8.0617,7.9985,7.9385,7.7931,7.6793,0.0,7.4897,0.0,0.0,0.0,0.0,0.0,0.0,0.0,0.0,7.7861,7.8917,8.0051,8.2099,8.3565,8.4188,8.3126,8.2416,8.2249,8.0932,8.0085,8.0075,8.1093,8.1811,8.1901,8.2409,8.2769,8.2814,8.2828,8.2888,8.2948,8.3038,8.3098,8.3008,8.2978,8.2978,8.2978,8.3008,8.3158,8.3128,8.3098,8.3068,8.3068,8.3098,8.3054,8.2948,8.2918,8.2888,8.2874,8.2769,8.2769,8.2769,8.2739,8.2739,8.2709,8.223,8.1661,8.1093,8.0794,8.0823,8.4097,8.4068,8.3981,8.3836,8.3633,8.25,8.1426,8.0468,8.0352,8.0236,8.012,8.0004,7.9946,7.9917,7.9443,7.9269,7.9385,8.0635,8.1225,8.1344,8.2785,8.3321,8.31,8.2905,8.2122,8.1081,8.1248,8.1197,8.0872,8.1075,8.1359,8.1766,8.1846,8.1979,8.1979,0.0,0.0,0.0,8.3969,8.39,8.4848,8.3969,8.365,8.4027,8.3524,0.0,8.2229,8.2166,8.2134,8.2008,8.1344,0.0,0.0,0.0,0.0,0.0,0.0,0.0,0.0,0.0,0.0,0.0,7.8624,7.8109,7.7824,7.9865,8.1349,8.1631,8.408,8.5462,8.5013,8.5261,8.4892,8.3739,8.2365,8.1512,8.1465,8.1631,8.1991,8.2529,8.2784,8.2769,8.2828,8.3217,8.3547,8.3576,8.3995,8.4325,8.4325,8.3876,8.3756,8.4205,8.4265,8.4295,8.4354,8.4295,8.4205,8.4354,8.4325,8.4115,8.3666,8.3547,8.3337,8.2948,8.2769,8.2798,8.2769,8.2769,8.2798,8.2769,8.2724,8.238,8.1721,8.1183,8.0823,8.4097,8.4097,8.4097,8.3923,0.0,8.2617,8.163,8.0701,8.041,8.0294,8.0294,8.0294,8.0294,8.0294,7.9946,7.9801,7.9772,8.0473,8.0676,8.0782,8.1616,8.1714,8.1136,8.1661,8.1153,7.9738,8.0561,8.0852,8.0518,8.0852,8.1033,8.0955,8.1255,8.1405,8.1479,8.237,8.3163,8.3821,8.403,8.4307,8.4713,8.4513,8.4493,8.4789,8.4125,0.0,0.0,0.0,0.0,0.0,0.0,0.0,0.0,7.9637,0.0,7.9069,7.8753,7.8721,7.9037,7.9069,7.9511,8.0554,8.0649,8.027,7.955,8.1347,8.2843,8.3554,8.5547,8.6788,8.675,8.5953,8.5069,8.4298,8.264,8.152,8.1587,8.2005,8.2529,8.3098,8.3247,8.3337,8.3696,8.3995,8.4205,8.4235,8.4504,8.4863,8.5073,8.4624,8.4354,8.4654,8.4714,8.4714,8.4714,8.4714,8.4714,8.4714,8.4714,8.4564,8.4295,8.4205,8.4115,8.3786,8.3726,8.3636,8.3307,8.3247,8.3128,8.2858,8.2769,8.2754,8.232,8.1991,8.1781,8.4097,8.4097,8.4097,8.3749,8.3139,8.2471,8.1746,8.0991,8.0527,0.0,0.0,8.0294,8.0294,8.0294,8.0294,8.0294,8.0294,8.0294,8.0294,8.0294,8.0294,7.9946,7.9385,8.0483,8.0234,7.902,8.0363,8.0838,8.0467,8.0735,8.0646,8.0225,8.0652,8.0859,8.107,8.2575,8.3005,8.2226,8.3772,8.4574,8.4504,8.5027,8.5406,8.5515,8.482,8.4125,8.343,8.2355,8.1407,8.068,8.0143,8.0017,8.0427,8.0364,8.0554,8.1154,8.1218,8.1249,8.1376,8.147,8.1692,8.1881,8.2418,8.2394,8.1536,8.2612,8.3793,8.4986,8.6438,8.7459,8.769,8.6069,8.4656,8.4206,8.2717,8.1705,8.1641,8.2481,8.3337,8.3786,8.3906,8.4115,8.4594,8.4803,8.4863,8.4893,8.5043,8.5252,8.5671,8.5432,8.5132,8.5192,8.5222,8.5132,8.5073,8.5132,8.5043,8.5162,8.5132,8.5013,8.4923,8.4893,8.4833,8.4624,8.4714,8.4444,8.4025,8.3906,8.3726,8.3217,8.3008,8.2948,8.2918,8.2828,8.2709,8.4097,8.4097,8.4097,8.372,8.3139,8.2471,8.1514,8.0439,8.0323,8.0294,8.0294,8.0294,8.0294,8.0294,8.0294,8.0294,8.0294,8.0294,8.0294,8.0294,8.0294,7.9946,7.9385,8.0483,8.0158,7.8667,7.9719,7.9985,7.9569,7.9521,7.9841,8.0259,8.0356,8.0385,8.0463,8.1349,8.1628,8.1172,8.298,8.4421,8.5419,8.5459,8.5775,8.6142,8.5547,8.4852,8.4157,8.3935,8.3524,8.2829,8.2703,8.2418,8.1913,8.1376,8.1091,8.1186,8.1218,8.1439,8.2039,8.2576,8.3461,8.4599,8.482,8.435,8.3087,8.3628,8.4235,8.4489,8.6237,8.6715,8.533,8.5777,8.524,8.3296,8.3429,8.3535,8.2848,8.3657,8.4337,8.4486,8.4564,8.4594,8.4833,8.5252,8.5551,8.5641,8.591,8.6389,8.6419,8.6479,8.6389,8.6389,8.6389,8.6389,8.624,8.6389,8.6299,8.6389,8.6299,8.609,8.5641,8.5581,8.5402,8.4863,8.4863,8.4743,8.4594,8.4564,8.4474,8.4295,8.3936,8.3606,8.3576,8.3187,8.2798,8.4097,8.4097,8.4097,8.3923,8.3633,8.2994,8.221,8.1339,8.131,8.0933,8.0323,8.0294,8.0294,8.0294,8.0294,8.0294,8.0294,8.0294,8.0294,8.0294,8.0294,7.9946,7.9443,8.0172,8.0026,7.9007,7.9792,8.0084,7.9879,7.983,8.0149,8.0759,8.1136,8.1339,8.1339,8.1708,8.1788,8.1629,8.2886,8.3698,8.4025,8.4436,8.472,8.5019,8.4902,8.4782,8.4469,8.4393,8.4125,8.3809,8.343,8.3082,8.2766,8.2482,8.2292,8.2292,8.2292,8.2608,8.3272,8.3967,8.4631,8.5263,8.5326,8.4771,8.35,8.4599,8.538,8.5524,8.6968,8.732,8.5862,8.5665,8.4904,8.3092,8.2965,8.2771,8.2643,8.3362,8.4209,8.4801,8.4861,8.5167,8.5731,8.603,8.621,8.627,8.6539,8.6689,8.6689,8.6689,8.6689,8.6659,8.6659,8.6659,8.6689,8.6689,8.6689,8.6689,8.6689,8.6539,8.627,8.624,8.609,8.5851,8.5761,8.5611,8.5342,8.5252,8.5103,8.4714,8.4534,8.4265,8.4175,8.3756,8.3217,8.4097,8.4097,8.4097,8.401,8.3836,8.3226,8.2675,8.221,8.2181,8.163,8.0788,8.0585,8.0497,8.0497,8.0352,8.0294,8.0294,8.0294,8.0294,8.0294,8.0294,8.0004,7.9627,8.0062,8.0033,7.9627,8.0062,8.0352,8.0468,8.0497,8.0817,8.1397,8.192,8.2181,8.2181,8.2181,8.2181,8.2204,8.2711,8.3051,8.2975,8.3853,8.4211,8.4029,8.4452,8.469,8.4789,8.4626,8.4546,8.4725,8.3885,8.344,8.3648,8.3416,8.3353,8.3427,8.342,8.3731,8.446,8.5163,8.561,8.5768,8.5768,8.5359,8.4605,8.5433,8.5899,8.583,8.6673,8.7027,8.5632,8.4751,8.3799,8.2589,8.2319,8.2221,8.223,8.3163,8.4159,8.498,8.5149,8.5516,8.6221,8.653,8.65,8.647,8.6609,8.653,8.653,8.653,8.6609,8.6659,8.6689,8.6689,8.6689,8.6689,8.6689,8.6689,8.6689,8.6659,8.6629,8.6659,8.6659,8.6569,8.6599,8.6419,8.6,8.591,8.5731,8.5372,8.5103,8.4893,8.4654,8.4295,8.3756,8.4097,8.4097,8.4097,8.3778,8.3255,8.2617,8.2326,8.2239,8.221,8.2152,8.1978,8.1368,8.1107,8.102,8.0556,8.0323,8.0294,8.0294,8.0294,8.0294,8.0294,8.0265,8.0178,8.0294,8.0265,8.0207,8.0323,8.0672,8.1107,8.1136,8.1455,8.2036,8.2181,8.2239,8.221,8.2239,8.221,8.221,8.2226,8.2778,8.3852,8.4983,8.5319,8.4713,8.4697,8.506,8.5318,8.5194,8.5352,8.6005,8.4707,8.4326,8.4829,8.4088,8.3669,8.4118,8.4148,8.4394,8.5057,8.5868,8.6527,8.7127,8.7159,8.7121,8.6844,8.615,8.4947,8.3981,8.4619,8.474,8.28,8.2557,8.2189,8.1254,8.1955,8.2736,8.2853,8.4222,8.5229,8.5369,8.531,8.5398,8.5619,8.589,8.616,8.616,8.624,8.6211,8.624,8.629,8.637,8.6609,8.6689,8.6689,8.6689,8.6689,8.6689,8.6689,8.6689,8.6689,8.6689,8.6689,8.6689,8.6689,8.6689,8.6599,8.6569,8.6569,8.6509,8.624,8.5851,8.5462,8.4923,8.4684,8.4384,8.4097,8.4097,8.4097,8.3952,8.3691,8.3429,8.3313,8.3313,8.3313,8.3313,8.3168,8.2239,8.1572,8.1194,8.0933,8.0643,8.0323,8.0294,8.0294,8.0294,8.0294,8.0294,8.0323,8.0672,8.0817,8.0875,8.1223,8.1543,8.1804,8.2181,8.253,8.2791,8.311,8.3313,8.3313,8.3313,8.3313,8.3313,8.3313,8.3529,8.3929,8.3814,8.352,8.3302,8.3568,8.3852,8.4049,8.4207,8.4533,8.4835,8.4906,8.4597,8.3847,8.4029,8.407,8.3925,8.4901,8.5642,8.5893,8.661,8.7285,8.7949,8.7802,8.7474,8.7238,8.6543,8.5313,8.3715,8.4245,8.4229,8.2925,8.2991,8.2713,8.1833,8.2401,8.3005,8.3034,8.3955,8.4725,8.5,8.5081,8.5162,8.5376,8.5568,8.5648,8.5729,8.592,8.611,8.611,8.632,8.653,8.6689,8.6689,8.6689,8.6689,8.6689,8.6689,8.6689,8.6689,8.6689,8.6689,8.6689,8.6689,8.6689,8.6689,8.6689,8.6659,8.6689,8.6659,8.6599,8.6569,8.618,8.591,8.5551,8.5192,8.4097,8.4097,8.4097,8.4097,8.4097,8.4097,8.4097,8.4097,8.4097,8.4097,8.3981,8.311,8.2239,8.1484,8.1107,8.0701,8.0323,8.0294,8.0294,8.0323,8.0468,8.0556,8.0614,8.1165,8.1455,8.1543,8.1949,8.2268,8.253,8.311,8.3429,8.3517,8.3865,8.4097,8.4097,8.4097,8.4097,8.4068,8.4097,8.4097,8.3952,8.3197,8.2617,8.2523,8.2858,8.3135,8.324,8.3429,8.3672,8.4089,8.4381,8.4045,8.3222,8.363,8.3705,8.3419,8.4629,8.5432,8.5408,8.6205,8.694,8.7338,8.731,8.7114,8.6735,8.6183,8.5224,8.4001,8.4075,8.3866,8.3095,8.3215,8.3084,8.232,8.2791,8.3168,8.3197,8.372,8.4262,8.4509,8.4591,8.4784,8.5162,8.5244,8.5244,8.5244,8.5664,8.6025,8.6054,8.6386,8.6776,8.6957,8.7097,8.6968,8.6778,8.6689,8.6689,8.6689,8.6689,8.6689,8.6689,8.6689,8.6689,8.6689,8.6689,8.6689,8.6689,8.6689,8.6689,8.6689,8.6659,8.6629,8.6509,8.621,8.603,8.4097,8.4097,8.4097,8.4097,8.4097,8.4097,8.4097,8.4097,8.4097,8.4097,8.4097,8.3952,8.3284,8.2094,8.102,8.0352,8.0323,8.0381,8.041,8.0468,8.0933,8.1165,8.1194,8.1833,8.2152,8.2152,8.2297,8.2617,8.3139,8.372,8.4039,8.4039,8.4068,8.4097,8.4097,8.4097,8.4097,8.4097,8.4097,8.4097,8.4068,8.401,8.3662,8.3197,8.3163,8.3431,8.3717,8.2987,8.3175,8.4638,8.2962,8.2375,8.3384,8.274,8.2408,8.2725,8.2958,8.3075,8.3265,8.4318,8.5117,8.5194,8.5787,8.6002,8.6032,8.5143,8.4395,8.4012,8.3701,8.3115,8.2568,8.2678,8.2598,8.2465,8.2849,8.3197,8.3226,8.3749,8.4039,8.418,8.4238,8.449,8.4872,8.4866,8.493,8.5129,8.5422,8.5827,8.5968,8.6325,8.6974,8.7609,8.7795,8.7639,8.6938,8.6988,8.6898,8.6958,8.7107,8.6838,8.6718,8.6689,8.6718,8.6689,8.6689,8.6689,8.6689,8.6689,8.6689,8.6689,8.6689,8.6659,8.6689,8.6689,8.6509,8.4097,8.4097,8.4097,8.4097,8.4097,8.4097,8.4097,8.4097,8.4097,8.4097,8.401,8.3691,8.3255,8.2791,8.192,8.1281,8.0933,8.131,8.1514,8.1543,8.1746,8.1833,8.1891,8.25,8.2849,8.2878,8.3226,8.3517,8.372,8.3981,8.4097,8.4097,8.4097,8.4097,8.4097,8.4097,8.4097,8.4097,8.4097,8.4097,8.4097,8.4097,8.3981,8.3749,8.34,8.3325,8.3438,8.2744,8.2347,8.2506,8.2426,8.2207,8.1669,8.1917,8.2176,8.2375,8.301,8.3426,8.3505,8.426,8.4986,8.541,8.5818,8.6162,8.6416,8.5595,8.4909,8.4779,8.4199,8.3686,8.3487,8.34,8.34,8.3429,8.3604,8.3778,8.3807,8.3952,8.4097,8.4155,8.4416,8.4964,8.5338,8.5596,8.5596,8.5625,8.6051,8.6305,8.6447,8.6735,8.7274,8.7464,8.7517,8.7452,8.7261,8.7652,8.7975,8.7975,8.8005,8.7975,8.7915,8.7467,8.7407,8.7317,8.7167,8.6868,8.6898,8.6718,8.6689,8.6689,8.6689,8.6689,8.6689,8.6689,8.6689,8.4213,8.4387,8.4416,8.4533,8.4678,8.4503,8.4416,8.4387,8.4184,8.4097,8.401,8.3662,8.3371,8.3197,8.2907,8.2471,8.1891,8.2094,8.2181,8.221,8.2413,8.253,8.2617,8.3168,8.3487,8.3546,8.3865,8.4097,8.4097,8.4097,8.4097,8.4097,8.4097,8.4097,8.4097,8.4097,8.4097,8.4097,8.4097,8.4097,8.4097,8.4097,8.4097,8.4039,8.3691,8.3487,8.3458,8.2878,8.2326,8.2052,8.2427,8.2095,8.088,8.1137,8.1485,8.1639,8.2223,8.2649,8.2769,8.3457,8.4145,8.4594,8.5227,8.5754,8.6062,8.5428,8.5052,8.4807,8.4509,8.4126,8.4358,8.4416,8.4329,8.4184,8.4271,8.4416,8.4416,8.462,8.4736,8.4852,8.5142,8.5578,8.5926,8.5984,8.5984,8.6042,8.6441,8.6755,8.6839,8.7212,8.7552,8.772,8.7976,8.8089,8.8137,8.8635,8.8427,8.8338,8.8522,8.8723,8.8723,8.8304,8.8035,8.7945,8.7706,8.7317,8.7048,8.6838,8.6748,8.6718,8.6689,8.6689,8.6689,8.6689,8.6689,8.4533,8.5055,8.5084,8.5403,8.5752,8.5229,8.5055,8.491,8.4329,8.4097,8.4068,8.4039,8.372,8.3429,8.3691,8.3662,8.3081,8.2617,8.2413,8.2442,8.2936,8.3197,8.3226,8.372,8.3981,8.3981,8.4068,8.4097,8.4097,8.4097,8.4097,8.4097,8.4097,8.4097,8.4097,8.4097,8.4097,8.4097,8.4097,8.4097,8.4097,8.4097,8.4097,8.4097,8.4039,8.401,8.4039,8.3487,8.3139,8.3023,8.2581,8.1971,8.1252,8.0917,8.046,8.0539,8.051,8.0481,8.0568,8.1746,8.2467,8.2729,8.3477,8.431,8.445,8.4315,8.4262,8.4262,8.4267,8.4358,8.491,8.5055,8.4881,8.4329,8.4765,8.5084,8.52,8.5607,8.6013,8.5955,8.6013,8.6042,8.6071,8.6245,8.6303,8.639,8.6766,8.7085,8.7085,8.752,8.8013,8.8385,8.8465,8.8458,8.9032,8.9517,8.8914,8.8486,8.8726,8.9001,8.9061,8.8821,8.8723,8.8604,8.8364,8.8005,8.7646,8.7437,8.7018,8.6928,8.6838,8.6718,8.6689,8.6689,8.6689,8.5549,8.5723,8.5752,8.5839,8.5955,8.5345,8.5084,8.4997,8.4387,8.4097,8.4097,8.4097,8.3981,8.3894,8.401,8.3981,8.3807,8.3575,8.3487,8.3517,8.3691,8.3807,8.3836,8.3981,8.4097,8.4097,8.4097,8.4097,8.4097,8.4097,8.4097,8.4097,8.4097,8.4097,8.4097,8.4097,8.4097,8.4097,8.4097,8.4097,8.4097,8.4097,8.4097,8.4097,8.4097,8.4097,8.4068,8.3894,8.3604,8.3226,8.2994,8.2588,8.1978,8.1717,8.1397,8.0991,8.0904,8.0701,8.0497,8.1455,8.221,8.2413,8.3371,8.401,8.4097,8.4097,8.4097,8.4155,8.4503,8.491,8.5084,8.549,8.5607,8.5461,8.5607,8.5752,8.581,8.5955,8.6245,8.6623,8.6681,8.6855,8.7203,8.729,8.7232,8.7232,8.7464,8.7581,8.7639,8.7755,8.7929,8.8101,8.8359,8.8531,8.8702,8.8928,8.883,8.8669,8.8967,8.9374,8.9374,8.9315,8.933,8.9232,8.8993,8.8693,8.8334,8.7945,8.7526,8.7227,8.7167,8.6988,8.6748,8.6748,8.6838,8.6158,8.639,8.639,8.6536,8.6623,8.581,8.5432,8.5287,8.4474,8.4097,8.4097,8.4097,8.4097,8.4097,8.4097,8.4097,8.4097,8.4097,8.4097,8.4097,8.4097,8.4097,8.4097,8.4097,8.4097,8.4097,8.4097,8.4097,8.4097,8.4097,8.4097,8.4097,8.4097,8.4097,8.4097,8.4097,8.4097,8.4097,8.4097,8.4097,8.4097,8.4097,8.4097,8.4097,8.4097,8.4097,8.4097,8.4097,8.3923,8.3546,8.3342,8.2965,8.2588,8.2326,8.2007,8.1688,8.1543,8.1397,8.1165,8.2007,8.2588,8.2762,8.3517,8.4068,8.4097,8.4097,8.4155,8.4503,8.4823,8.5287,8.5752,8.6129,8.6448,8.671,8.6506,8.6506,8.6652,8.6739,8.6884,8.7261,8.7319,8.7552,8.7784,8.7929,8.7929,8.7929,8.7929,8.7929,8.7929,8.79,8.7958,8.8044,8.8274,8.8274,8.8015,8.8274,8.8616,8.884,8.9091,8.9591,8.9948,8.9829,8.968,8.9778,8.9621,8.9292,8.8963,8.8454,8.8035,8.7796,8.7646,8.7556,8.7437,8.7197,8.7167,8.6506,8.7029,8.7029,8.7348,8.7639,8.6594,8.6042,8.5781,8.4736,8.4155,8.4097,8.4097,8.4097,8.4097,8.4097,8.4097,8.4097,8.4097,8.4097,8.4097,8.4097,8.4097,8.4097,8.4097,8.4097,8.4097,8.4097,8.4097,8.4097,8.4097,8.4097,8.4097,8.4097,8.4097,8.4097,8.4097,8.4097,8.4097,8.4097,8.4097,8.4097,8.4097,8.4097,8.4097,8.4097,8.4097,8.4097,8.4097,8.4097,8.401,8.3546,8.3313,8.3139,8.2646,8.2413,8.2268,8.2239,8.2152,8.2297,8.2646,8.3168,8.3284,8.3836,8.4184,8.4358,8.4474,8.4649,8.5084,8.5287,8.5752,8.6623,8.7,8.7261,8.7697,8.7319,8.729,8.7784,8.7813,8.7755,8.7813,8.79,8.7929,8.7929,8.7929,8.7929,8.7929,8.7929,8.7958,8.8103,8.8161,8.8074,8.8248,8.8624,8.8625,8.8626,8.8713,8.906,8.926,8.9342,8.9389,9.0001,8.9936,8.996,9.0061,9.016,8.986,8.9561,8.9112,8.8783,8.8634,8.8484,8.8334,8.8065,8.7766,8.7467,8.7523,8.7697,8.7668,8.7784,8.7813,8.7058,8.6448,8.5955,8.52,8.4562,8.4213,8.4097,8.4097,8.4097,8.4097,8.4097,8.4097,8.4097,8.4097,8.4097,8.4097,8.4097,8.4097,8.4097,8.4097,8.4097,8.4097,8.4097,8.4097,8.4097,8.4097,8.4097,8.4097,8.4097,8.4097,8.4097,8.4097,8.4097,8.4097,8.4097,8.4097,8.4097,8.4097,8.4097,8.4097,8.4097,8.4097,8.4097,8.4097,8.4068,8.3952,8.3836,8.3807,8.3604,8.3313,8.2994,8.2907,8.2704,8.2471,8.2849,8.3371,8.3865,8.4416,8.5026,8.549,8.552,8.5607,8.5868,8.6158,8.6594,8.7,8.7377,8.7726,8.7871,8.7726,8.7697,8.7871,8.7929,8.7929,8.7929,8.7929,8.7929,8.7987,8.7987,8.8016,8.8016,8.8074,8.819,8.8509,8.8655,8.8684,8.9148,8.9468,8.938,8.938,8.9468,8.9643,8.9876,8.9612,8.8942,8.9393,8.9606,8.9744,9.0049,9.021,9.0054,9.0017,8.983,8.9651,8.9412,8.9112,8.8843,8.8454,8.8155,8.7856,8.7929,8.7929,8.7929,8.7929,8.7842,8.7261,8.6768,8.6361,8.5752,8.5113,8.462,8.4503,8.4329,8.4097,8.4097,8.4097,8.4097,8.4097,8.4097,8.4097,8.4097,8.4097,8.4097,8.4097,8.4097,8.4097,8.4097,8.4097,8.4097,8.4097,8.4097,8.4097,8.4097,8.4097,8.4097,8.4097,8.4097,8.4097,8.4097,8.4097,8.4097,8.4097,8.4097,8.4097,8.4097,8.4097,8.4097,8.4097,8.4097,8.4097,8.4068,8.4097,8.4097,8.4097,8.3923,8.3575,8.3575,8.3371,8.3168,8.3371,8.3836,8.4416,8.491,8.5374,8.5839,8.6042,8.6071,8.6448,8.6797,8.7087,8.7406,8.7726,8.79,8.7929,8.7929,8.7929,8.7929,8.7929,8.7929,8.7929,8.7929,8.8074,8.8277,8.8335,8.848,8.8684,8.8829,8.9003,8.9206,8.9264,8.9409,8.9816,8.9961,8.9845,8.9787,8.9787,8.9846,9.0051,9.0022,8.9236,8.9057,8.936,8.9525,8.9863,9.0168,9.0359,9.018,9.0174,9.0249,8.995,8.9621,8.9382,8.9082,8.8693,8.8394,8.7929,8.7929,8.7929,8.7929,8.7842,8.7319,8.7058,8.6855,8.6361,8.5781,8.5258,8.5113,8.4736,8.4213,8.4155,8.4097,8.4097,8.4097,8.4097,8.4097,8.4097,8.4097,8.4097,8.4097,8.4097,8.4097,8.4097,8.4097,8.4097,8.4097,8.4097,8.4097,8.4097,8.4097,8.4097,8.4097,8.4097,8.4097,8.4097,8.4097,8.4097,8.4097,8.4097,8.4097,8.4097,8.4097,8.4097,8.4097,8.4097,8.4097,8.4097,8.4097,8.4097,8.4097,8.4068,8.4097,8.4097,8.4184,8.4213,8.4271,8.462,8.5229,8.5374,8.5549,8.6216,8.6448,8.6623,8.7029,8.7087,8.7406,8.7726,8.7929,8.7929,8.7929,8.7929,8.7958,8.8016,8.8016,8.8016,8.8045,8.8074,8.8422,8.8742,8.9003,8.9148,8.9235,8.9409,8.9584,8.9787,8.9932,9.0077,9.0309,9.0309,9.0164,9.0164,9.0164,9.0135,9.0195,9.0195,8.9759,8.9264,8.9286,8.9307,8.9559,8.9783,8.9976,9.0079,9.0216,9.0383,9.0489,9.016,9.004,8.989,8.9441,8.9082,8.7929,8.7929,8.7929,8.7929,8.79,8.7755,8.7435,8.7,8.6855,8.6419,8.5839,8.5345,8.5026,8.4823,8.4358,8.4097,8.4097,8.4097,8.4097,8.4097,8.4097,8.4097,8.4097,8.4097,8.4097,8.4097,8.4097,8.4097,8.4097,8.4097,8.4097,8.4097,8.4097,8.4097,8.4097,8.4097,8.4097,8.4097,8.4097,8.4097,8.4097,8.4097,8.4097,8.4097,8.4097,8.4097,8.4097,8.4097,8.4097,8.4097,8.4097,8.4097,8.4097,8.4097,8.4097,8.4184,8.4591,8.4852,8.4939,8.5258,8.5868,8.6332,8.6419,8.6826,8.7435,8.7435,8.7523,8.7726,8.7755,8.7755,8.7871,8.7929,8.7958,8.7987,8.7987,8.8161,8.8539,8.8655,8.8597,8.8742,8.9061,8.9467,8.9584,8.9613,8.9729,8.9816,8.9961,9.0106,9.0338,9.0571,9.0745,9.089,9.0948,9.0861,9.0861,9.0832,9.0745,9.0658,9.0629,9.0542,8.9964,8.9468,8.9611,8.9518,8.9422,8.9673,8.9842,9.0055,9.0163,9.0389,9.0555,9.0489,9.0249,8.995,8.9771,8.7929,8.7929,8.7929,8.7929,8.7929,8.7929,8.7726,8.7464,8.7435,8.7058,8.6506,8.61,8.5665,8.5084,8.4707,8.4416,8.4126,8.4097,8.4097,8.4097,8.4097,8.4097,8.4097,8.4097,8.4097,8.4097,8.4097,8.4097,8.4097,8.4097,8.4097,8.4097,8.4097,8.4097,8.4097,8.4097,8.4097,8.4097,8.4097,8.4097,8.4097,8.4097,8.4097,8.4097,8.4097,8.4097,8.4097,8.4097,8.4097,8.4097,8.4097,8.4097,8.4097,8.4097,8.4097,8.4184,8.4707,8.5055,8.5229,8.5694,8.6274,8.6942,8.7,8.7348,8.7726,8.7929,8.7929,8.7929,8.79,8.7929,8.7929,8.7929,8.8016,8.8335,8.8364,8.8655,8.9119,8.9061,8.9032,8.9264,8.9555,8.9932,9.0135,9.0251,9.0542,9.0745,9.089,9.1006,9.1064,9.1267,9.1354,9.147,9.1616,9.1645,9.1645,9.1558,9.1441,9.1354,9.1267,9.1209,9.095,9.0517,9.011,8.9847,8.9639,8.9518,8.9772,8.9846,9.0031,9.0222,9.0419,9.0472,9.0579,9.0309,9.0219,8.7929,8.7929,8.7929,8.7929,8.7929,8.7929,8.79,8.79,8.7929,8.7581,8.7145,8.7058,8.6216,8.5432,8.5084,8.4678,8.4271,8.4271,8.4358,8.4358,8.4562,8.4591,8.4591,8.4591,8.4562,8.4358,8.4184,8.4097,8.4097,8.4097,8.4097,8.4097,8.4097,8.4097,8.4097,8.4097,8.4097,8.4097,8.4097,8.4097,8.4097,8.4097,8.4097,8.4097,8.4097,8.4097,8.4097,8.4097,8.4097,8.4097,8.4097,8.4155,8.4213,8.4242,8.4242,8.43,8.5055,8.5549,8.5723,8.61,8.6681,8.7116,8.7145,8.7377,8.7813,8.7929,8.7929,8.7929,8.7929,8.7929,8.7929,8.8103,8.8364,8.8713,8.8916,8.9322,8.97,8.9467,8.9613,8.9874,9.028,9.0658,9.0832,9.0977,9.1325,9.1616,9.1703,9.179,9.179,9.1761,9.1732,9.1703,9.1761,9.179,9.179,9.1761,9.1703,9.1674,9.1674,9.1645,9.1587,9.127,9.0719,9.0167,8.9935,8.9788,8.9755,8.9804,8.9994,9.0065,9.0168,9.0389,9.0472,9.0555,9.0579,8.7929,8.7929,8.7929,8.7929,8.7929,8.7929,8.7929,8.7929,8.7929,8.7871,8.7697,8.7232,8.6623,8.5868,8.5287,8.4736,8.4416,8.4562,8.4881,8.4997,8.5287,8.5549,8.549,8.5461,8.5549,8.5403,8.4823,8.4271,8.4213,8.4097,8.4213,8.4126,8.4097,8.4097,8.4097,8.4097,8.4097,8.4097,8.4097,8.4097,8.4097,8.4097,8.4097,8.4097,8.4097,8.4097,8.4097,8.4097,8.4097,8.4097,8.4097,8.4416,8.4794,8.4939,8.4968,8.5142,8.5897,8.6419,8.6536,8.7145,8.7552,8.7755,8.7697,8.7726,8.79,8.7929,8.7929,8.7958,8.7958,8.7958,8.7958,8.8422,8.8742,8.9003,8.9409,8.9932,9.0425,9.0542,9.0454,9.0629,9.1035,9.1325,9.1354,9.1412,9.1558,9.1703,9.1732,9.179,9.179,9.179,9.1761,9.1761,9.1761,9.179,9.179,9.179,9.1761,9.1732,9.1732,9.1732,9.1703,9.1732,9.1325,9.0805,9.0282,9.0051,9.0051,8.996,8.9981,9.0201,9.0243,9.0252,9.0389,9.0472,9.0555,8.7929,8.7929,8.7929,8.7929,8.7929,8.7929,8.7929,8.7929,8.7929,8.7929,8.7842,8.7581,8.6913,8.6158,8.5752,8.5229,8.4852,8.4881,8.5258,8.5578,8.5897,8.6013,8.6071,8.6071,8.6013,8.5868,8.5374,8.5084,8.5055,8.4765,8.4649,8.4503,8.43,8.4097,8.4097,8.4097,8.4097,8.4097,8.4097,8.4097,8.4097,8.4097,8.4097,8.4097,8.4097,8.4097,8.4097,8.4097,8.4271,8.4533,8.462,8.4968,8.5461,8.5839,8.5926,8.5868,8.6506,8.7,8.7087,8.7552,8.7871,8.79,8.7929,8.7929,8.7929,8.7929,8.7958,8.8016,8.8335,8.8422,8.8451,8.9003,8.9467,8.9845,9.0164,9.06,9.1093,9.1267,9.1267,9.1267,9.1441,9.1587,9.1674,9.1703,9.1761,9.179,9.179,9.179,9.179,9.179,9.179,9.179,9.179,9.179,9.179,9.179,9.179,9.179,9.179,9.179,9.1761,9.1761,9.1703,9.1383,9.0979,9.0456,9.04,9.0372,9.0398,9.0302,9.0464,9.0506,9.0371,9.0389,9.0532,8.7929,8.7929,8.7929,8.7929,8.7929,8.7929,8.7929,8.7929,8.7929,8.7929,8.7929,8.7842,8.7261,8.6419,8.6013,8.5665,8.5171,8.5287,8.5839,8.6187,8.6448,8.6448,8.6448,8.6419,8.6536,8.6623,8.6477,8.6274,8.581,8.549,8.5316,8.5113,8.462,8.43,8.4329,8.4387,8.4271,8.4126,8.4271,8.4271,8.4126,8.4097,8.4184,8.4271,8.43,8.4387,8.462,8.4649,8.4852,8.5142,8.5345,8.5636,8.6332,8.6884,8.7058,8.6913,8.7087,8.7174,8.7493,8.761,8.7987,8.819,8.8016,8.7958,8.7987,8.8103,8.8248,8.8364,8.8713,8.9061,8.9148,8.9642,9.0164,9.06,9.0861,9.118,9.1499,9.1674,9.1645,9.1674,9.179,9.179,9.179,9.179,9.179,9.179,9.179,9.179,9.179,9.179,9.179,9.179,9.179,9.179,9.179,9.179,9.179,9.179,9.179,9.179,9.179,9.1761,9.1703,9.1645,9.1412,9.1037,9.0952,9.0808,9.0723,9.0662,9.0683,9.0697,9.0565,9.055,9.0687,8.7929,8.7929,8.7929,8.7929,8.7929,8.7929,8.7929,8.7929,8.7929,8.7929,8.7929,8.79,8.7523,8.6826,8.6216,8.5694,8.5607,8.6129,8.6652,8.6913,8.729,8.7493,8.761,8.7726,8.7493,8.7435,8.7523,8.7,8.6419,8.6071,8.5926,8.5781,8.5345,8.4968,8.4968,8.4968,8.4649,8.4329,8.4707,8.4707,8.43,8.4213,8.4503,8.4823,8.5055,8.5229,8.5636,8.5723,8.5926,8.6013,8.6013,8.6565,8.7464,8.7755,8.848,8.8713,8.8597,8.8045,8.8364,8.8248,8.8219,8.8451,8.8277,8.8016,8.8219,8.8568,8.8945,8.9584,8.97,8.97,8.9816,9.0338,9.0687,9.0977,9.1296,9.1499,9.179,9.179,9.179,9.179,9.179,9.179,9.179,9.179,9.179,9.179,9.179,9.179,9.179,9.179,9.179,9.179,9.179,9.179,9.179,9.179,9.179,9.179,9.179,9.179,9.179,9.179,9.179,9.1703,9.1558,9.1499,9.1415,9.1243,9.1012,9.0986,9.0897,9.0916,9.0811,9.0858,9.0788,8.7929,8.7929,8.7929,8.7929,8.7929,8.7929,8.7929,8.7929,8.7929,8.7929,8.7929,8.7929,8.7581,8.6942,8.6303,8.6129,8.6245,8.6739,8.7203,8.7464,8.7784,8.7929,8.79,8.7929,8.7929,8.7929,8.79,8.7697,8.7087,8.671,8.6565,8.6477,8.5955,8.5607,8.5607,8.5636,8.5461,8.5345,8.5461,8.549,8.5258,8.52,8.5316,8.5636,8.5955,8.6303,8.6594,8.6971,8.729,8.7523,8.7639,8.7842,8.8422,8.8713,8.9061,8.8539,8.8974,8.8945,8.8829,8.8626,8.8713,8.8771,8.8684,8.8655,8.8916,8.9235,8.9467,8.9758,9.0193,9.0367,9.0483,9.0977,9.1238,9.147,9.1587,9.1645,9.179,9.179,9.179,9.179,9.179,9.179,9.179,9.179,9.179,9.179,9.179,9.179,9.179,9.179,9.179,9.179,9.179,9.179,9.179,9.179,9.179,9.179,9.179,9.179,9.179,9.179,9.179,9.179,9.1703,9.1703,9.1761,9.1647,9.1359,9.1246,9.1102,9.1044,9.1034,9.0896,9.0798,8.7929,8.7929,8.7929,8.7929,8.7929,8.7929,8.7929,8.7929,8.7929,8.7929,8.7929,8.79,8.7581,8.7087,8.671,8.6739,8.6942,8.7145,8.7493,8.7813,8.7929,8.7929,8.7929,8.7929,8.7929,8.7929,8.7929,8.7842,8.7755,8.7493,8.7232,8.7203,8.6594,8.6303,8.6274,8.6274,8.6216,8.6216,8.6013,8.5955,8.5955,8.6158,8.6332,8.6652,8.7087,8.7523,8.7726,8.8103,8.8684,8.8887,8.8974,8.909,8.9467,8.9758,8.9845,8.9613,8.999,9.0019,8.9642,8.9322,8.9235,8.9264,8.9206,8.9351,8.9932,9.0077,9.0222,9.0425,9.0774,9.1006,9.1151,9.1499,9.1587,9.1674,9.1761,9.1761,9.179,9.179,9.179,9.179,9.179,9.179,9.179,9.179,9.179,9.179,9.179,9.179,9.179,9.179,9.179,9.179,9.179,9.179,9.179,9.179,9.179,9.179,9.179,9.179,9.179,9.179,9.179,9.179,9.179,9.1761,9.1761,9.1703,9.1645,9.1534,9.1421,9.1248,9.1161,9.0975,9.0837,8.7929,8.7929,8.7929,8.7929,8.7929,8.7929,8.7929,8.7929,8.7929,8.7929,8.7929,8.79,8.7581,8.7232,8.7406,8.7377,8.7029,8.761,8.7813,8.79,8.7929,8.7929,8.7929,8.7929,8.7929,8.7929,8.7929,8.7929,8.79,8.7842,8.7784,8.7755,8.7174,8.7,8.6971,8.7029,8.7058,8.7,8.6768,8.6506,8.6594,8.6855,8.7319,8.7842,8.8422,8.9003,8.9555,8.9642,8.9729,8.9903,8.9903,8.9961,9.0309,9.06,9.0658,9.0629,9.1006,9.0919,9.0483,9.0048,9.0106,9.028,9.028,9.0135,9.0658,9.0745,9.1006,9.1325,9.1441,9.1558,9.1645,9.1761,9.1761,9.179,9.179,9.179,9.179,9.179,9.179,9.179,9.179,9.179,9.179,9.179,9.179,9.179,9.179,9.179,9.179,9.179,9.179,9.179,9.179,9.179,9.179,9.179,9.179,9.179,9.179,9.179,9.179,9.179,9.179,9.179,9.179,9.179,9.179,9.1732,9.1732,9.1761,9.1708,9.1479,9.1308,9.1158,9.1056,8.7929,8.7929,8.7929,8.7929,8.7929,8.7929,8.7929,8.7929,8.7929,8.7929,8.7929,8.79,8.7784,8.7697,8.7726,8.7813,8.761,8.7755,8.79,8.7929,8.7929,8.7929,8.7929,8.7929,8.7929,8.7929,8.7929,8.7929,8.7929,8.7929,8.7929,8.7813,8.7639,8.761,8.7639,8.79,8.8103,8.819,8.8248,8.8335,8.8422,8.8539,8.8829,8.909,8.9729,9.0135,9.0454,9.0832,9.0977,9.0977,9.0948,9.0948,9.0919,9.118,9.1122,9.0977,9.1383,9.1412,9.1006,9.06,9.06,9.0745,9.0919,9.1093,9.1325,9.1383,9.1499,9.1703,9.179,9.179,9.1761,9.1761,9.179,9.179,9.179,9.179,9.179,9.179,9.179,9.179,9.179,9.179,9.179,9.179,9.179,9.179,9.179,9.179,9.179,9.179,9.179,9.179,9.179,9.179,9.179,9.179,9.179,9.179,9.179,9.179,9.179,9.179,9.179,9.179,9.179,9.179,9.179,9.179,9.179,9.1761,9.1764,9.171,9.1512,9.1308,9.1243,8.7929,8.7929,8.7929,8.7929,8.7929,8.7929,8.7929,8.7929,8.7929,8.7929,8.7929,8.7929,8.7929,8.7929,8.7929,8.7929,8.7871,8.79,8.7929,8.7929,8.7929,8.7929,8.7929,8.7929,8.7929,8.7929,8.7929,8.7929,8.7929,8.7929,8.7929,8.7958,8.8103,8.819,8.8364,8.88,8.9177,8.9293,8.9526,8.9816,8.9729,8.9961,9.0048,9.0164,9.0687,9.1006,9.118,9.1412,9.1587,9.1645,9.1616,9.1499,9.1412,9.1354,9.1209,9.1064,9.1064,9.1499,9.1238,9.1093,9.1093,9.1238,9.1441,9.1645,9.179,9.179,9.1732,9.1761,9.179,9.179,9.179,9.179,9.179,9.179,9.179,9.179,9.179,9.179,9.179,9.179,9.179,9.179,9.179,9.179,9.179,9.179,9.179,9.179,9.179,9.179,9.179,9.179,9.179,9.179,9.179,9.179,9.179,9.179,9.179,9.179,9.179,9.179,9.179,9.179,9.179,9.179,9.179,9.179,9.179,9.179,9.1764,9.1766,9.1623,9.1542,9.1367,8.7929,8.7929,8.7929,8.7929,8.7929,8.7929,8.7929,8.7929,8.7929,8.7929,8.7929,8.7929,8.7929,8.7929,8.7929,8.7929,8.7929,8.7929,8.7929,8.7929,8.7929,8.7929,8.7929,8.7929,8.7929,8.7929,8.7929,8.7929,8.7929,8.8074,8.8045,8.8277,8.8684,8.8945,8.8945,8.9496,8.9787,8.9816,8.9874,9.0019,9.0164,9.0571,9.0745,9.0948,9.1296,9.1558,9.1616,9.1674,9.179,9.179,9.179,9.1703,9.1674,9.1674,9.1645,9.1616,9.1645,9.1732,9.1732,9.1732,9.1674,9.1616,9.1732,9.1761,9.179,9.179,9.179,9.179,9.179,9.179,9.179,9.179,9.179,9.179,9.179,9.179,9.179,9.179,9.179,9.179,9.179,9.179,9.179,9.179,9.179,9.179,9.179,9.179,9.179,9.179,9.179,9.179,9.179,9.179,9.179,9.179,9.179,9.179,9.179,9.179,9.179,9.179,9.179,9.179,9.179,9.179,9.179,9.179,9.179,9.179,9.179,9.1793,9.1708,9.1683,9.1483,8.7929,8.7929,8.7929,8.7929,8.7929,8.7929,8.7929,8.7929,8.7929,8.7929,8.7929,8.7929,8.7929,8.7929,8.7929,8.7929,8.7929,8.7929,8.7929,8.7929,8.7929,8.7929,8.7929,8.7929,8.7929,8.7929,8.7929,8.7987,8.7929,8.8335,8.8539,8.8771,8.9467,8.9845,8.9787,9.0106,9.0483,9.0571,9.0861,9.1151,9.1151,9.1296,9.1412,9.1412,9.1674,9.1761,9.179,9.179,9.179,9.179,9.179,9.179,9.179,9.179,9.179,9.179,9.179,9.179,9.179,9.1761,9.1761,9.179,9.179,9.179,9.179,9.179,9.179,9.179,9.179,9.179,9.179,9.179,9.179,9.179,9.179,9.179,9.179,9.179,9.179,9.179,9.179,9.179,9.179,9.179,9.179,9.179,9.179,9.179,9.179,9.179,9.179,9.179,9.179,9.179,9.179,9.179,9.179,9.179,9.179,9.179,9.179,9.179,9.179,9.179,9.179,9.179,9.179,9.179,9.179,9.179,9.179,9.179,9.1764,9.1708,9.1683,8.7929,8.7929,8.7929,8.7929,8.7929,8.7929,8.7929,8.7929,8.7929,8.7929,8.7929,8.7929,8.7929,8.7929,8.7929,8.7929,8.7929,8.7929,8.7929,8.7929,8.7929,8.7929,8.7929,8.7958,8.8103,8.8132,8.8277,8.8335,8.8713,8.9032,8.9351,8.9787,9.0396,9.06,9.0658,9.0977,9.1151,9.1238,9.147,9.1645,9.1674,9.1732,9.1732,9.1732,9.179,9.179,9.179,9.179,9.179,9.179,9.179,9.179,9.179,9.179,9.179,9.179,9.179,9.179,9.179,9.179,9.179,9.179,9.179,9.179,9.179,9.179,9.179,9.179,9.179,9.179,9.179,9.179,9.179,9.179,9.179,9.179,9.179,9.179,9.179,9.179,9.179,9.179,9.179,9.179,9.179,9.179,9.179,9.179,9.179,9.179,9.179,9.179,9.179,9.179,9.179,9.179,9.179,9.179,9.179,9.179,9.179,9.179,9.179,9.179,9.179,9.179,9.179,9.179,9.179,9.179,9.179,9.179,9.179,9.1764,9.1737,8.7929,8.7929,8.7929,8.7929,8.7929,8.7929,8.7929,8.7929,8.7929,8.7929,8.7929,8.7929,8.7929,8.7929,8.7929,8.7929,8.7929,8.7929,8.7929,8.7929,8.7929,8.7929,8.7929,8.7929,8.8132,8.8568,8.88,8.8858,8.9642,8.9816,9.0164,9.0629,9.089,9.1151,9.1412,9.1558,9.1616,9.1645,9.1674,9.179,9.179,9.179,9.179,9.179,9.179,9.179,9.179,9.179,9.179,9.179,9.179,9.179,9.179,9.179,9.179,9.179,9.179,9.179,9.179,9.179,9.179,9.179,9.179,9.179,9.179,9.179,9.179,9.179,9.179,9.179,9.179,9.179,9.179,9.179,9.179,9.179,9.179,9.179,9.179,9.179,9.179,9.179,9.179,9.179,9.179,9.179,9.179,9.179,9.179,9.179,9.179,9.179,9.179,9.179,9.179,9.179,9.179,9.179,9.179,9.179,9.179,9.179,9.179,9.179,9.179,9.179,9.179,9.179,9.179,9.179,9.179,9.179,9.179,9.179,9.1764,8.7929,8.7929,8.7929,8.7929,8.7929,8.7929,8.7929,8.7929,8.7929,8.7929,8.7929,8.7929,8.7929,8.7929,8.7929,8.7929,8.7929,8.7929,8.7929,8.7929,8.7929,8.7929,8.7929,8.7929,8.8074,8.8335,8.8684,8.9119,8.9409,8.9932,9.0861,9.1383,9.1412,9.1616,9.1703,9.179,9.179,9.179,9.179,9.179,9.179,9.179,9.179,9.179,9.179,9.179,9.179,9.179,9.179,9.179,9.179,9.179,9.179,9.179,9.179,9.179,9.179,9.179,9.179,9.179,9.179,9.179,9.179,9.179,9.179,9.179,9.179,9.179,9.179,9.179,9.179,9.179,9.179,9.179,9.179,9.179,9.179,9.179,9.179,9.179,9.179,9.179,9.179,9.179,9.179,9.179,9.179,9.179,9.179,9.179,9.179,9.179,9.179,9.179,9.179,9.179,9.179,9.179,9.179,9.179,9.179,9.179,9.179,9.179,9.179,9.179,9.179,9.179,9.179,9.179,9.179,9.179,9.179,9.179,9.1761,8.7929,8.7929,8.7929,8.7929,8.7929,8.7929,8.7929,8.7929,8.7929,8.7929,8.7929,8.7929,8.7929,8.7929,8.7929,8.7929,8.7929,8.7929,8.7929,8.7929,8.7929,8.7929,8.7929,8.7958,8.8132,8.8393,8.8916,8.9526,8.9787,9.0542,9.147,9.1674,9.179,9.179,9.179,9.179,9.179,9.179,9.179,9.179,9.179,9.179,9.179,9.179,9.179,9.179,9.179,9.179,9.179,9.179,9.179,9.179,9.179,9.179,9.179,9.179,9.179,9.179,9.179,9.179,9.179,9.179,9.179,9.179,9.179,9.179,9.179,9.179,9.179,9.179,9.179,9.179,9.179,9.179,9.179,9.179,9.179,9.179,9.179,9.179,9.179,9.179,9.179,9.179,9.179,9.179,9.179,9.179,9.179,9.179,9.179,9.179,9.179,9.179,9.179,9.179,9.179,9.179,9.179,9.179,9.179,9.179,9.179,9.179,9.179,9.179,9.179,9.179,9.179,9.179,9.179,9.179,9.179,9.179,9.1761,8.7929,8.7929,8.7929,8.7929,8.7929,8.7929,8.7929,8.7929,8.7929,8.7929,8.7929,8.7929,8.7929,8.7929,8.7929,8.7929,8.7929,8.7929,8.7929,8.7929,8.7929,8.7929,8.7929,8.7958,8.8103,8.8771,8.9467,8.999,9.0803,9.1354,9.1645,9.179,9.179,9.179,9.179,9.179,9.179,9.179,9.179,9.179,9.179,9.179,9.179,9.179,9.179,9.179,9.179,9.179,9.179,9.179,9.179,9.179,9.179,9.179,9.179,9.179,9.179,9.179,9.179,9.179,9.179,9.179,9.179,9.179,9.179,9.179,9.179,9.179,9.179,9.179,9.179,9.179,9.179,9.179,9.179,9.179,9.179,9.179,9.179,9.179,9.179,9.179,9.179,9.179,9.179,9.179,9.179,9.179,9.179,9.179,9.179,9.179,9.179,9.179,9.179,9.179,9.179,9.179,9.179,9.179,9.179,9.179,9.179,9.179,9.179,9.179,9.179,9.179,9.179,9.179,9.179,9.179,9.179,9.179,9.1761,8.7929,8.7929,8.7929,8.7929,8.7929,8.7929,8.7929,8.7929,8.7929,8.7929,8.7929,8.7929,8.7929,8.7929,8.7929,8.7929,8.7929,8.7929,8.7929,8.7929,8.7929,8.8016,8.7929,8.7987,8.8132,8.8451,8.9235,9.0425,9.1267,9.1674,9.179,9.179,9.179,9.179,9.179,9.179,9.179,9.179,9.179,9.179,9.179,9.179,9.179,9.179,9.179,9.179,9.179,9.179,9.179,9.179,9.179,9.179,9.179,9.179,9.179,9.179,9.179,9.179,9.179,9.179,9.179,9.179,9.179,9.179,9.179,9.179,9.179,9.179,9.179,9.179,9.179,9.179,9.179,9.179,9.179,9.179,9.179,9.179,9.179,9.179,9.179,9.179,9.179,9.179,9.179,9.179,9.179,9.179,9.179,9.179,9.179,9.179,9.179,9.179,9.179,9.179,9.179,9.179,9.179,9.179,9.179,9.179,9.179,9.179,9.179,9.179,9.179,9.179,9.179,9.179,9.179,9.179,9.179,9.179,9.179,8.7929,8.7929,8.7929,8.7929,8.7929,8.7929,8.7929,8.7929,8.7929,8.7929,8.7929,8.7929,8.7929,8.7929,8.7929,8.7958,8.7958,8.7929,8.7929,8.7929,8.8045,8.8161,8.8161,8.8132,8.8539,8.8858,8.9758,9.0803,9.1645,9.179,9.179,9.179,9.179,9.179,9.179,9.179,9.179,9.179,9.179,9.179,9.179,9.179,9.179,9.179,9.179,9.179,9.179,9.179,9.179,9.179,9.179,9.179,9.179,9.179,9.179,9.179,9.179,9.179,9.179,9.179,9.179,9.179,9.179,9.179,9.179,9.179,9.179,9.179,9.179,9.179,9.179,9.179,9.179,9.179,9.179,9.179,9.179,9.179,9.179,9.179,9.179,9.179,9.179,9.179,9.179,9.179,9.179,9.179,9.179,9.179,9.179,9.179,9.179,9.179,9.179,9.179,9.179,9.179,9.179,9.179,9.179,9.179,9.179,9.179,9.179,9.179,9.179,9.179,9.179,9.179,9.179,9.179,9.179,9.179,9.179,8.7929,8.7929,8.7929,8.7929,8.7929,8.7929,8.7929,8.7929,8.7929,8.7929,8.7929,8.7929,8.7929,8.7929,8.7929,8.7987,8.8074,8.8219,8.8132,8.8161,8.8277,8.848,8.8568,8.8539,8.909,8.97,9.0425,9.1064,9.1761,9.179,9.179,9.179,9.179,9.179,9.179,9.179,9.179,9.179,9.179,9.179,9.179,9.179,9.179,9.179,9.179,9.179,9.179,9.179,9.179,9.179,9.179,9.179,9.179,9.179,9.179,9.179,9.179,9.179,9.179,9.179,9.179,9.179,9.179,9.179,9.179,9.179,9.179,9.179,9.179,9.179,9.179,9.179,9.179,9.179,9.179,9.179,9.179,9.179,9.179,9.179,9.179,9.179,9.179,9.179,9.179,9.179,9.179,9.179,9.179,9.179,9.179,9.179,9.179,9.179,9.179,9.179,9.179,9.179,9.179,9.179,9.179,9.179,9.179,9.179,9.179,9.179,9.179,9.179,9.179,9.179,9.179,9.179,9.179,9.179,9.179,8.7929,8.7929,8.7929,8.7929,8.7929,8.7929,8.7929,8.7929,8.7929,8.7929,8.7929,8.7929,8.7929,8.7929,8.7929,8.8103,8.8539,8.8597,8.8655,8.8713,8.9003,8.9061,8.9177,8.9409,8.9932,9.0425,9.0832,9.118,9.1703,9.179,9.179,9.179,9.179,9.179,9.179,9.179,9.179,9.179,9.179,9.179,9.179,9.179,9.179,9.179,9.179,9.179,9.179,9.179,9.179,9.179,9.179,9.179,9.179,9.179,9.179,9.179,9.179,9.179,9.179,9.179,9.179,9.179,9.179,9.179,9.179,9.179,9.179,9.179,9.179,9.179,9.179,9.179,9.179,9.179,9.179,9.179,9.179,9.179,9.179,9.179,9.179,9.179,9.179,9.179,9.179,9.179,9.179,9.179,9.179,9.179,9.179,9.179,9.179,9.179,9.179,9.179,9.179,9.179,9.179,9.179,9.179,9.179,9.179,9.179,9.179,9.179,9.179,9.179,9.179,9.179,9.179,9.179,9.179,9.179,9.179]}]]